<?xml version="1.0" encoding="UTF-8" standalone="no" ?>
<gpx xmlns="http://www.topografix.com/GPX/1/1" xmlns:xsi="http://www.w3.org/2001/XMLSchema-instance" xsi:schemaLocation="http://www.topografix.com/GPX/1/1 http://www.topografix.com/GPX/1/1/gpx.xsd" version="1.1" creator="VisuGPX - https://www.visugpx.com">
  <metadata>
    <name>Roche de roquebrune</name>
    <desc><![CDATA[Sentiers assez technique, il faut par endroit mettre les mains. On a eu de la pluie toute la rando.]]></desc>
  </metadata>
  <trk>
    <name><![CDATA[2014-02-02 - Rocher de roquebrune sur argens]]></name>
    <trkseg>
      <trkpt lat="43.44849" lon="6.62279">
        <ele>13.421753</ele>
        <time>2014-02-02T08:42:00Z</time>
      </trkpt>
      <trkpt lat="43.44849" lon="6.62279">
        <ele>13.449219</ele>
        <time>2014-02-02T08:42:01Z</time>
      </trkpt>
      <trkpt lat="43.44845" lon="6.62277">
        <ele>13.586548</ele>
        <time>2014-02-02T08:42:05Z</time>
      </trkpt>
      <trkpt lat="43.44838" lon="6.62275">
        <ele>13.820007</ele>
        <time>2014-02-02T08:42:12Z</time>
      </trkpt>
      <trkpt lat="43.44838" lon="6.62274">
        <ele>13.83374</ele>
        <time>2014-02-02T08:42:13Z</time>
      </trkpt>
      <trkpt lat="43.44834" lon="6.62271">
        <ele>13.971069</ele>
        <time>2014-02-02T08:42:17Z</time>
      </trkpt>
      <trkpt lat="43.44826" lon="6.62268">
        <ele>14.778381</ele>
        <time>2014-02-02T08:42:25Z</time>
      </trkpt>
      <trkpt lat="43.44821" lon="6.62264">
        <ele>15.355164</ele>
        <time>2014-02-02T08:42:31Z</time>
      </trkpt>
      <trkpt lat="43.44813" lon="6.62256">
        <ele>16.179138</ele>
        <time>2014-02-02T08:42:40Z</time>
      </trkpt>
      <trkpt lat="43.44808" lon="6.62254">
        <ele>16.75592</ele>
        <time>2014-02-02T08:42:45Z</time>
      </trkpt>
      <trkpt lat="43.44798" lon="6.62245">
        <ele>17.381241</ele>
        <time>2014-02-02T08:42:55Z</time>
      </trkpt>
      <trkpt lat="43.44788" lon="6.62234">
        <ele>17.693665</ele>
        <time>2014-02-02T08:43:05Z</time>
      </trkpt>
      <trkpt lat="43.44783" lon="6.62227">
        <ele>17.764046</ele>
        <time>2014-02-02T08:43:13Z</time>
      </trkpt>
      <trkpt lat="43.4478" lon="6.62219">
        <ele>17.715786</ele>
        <time>2014-02-02T08:43:20Z</time>
      </trkpt>
      <trkpt lat="43.44778" lon="6.62215">
        <ele>17.698174</ele>
        <time>2014-02-02T08:43:23Z</time>
      </trkpt>
      <trkpt lat="43.44777" lon="6.62211">
        <ele>17.652359</ele>
        <time>2014-02-02T08:43:26Z</time>
      </trkpt>
      <trkpt lat="43.44773" lon="6.62204">
        <ele>17.521896</ele>
        <time>2014-02-02T08:43:32Z</time>
      </trkpt>
      <trkpt lat="43.44771" lon="6.62198">
        <ele>17.396584</ele>
        <time>2014-02-02T08:43:39Z</time>
      </trkpt>
      <trkpt lat="43.44766" lon="6.62189">
        <ele>17.327766</ele>
        <time>2014-02-02T08:43:46Z</time>
      </trkpt>
      <trkpt lat="43.44761" lon="6.62182">
        <ele>17.337526</ele>
        <time>2014-02-02T08:43:53Z</time>
      </trkpt>
      <trkpt lat="43.44757" lon="6.62177">
        <ele>17.271826</ele>
        <time>2014-02-02T08:43:58Z</time>
      </trkpt>
      <trkpt lat="43.44754" lon="6.62173">
        <ele>17.201462</ele>
        <time>2014-02-02T08:44:02Z</time>
      </trkpt>
      <trkpt lat="43.44747" lon="6.62167">
        <ele>17.206909</ele>
        <time>2014-02-02T08:44:09Z</time>
      </trkpt>
      <trkpt lat="43.44741" lon="6.6216">
        <ele>17.900421</ele>
        <time>2014-02-02T08:44:16Z</time>
      </trkpt>
      <trkpt lat="43.44736" lon="6.62156">
        <ele>18.401672</ele>
        <time>2014-02-02T08:44:23Z</time>
      </trkpt>
      <trkpt lat="43.44729" lon="6.62151">
        <ele>19.100334</ele>
        <time>2014-02-02T08:44:31Z</time>
      </trkpt>
      <trkpt lat="43.44719" lon="6.62142">
        <ele>19.898636</ele>
        <time>2014-02-02T08:44:42Z</time>
      </trkpt>
      <trkpt lat="43.44713" lon="6.62135">
        <ele>20</ele>
        <time>2014-02-02T08:44:49Z</time>
      </trkpt>
      <trkpt lat="43.44706" lon="6.62124">
        <ele>20</ele>
        <time>2014-02-02T08:44:58Z</time>
      </trkpt>
      <trkpt lat="43.44704" lon="6.6212">
        <ele>20</ele>
        <time>2014-02-02T08:45:05Z</time>
      </trkpt>
      <trkpt lat="43.44705" lon="6.62121">
        <ele>20</ele>
        <time>2014-02-02T08:45:12Z</time>
      </trkpt>
      <trkpt lat="43.44699" lon="6.62112">
        <ele>20</ele>
        <time>2014-02-02T08:45:19Z</time>
      </trkpt>
      <trkpt lat="43.44698" lon="6.6211">
        <ele>20</ele>
        <time>2014-02-02T08:45:20Z</time>
      </trkpt>
      <trkpt lat="43.44689" lon="6.62098">
        <ele>20</ele>
        <time>2014-02-02T08:45:28Z</time>
      </trkpt>
      <trkpt lat="43.44682" lon="6.62087">
        <ele>20</ele>
        <time>2014-02-02T08:45:35Z</time>
      </trkpt>
      <trkpt lat="43.44676" lon="6.6208">
        <ele>20</ele>
        <time>2014-02-02T08:45:42Z</time>
      </trkpt>
      <trkpt lat="43.44673" lon="6.62079">
        <ele>20</ele>
        <time>2014-02-02T08:45:46Z</time>
      </trkpt>
      <trkpt lat="43.44665" lon="6.62075">
        <ele>20</ele>
        <time>2014-02-02T08:45:55Z</time>
      </trkpt>
      <trkpt lat="43.44659" lon="6.62076">
        <ele>20</ele>
        <time>2014-02-02T08:46:02Z</time>
      </trkpt>
      <trkpt lat="43.44657" lon="6.62076">
        <ele>20</ele>
        <time>2014-02-02T08:46:05Z</time>
      </trkpt>
      <trkpt lat="43.44651" lon="6.62074">
        <ele>20</ele>
        <time>2014-02-02T08:46:10Z</time>
      </trkpt>
      <trkpt lat="43.4464" lon="6.62072">
        <ele>20</ele>
        <time>2014-02-02T08:46:18Z</time>
      </trkpt>
      <trkpt lat="43.44634" lon="6.62072">
        <ele>20</ele>
        <time>2014-02-02T08:46:23Z</time>
      </trkpt>
      <trkpt lat="43.4463" lon="6.62069">
        <ele>20</ele>
        <time>2014-02-02T08:46:26Z</time>
      </trkpt>
      <trkpt lat="43.44626" lon="6.6207">
        <ele>20</ele>
        <time>2014-02-02T08:46:30Z</time>
      </trkpt>
      <trkpt lat="43.44614" lon="6.62067">
        <ele>20</ele>
        <time>2014-02-02T08:46:39Z</time>
      </trkpt>
      <trkpt lat="43.44604" lon="6.62064">
        <ele>20</ele>
        <time>2014-02-02T08:46:46Z</time>
      </trkpt>
      <trkpt lat="43.44595" lon="6.62065">
        <ele>20</ele>
        <time>2014-02-02T08:46:53Z</time>
      </trkpt>
      <trkpt lat="43.44585" lon="6.62063">
        <ele>20</ele>
        <time>2014-02-02T08:47:01Z</time>
      </trkpt>
      <trkpt lat="43.4458" lon="6.62061">
        <ele>20</ele>
        <time>2014-02-02T08:47:05Z</time>
      </trkpt>
      <trkpt lat="43.44578" lon="6.6206">
        <ele>20</ele>
        <time>2014-02-02T08:47:07Z</time>
      </trkpt>
      <trkpt lat="43.4457" lon="6.62061">
        <ele>20</ele>
        <time>2014-02-02T08:47:15Z</time>
      </trkpt>
      <trkpt lat="43.44566" lon="6.6206">
        <ele>20</ele>
        <time>2014-02-02T08:47:18Z</time>
      </trkpt>
      <trkpt lat="43.44555" lon="6.62058">
        <ele>20</ele>
        <time>2014-02-02T08:47:27Z</time>
      </trkpt>
      <trkpt lat="43.44553" lon="6.62058">
        <ele>20</ele>
        <time>2014-02-02T08:47:28Z</time>
      </trkpt>
      <trkpt lat="43.44545" lon="6.62056">
        <ele>20</ele>
        <time>2014-02-02T08:47:33Z</time>
      </trkpt>
      <trkpt lat="43.44531" lon="6.6205">
        <ele>20</ele>
        <time>2014-02-02T08:47:42Z</time>
      </trkpt>
      <trkpt lat="43.44522" lon="6.62046">
        <ele>20</ele>
        <time>2014-02-02T08:47:49Z</time>
      </trkpt>
      <trkpt lat="43.44509" lon="6.6204">
        <ele>20</ele>
        <time>2014-02-02T08:47:59Z</time>
      </trkpt>
      <trkpt lat="43.44499" lon="6.62035">
        <ele>20</ele>
        <time>2014-02-02T08:48:06Z</time>
      </trkpt>
      <trkpt lat="43.44489" lon="6.62029">
        <ele>20</ele>
        <time>2014-02-02T08:48:14Z</time>
      </trkpt>
      <trkpt lat="43.4448" lon="6.62027">
        <ele>20</ele>
        <time>2014-02-02T08:48:22Z</time>
      </trkpt>
      <trkpt lat="43.44472" lon="6.62026">
        <ele>20</ele>
        <time>2014-02-02T08:48:29Z</time>
      </trkpt>
      <trkpt lat="43.44466" lon="6.62025">
        <ele>20</ele>
        <time>2014-02-02T08:48:34Z</time>
      </trkpt>
      <trkpt lat="43.44455" lon="6.62025">
        <ele>20</ele>
        <time>2014-02-02T08:48:41Z</time>
      </trkpt>
      <trkpt lat="43.44448" lon="6.62026">
        <ele>20</ele>
        <time>2014-02-02T08:48:46Z</time>
      </trkpt>
      <trkpt lat="43.44442" lon="6.62028">
        <ele>20</ele>
        <time>2014-02-02T08:48:50Z</time>
      </trkpt>
      <trkpt lat="43.44438" lon="6.62029">
        <ele>20</ele>
        <time>2014-02-02T08:48:53Z</time>
      </trkpt>
      <trkpt lat="43.44432" lon="6.62023">
        <ele>20</ele>
        <time>2014-02-02T08:48:57Z</time>
      </trkpt>
      <trkpt lat="43.44428" lon="6.62023">
        <ele>20</ele>
        <time>2014-02-02T08:48:59Z</time>
      </trkpt>
      <trkpt lat="43.44422" lon="6.62026">
        <ele>20</ele>
        <time>2014-02-02T08:49:03Z</time>
      </trkpt>
      <trkpt lat="43.44416" lon="6.62024">
        <ele>20</ele>
        <time>2014-02-02T08:49:08Z</time>
      </trkpt>
      <trkpt lat="43.44411" lon="6.62023">
        <ele>20</ele>
        <time>2014-02-02T08:49:13Z</time>
      </trkpt>
      <trkpt lat="43.44409" lon="6.62023">
        <ele>20</ele>
        <time>2014-02-02T08:49:16Z</time>
      </trkpt>
      <trkpt lat="43.44412" lon="6.62024">
        <ele>20</ele>
        <time>2014-02-02T08:49:23Z</time>
      </trkpt>
      <trkpt lat="43.44406" lon="6.62023">
        <ele>20</ele>
        <time>2014-02-02T08:49:37Z</time>
      </trkpt>
      <trkpt lat="43.44406" lon="6.62022">
        <ele>20</ele>
        <time>2014-02-02T08:49:38Z</time>
      </trkpt>
      <trkpt lat="43.44399" lon="6.62015">
        <ele>20</ele>
        <time>2014-02-02T08:49:45Z</time>
      </trkpt>
      <trkpt lat="43.44395" lon="6.62012">
        <ele>20</ele>
        <time>2014-02-02T08:49:49Z</time>
      </trkpt>
      <trkpt lat="43.44393" lon="6.62006">
        <ele>20</ele>
        <time>2014-02-02T08:49:55Z</time>
      </trkpt>
      <trkpt lat="43.44392" lon="6.62">
        <ele>20</ele>
        <time>2014-02-02T08:50:00Z</time>
      </trkpt>
      <trkpt lat="43.44392" lon="6.61996">
        <ele>20</ele>
        <time>2014-02-02T08:50:07Z</time>
      </trkpt>
      <trkpt lat="43.44389" lon="6.61988">
        <ele>20</ele>
        <time>2014-02-02T08:50:13Z</time>
      </trkpt>
      <trkpt lat="43.44386" lon="6.6198">
        <ele>20</ele>
        <time>2014-02-02T08:50:19Z</time>
      </trkpt>
      <trkpt lat="43.44383" lon="6.6197">
        <ele>20</ele>
        <time>2014-02-02T08:50:26Z</time>
      </trkpt>
      <trkpt lat="43.44381" lon="6.61961">
        <ele>20</ele>
        <time>2014-02-02T08:50:32Z</time>
      </trkpt>
      <trkpt lat="43.44379" lon="6.61955">
        <ele>20</ele>
        <time>2014-02-02T08:50:37Z</time>
      </trkpt>
      <trkpt lat="43.44374" lon="6.61944">
        <ele>20</ele>
        <time>2014-02-02T08:50:44Z</time>
      </trkpt>
      <trkpt lat="43.44373" lon="6.61942">
        <ele>20</ele>
        <time>2014-02-02T08:50:45Z</time>
      </trkpt>
      <trkpt lat="43.4437" lon="6.61932">
        <ele>20</ele>
        <time>2014-02-02T08:50:52Z</time>
      </trkpt>
      <trkpt lat="43.4437" lon="6.61928">
        <ele>20</ele>
        <time>2014-02-02T08:50:55Z</time>
      </trkpt>
      <trkpt lat="43.44365" lon="6.61917">
        <ele>20</ele>
        <time>2014-02-02T08:51:03Z</time>
      </trkpt>
      <trkpt lat="43.44363" lon="6.61908">
        <ele>20</ele>
        <time>2014-02-02T08:51:09Z</time>
      </trkpt>
      <trkpt lat="43.44363" lon="6.61907">
        <ele>20</ele>
        <time>2014-02-02T08:51:11Z</time>
      </trkpt>
      <trkpt lat="43.44366" lon="6.61901">
        <ele>20</ele>
        <time>2014-02-02T08:51:16Z</time>
      </trkpt>
      <trkpt lat="43.44366" lon="6.61887">
        <ele>20</ele>
        <time>2014-02-02T08:51:23Z</time>
      </trkpt>
      <trkpt lat="43.44365" lon="6.6187">
        <ele>20</ele>
        <time>2014-02-02T08:51:31Z</time>
      </trkpt>
      <trkpt lat="43.44365" lon="6.61859">
        <ele>20</ele>
        <time>2014-02-02T08:51:37Z</time>
      </trkpt>
      <trkpt lat="43.44365" lon="6.61848">
        <ele>20</ele>
        <time>2014-02-02T08:51:44Z</time>
      </trkpt>
      <trkpt lat="43.44366" lon="6.61841">
        <ele>20</ele>
        <time>2014-02-02T08:51:51Z</time>
      </trkpt>
      <trkpt lat="43.44367" lon="6.61835">
        <ele>20</ele>
        <time>2014-02-02T08:51:55Z</time>
      </trkpt>
      <trkpt lat="43.44366" lon="6.61824">
        <ele>20</ele>
        <time>2014-02-02T08:52:02Z</time>
      </trkpt>
      <trkpt lat="43.44365" lon="6.61818">
        <ele>20</ele>
        <time>2014-02-02T08:52:07Z</time>
      </trkpt>
      <trkpt lat="43.44364" lon="6.61813">
        <ele>20</ele>
        <time>2014-02-02T08:52:10Z</time>
      </trkpt>
      <trkpt lat="43.44363" lon="6.61808">
        <ele>20</ele>
        <time>2014-02-02T08:52:14Z</time>
      </trkpt>
      <trkpt lat="43.44364" lon="6.618">
        <ele>20</ele>
        <time>2014-02-02T08:52:20Z</time>
      </trkpt>
      <trkpt lat="43.44363" lon="6.61795">
        <ele>20</ele>
        <time>2014-02-02T08:52:24Z</time>
      </trkpt>
      <trkpt lat="43.44363" lon="6.61787">
        <ele>20</ele>
        <time>2014-02-02T08:52:30Z</time>
      </trkpt>
      <trkpt lat="43.44362" lon="6.61779">
        <ele>20</ele>
        <time>2014-02-02T08:52:36Z</time>
      </trkpt>
      <trkpt lat="43.44363" lon="6.61769">
        <ele>20</ele>
        <time>2014-02-02T08:52:43Z</time>
      </trkpt>
      <trkpt lat="43.44363" lon="6.61767">
        <ele>20</ele>
        <time>2014-02-02T08:52:44Z</time>
      </trkpt>
      <trkpt lat="43.4436" lon="6.61758">
        <ele>20</ele>
        <time>2014-02-02T08:52:51Z</time>
      </trkpt>
      <trkpt lat="43.44358" lon="6.61749">
        <ele>20</ele>
        <time>2014-02-02T08:52:57Z</time>
      </trkpt>
      <trkpt lat="43.44357" lon="6.6174">
        <ele>20</ele>
        <time>2014-02-02T08:53:03Z</time>
      </trkpt>
      <trkpt lat="43.44357" lon="6.61731">
        <ele>20</ele>
        <time>2014-02-02T08:53:11Z</time>
      </trkpt>
      <trkpt lat="43.44355" lon="6.61722">
        <ele>20</ele>
        <time>2014-02-02T08:53:25Z</time>
      </trkpt>
      <trkpt lat="43.44353" lon="6.61717">
        <ele>20</ele>
        <time>2014-02-02T08:53:30Z</time>
      </trkpt>
      <trkpt lat="43.44352" lon="6.61715">
        <ele>20</ele>
        <time>2014-02-02T08:53:47Z</time>
      </trkpt>
      <trkpt lat="43.4435" lon="6.61708">
        <ele>20</ele>
        <time>2014-02-02T08:53:56Z</time>
      </trkpt>
      <trkpt lat="43.44348" lon="6.61696">
        <ele>20</ele>
        <time>2014-02-02T08:54:04Z</time>
      </trkpt>
      <trkpt lat="43.44347" lon="6.6169">
        <ele>20</ele>
        <time>2014-02-02T08:54:10Z</time>
      </trkpt>
      <trkpt lat="43.44346" lon="6.6168">
        <ele>20</ele>
        <time>2014-02-02T08:54:17Z</time>
      </trkpt>
      <trkpt lat="43.44345" lon="6.6167">
        <ele>20</ele>
        <time>2014-02-02T08:54:24Z</time>
      </trkpt>
      <trkpt lat="43.44344" lon="6.61669">
        <ele>20</ele>
        <time>2014-02-02T08:54:25Z</time>
      </trkpt>
      <trkpt lat="43.44346" lon="6.61663">
        <ele>20</ele>
        <time>2014-02-02T08:54:31Z</time>
      </trkpt>
      <trkpt lat="43.44348" lon="6.61658">
        <ele>20</ele>
        <time>2014-02-02T08:54:37Z</time>
      </trkpt>
      <trkpt lat="43.44348" lon="6.61655">
        <ele>20</ele>
        <time>2014-02-02T08:54:40Z</time>
      </trkpt>
      <trkpt lat="43.44346" lon="6.61649">
        <ele>20</ele>
        <time>2014-02-02T08:54:46Z</time>
      </trkpt>
      <trkpt lat="43.44344" lon="6.61643">
        <ele>20</ele>
        <time>2014-02-02T08:54:52Z</time>
      </trkpt>
      <trkpt lat="43.44341" lon="6.61637">
        <ele>20</ele>
        <time>2014-02-02T08:54:59Z</time>
      </trkpt>
      <trkpt lat="43.4434" lon="6.61634">
        <ele>20</ele>
        <time>2014-02-02T08:55:06Z</time>
      </trkpt>
      <trkpt lat="43.44341" lon="6.61627">
        <ele>20</ele>
        <time>2014-02-02T08:55:26Z</time>
      </trkpt>
      <trkpt lat="43.44344" lon="6.61624">
        <ele>20</ele>
        <time>2014-02-02T08:55:30Z</time>
      </trkpt>
      <trkpt lat="43.4435" lon="6.61619">
        <ele>20</ele>
        <time>2014-02-02T08:55:39Z</time>
      </trkpt>
      <trkpt lat="43.44357" lon="6.61616">
        <ele>20</ele>
        <time>2014-02-02T08:55:46Z</time>
      </trkpt>
      <trkpt lat="43.4436" lon="6.61613">
        <ele>20</ele>
        <time>2014-02-02T08:55:50Z</time>
      </trkpt>
      <trkpt lat="43.44365" lon="6.6161">
        <ele>20</ele>
        <time>2014-02-02T08:55:55Z</time>
      </trkpt>
      <trkpt lat="43.4437" lon="6.61603">
        <ele>20</ele>
        <time>2014-02-02T08:56:03Z</time>
      </trkpt>
      <trkpt lat="43.44373" lon="6.61597">
        <ele>20</ele>
        <time>2014-02-02T08:56:10Z</time>
      </trkpt>
      <trkpt lat="43.44374" lon="6.61591">
        <ele>20</ele>
        <time>2014-02-02T08:56:17Z</time>
      </trkpt>
      <trkpt lat="43.44374" lon="6.61591">
        <ele>20</ele>
        <time>2014-02-02T08:56:19Z</time>
      </trkpt>
      <trkpt lat="43.44376" lon="6.61589">
        <ele>20</ele>
        <time>2014-02-02T08:56:22Z</time>
      </trkpt>
      <trkpt lat="43.44376" lon="6.61583">
        <ele>20.048346</ele>
        <time>2014-02-02T08:56:26Z</time>
      </trkpt>
      <trkpt lat="43.44377" lon="6.61576">
        <ele>20.686865</ele>
        <time>2014-02-02T08:56:31Z</time>
      </trkpt>
      <trkpt lat="43.44378" lon="6.6157">
        <ele>21.29014</ele>
        <time>2014-02-02T08:56:35Z</time>
      </trkpt>
      <trkpt lat="43.44379" lon="6.61555">
        <ele>22.742971</ele>
        <time>2014-02-02T08:56:43Z</time>
      </trkpt>
      <trkpt lat="43.44381" lon="6.61544">
        <ele>24.26676</ele>
        <time>2014-02-02T08:56:50Z</time>
      </trkpt>
      <trkpt lat="43.44383" lon="6.61531">
        <ele>26.156832</ele>
        <time>2014-02-02T08:56:58Z</time>
      </trkpt>
      <trkpt lat="43.44383" lon="6.61529">
        <ele>26.371817</ele>
        <time>2014-02-02T08:56:59Z</time>
      </trkpt>
      <trkpt lat="43.44385" lon="6.61526">
        <ele>26.91095</ele>
        <time>2014-02-02T08:57:02Z</time>
      </trkpt>
      <trkpt lat="43.44386" lon="6.61522">
        <ele>27.446533</ele>
        <time>2014-02-02T08:57:05Z</time>
      </trkpt>
      <trkpt lat="43.44392" lon="6.61514">
        <ele>28.566574</ele>
        <time>2014-02-02T08:57:12Z</time>
      </trkpt>
      <trkpt lat="43.44397" lon="6.61505">
        <ele>29.702972</ele>
        <time>2014-02-02T08:57:20Z</time>
      </trkpt>
      <trkpt lat="43.44404" lon="6.61499">
        <ele>30.6651</ele>
        <time>2014-02-02T08:57:29Z</time>
      </trkpt>
      <trkpt lat="43.4441" lon="6.61493">
        <ele>31.763733</ele>
        <time>2014-02-02T08:57:36Z</time>
      </trkpt>
      <trkpt lat="43.44416" lon="6.61486">
        <ele>32.965363</ele>
        <time>2014-02-02T08:57:43Z</time>
      </trkpt>
      <trkpt lat="43.44421" lon="6.61475">
        <ele>34.615517</ele>
        <time>2014-02-02T08:57:51Z</time>
      </trkpt>
      <trkpt lat="43.44423" lon="6.6147">
        <ele>35.336029</ele>
        <time>2014-02-02T08:57:55Z</time>
      </trkpt>
      <trkpt lat="43.44426" lon="6.61466">
        <ele>35.878479</ele>
        <time>2014-02-02T08:57:59Z</time>
      </trkpt>
      <trkpt lat="43.44427" lon="6.61464">
        <ele>36.242401</ele>
        <time>2014-02-02T08:58:01Z</time>
      </trkpt>
      <trkpt lat="43.44432" lon="6.61456">
        <ele>37.265503</ele>
        <time>2014-02-02T08:58:09Z</time>
      </trkpt>
      <trkpt lat="43.44435" lon="6.61449">
        <ele>38.288605</ele>
        <time>2014-02-02T08:58:16Z</time>
      </trkpt>
      <trkpt lat="43.44435" lon="6.61448">
        <ele>38.487732</ele>
        <time>2014-02-02T08:58:17Z</time>
      </trkpt>
      <trkpt lat="43.44432" lon="6.61435">
        <ele>39.985657</ele>
        <time>2014-02-02T08:58:25Z</time>
      </trkpt>
      <trkpt lat="43.44429" lon="6.6143">
        <ele>40.593338</ele>
        <time>2014-02-02T08:58:30Z</time>
      </trkpt>
      <trkpt lat="43.44426" lon="6.61425">
        <ele>41.077423</ele>
        <time>2014-02-02T08:58:37Z</time>
      </trkpt>
      <trkpt lat="43.44421" lon="6.61416">
        <ele>42.027401</ele>
        <time>2014-02-02T08:58:44Z</time>
      </trkpt>
      <trkpt lat="43.44418" lon="6.61413">
        <ele>42.535633</ele>
        <time>2014-02-02T08:58:47Z</time>
      </trkpt>
      <trkpt lat="43.44409" lon="6.61408">
        <ele>42.654694</ele>
        <time>2014-02-02T08:58:56Z</time>
      </trkpt>
      <trkpt lat="43.44408" lon="6.61408">
        <ele>42.668427</ele>
        <time>2014-02-02T08:58:57Z</time>
      </trkpt>
      <trkpt lat="43.44403" lon="6.61407">
        <ele>42.441833</ele>
        <time>2014-02-02T08:59:01Z</time>
      </trkpt>
      <trkpt lat="43.44395" lon="6.61402">
        <ele>42.517365</ele>
        <time>2014-02-02T08:59:09Z</time>
      </trkpt>
      <trkpt lat="43.44392" lon="6.61402">
        <ele>42.35257</ele>
        <time>2014-02-02T08:59:11Z</time>
      </trkpt>
      <trkpt lat="43.44384" lon="6.61402">
        <ele>41.803253</ele>
        <time>2014-02-02T08:59:17Z</time>
      </trkpt>
      <trkpt lat="43.44378" lon="6.61397">
        <ele>42.029846</ele>
        <time>2014-02-02T08:59:24Z</time>
      </trkpt>
      <trkpt lat="43.44368" lon="6.61393">
        <ele>41.871918</ele>
        <time>2014-02-02T08:59:31Z</time>
      </trkpt>
      <trkpt lat="43.44362" lon="6.61386">
        <ele>42.376629</ele>
        <time>2014-02-02T08:59:37Z</time>
      </trkpt>
      <trkpt lat="43.44358" lon="6.61379">
        <ele>42.577278</ele>
        <time>2014-02-02T08:59:42Z</time>
      </trkpt>
      <trkpt lat="43.44351" lon="6.61372">
        <ele>42.012512</ele>
        <time>2014-02-02T08:59:49Z</time>
      </trkpt>
      <trkpt lat="43.44349" lon="6.61365">
        <ele>42.347252</ele>
        <time>2014-02-02T08:59:54Z</time>
      </trkpt>
      <trkpt lat="43.44349" lon="6.61358">
        <ele>43.127609</ele>
        <time>2014-02-02T09:00:02Z</time>
      </trkpt>
      <trkpt lat="43.4434" lon="6.61361">
        <ele>41.273266</ele>
        <time>2014-02-02T09:02:01Z</time>
      </trkpt>
      <trkpt lat="43.44347" lon="6.6135">
        <ele>43.364594</ele>
        <time>2014-02-02T09:02:37Z</time>
      </trkpt>
      <trkpt lat="43.4435" lon="6.61346">
        <ele>44.406288</ele>
        <time>2014-02-02T09:02:43Z</time>
      </trkpt>
      <trkpt lat="43.44354" lon="6.61339">
        <ele>45.975193</ele>
        <time>2014-02-02T09:02:51Z</time>
      </trkpt>
      <trkpt lat="43.44358" lon="6.61333">
        <ele>47.416527</ele>
        <time>2014-02-02T09:02:57Z</time>
      </trkpt>
      <trkpt lat="43.44362" lon="6.61332">
        <ele>48.303925</ele>
        <time>2014-02-02T09:03:03Z</time>
      </trkpt>
      <trkpt lat="43.44363" lon="6.61332">
        <ele>48.310791</ele>
        <time>2014-02-02T09:03:04Z</time>
      </trkpt>
      <trkpt lat="43.4437" lon="6.61338">
        <ele>48.153831</ele>
        <time>2014-02-02T09:03:12Z</time>
      </trkpt>
      <trkpt lat="43.44372" lon="6.61342">
        <ele>47.935246</ele>
        <time>2014-02-02T09:03:16Z</time>
      </trkpt>
      <trkpt lat="43.44375" lon="6.61348">
        <ele>47.725677</ele>
        <time>2014-02-02T09:03:22Z</time>
      </trkpt>
      <trkpt lat="43.44384" lon="6.61355">
        <ele>48.006275</ele>
        <time>2014-02-02T09:03:32Z</time>
      </trkpt>
      <trkpt lat="43.44386" lon="6.61355">
        <ele>48.094997</ele>
        <time>2014-02-02T09:03:33Z</time>
      </trkpt>
      <trkpt lat="43.44395" lon="6.6135">
        <ele>49.314907</ele>
        <time>2014-02-02T09:03:41Z</time>
      </trkpt>
      <trkpt lat="43.444" lon="6.6134">
        <ele>50.580479</ele>
        <time>2014-02-02T09:03:49Z</time>
      </trkpt>
      <trkpt lat="43.444" lon="6.61335">
        <ele>51.059322</ele>
        <time>2014-02-02T09:03:54Z</time>
      </trkpt>
      <trkpt lat="43.444" lon="6.6133">
        <ele>51.738136</ele>
        <time>2014-02-02T09:03:57Z</time>
      </trkpt>
      <trkpt lat="43.444" lon="6.61326">
        <ele>52.428196</ele>
        <time>2014-02-02T09:04:00Z</time>
      </trkpt>
      <trkpt lat="43.444" lon="6.61323">
        <ele>52.852127</ele>
        <time>2014-02-02T09:04:02Z</time>
      </trkpt>
      <trkpt lat="43.44399" lon="6.61313">
        <ele>54.28384</ele>
        <time>2014-02-02T09:04:10Z</time>
      </trkpt>
      <trkpt lat="43.444" lon="6.61308">
        <ele>55.276283</ele>
        <time>2014-02-02T09:04:15Z</time>
      </trkpt>
      <trkpt lat="43.444" lon="6.61304">
        <ele>55.793095</ele>
        <time>2014-02-02T09:04:18Z</time>
      </trkpt>
      <trkpt lat="43.44404" lon="6.61299">
        <ele>56.971031</ele>
        <time>2014-02-02T09:04:25Z</time>
      </trkpt>
      <trkpt lat="43.44405" lon="6.61298">
        <ele>57.174625</ele>
        <time>2014-02-02T09:04:26Z</time>
      </trkpt>
      <trkpt lat="43.44409" lon="6.61289">
        <ele>58.8452</ele>
        <time>2014-02-02T09:04:34Z</time>
      </trkpt>
      <trkpt lat="43.44413" lon="6.61284">
        <ele>59.823112</ele>
        <time>2014-02-02T09:04:39Z</time>
      </trkpt>
      <trkpt lat="43.44414" lon="6.61283">
        <ele>60.15469</ele>
        <time>2014-02-02T09:04:41Z</time>
      </trkpt>
      <trkpt lat="43.44416" lon="6.61277">
        <ele>60.99527</ele>
        <time>2014-02-02T09:04:46Z</time>
      </trkpt>
      <trkpt lat="43.44415" lon="6.6127">
        <ele>61.355759</ele>
        <time>2014-02-02T09:04:51Z</time>
      </trkpt>
      <trkpt lat="43.44411" lon="6.61265">
        <ele>61.366058</ele>
        <time>2014-02-02T09:04:56Z</time>
      </trkpt>
      <trkpt lat="43.44406" lon="6.61262">
        <ele>60.991837</ele>
        <time>2014-02-02T09:05:03Z</time>
      </trkpt>
      <trkpt lat="43.44402" lon="6.61262">
        <ele>60.600449</ele>
        <time>2014-02-02T09:05:08Z</time>
      </trkpt>
      <trkpt lat="43.44396" lon="6.61256">
        <ele>60.380722</ele>
        <time>2014-02-02T09:05:15Z</time>
      </trkpt>
      <trkpt lat="43.44394" lon="6.61251">
        <ele>60.449387</ele>
        <time>2014-02-02T09:05:19Z</time>
      </trkpt>
      <trkpt lat="43.44387" lon="6.61244">
        <ele>60.819611</ele>
        <time>2014-02-02T09:05:26Z</time>
      </trkpt>
      <trkpt lat="43.44379" lon="6.61235">
        <ele>61.423859</ele>
        <time>2014-02-02T09:05:35Z</time>
      </trkpt>
      <trkpt lat="43.44371" lon="6.61231">
        <ele>61.38266</ele>
        <time>2014-02-02T09:05:44Z</time>
      </trkpt>
      <trkpt lat="43.4436" lon="6.6123">
        <ele>60.765602</ele>
        <time>2014-02-02T09:05:53Z</time>
      </trkpt>
      <trkpt lat="43.44354" lon="6.61229">
        <ele>59.276123</ele>
        <time>2014-02-02T09:06:00Z</time>
      </trkpt>
      <trkpt lat="43.44351" lon="6.61229">
        <ele>58.583313</ele>
        <time>2014-02-02T09:06:04Z</time>
      </trkpt>
      <trkpt lat="43.44348" lon="6.61229">
        <ele>57.814987</ele>
        <time>2014-02-02T09:06:07Z</time>
      </trkpt>
      <trkpt lat="43.44342" lon="6.61228">
        <ele>56.551926</ele>
        <time>2014-02-02T09:06:14Z</time>
      </trkpt>
      <trkpt lat="43.44338" lon="6.61226">
        <ele>55.670353</ele>
        <time>2014-02-02T09:06:21Z</time>
      </trkpt>
      <trkpt lat="43.44329" lon="6.61223">
        <ele>54.422672</ele>
        <time>2014-02-02T09:06:30Z</time>
      </trkpt>
      <trkpt lat="43.44325" lon="6.61221">
        <ele>54.258545</ele>
        <time>2014-02-02T09:06:35Z</time>
      </trkpt>
      <trkpt lat="43.44321" lon="6.61218">
        <ele>54.279144</ele>
        <time>2014-02-02T09:06:41Z</time>
      </trkpt>
      <trkpt lat="43.44319" lon="6.61216">
        <ele>54.395874</ele>
        <time>2014-02-02T09:06:44Z</time>
      </trkpt>
      <trkpt lat="43.44317" lon="6.61216">
        <ele>54.176147</ele>
        <time>2014-02-02T09:06:47Z</time>
      </trkpt>
      <trkpt lat="43.44312" lon="6.61204">
        <ele>55.364044</ele>
        <time>2014-02-02T09:06:57Z</time>
      </trkpt>
      <trkpt lat="43.44312" lon="6.61198">
        <ele>56.256683</ele>
        <time>2014-02-02T09:07:04Z</time>
      </trkpt>
      <trkpt lat="43.44311" lon="6.61193">
        <ele>56.811981</ele>
        <time>2014-02-02T09:07:09Z</time>
      </trkpt>
      <trkpt lat="43.44313" lon="6.61184">
        <ele>57.919197</ele>
        <time>2014-02-02T09:07:15Z</time>
      </trkpt>
      <trkpt lat="43.44318" lon="6.61172">
        <ele>59.788589</ele>
        <time>2014-02-02T09:07:25Z</time>
      </trkpt>
      <trkpt lat="43.44321" lon="6.61162">
        <ele>61.584076</ele>
        <time>2014-02-02T09:07:32Z</time>
      </trkpt>
      <trkpt lat="43.44324" lon="6.61154">
        <ele>63.297256</ele>
        <time>2014-02-02T09:07:37Z</time>
      </trkpt>
      <trkpt lat="43.44326" lon="6.61144">
        <ele>65.176949</ele>
        <time>2014-02-02T09:07:43Z</time>
      </trkpt>
      <trkpt lat="43.44328" lon="6.61137">
        <ele>66.598541</ele>
        <time>2014-02-02T09:07:48Z</time>
      </trkpt>
      <trkpt lat="43.44328" lon="6.61128">
        <ele>67.582161</ele>
        <time>2014-02-02T09:07:53Z</time>
      </trkpt>
      <trkpt lat="43.44326" lon="6.61112">
        <ele>69.018967</ele>
        <time>2014-02-02T09:08:02Z</time>
      </trkpt>
      <trkpt lat="43.44321" lon="6.61104">
        <ele>69.738037</ele>
        <time>2014-02-02T09:08:08Z</time>
      </trkpt>
      <trkpt lat="43.44313" lon="6.6109">
        <ele>70.864136</ele>
        <time>2014-02-02T09:08:18Z</time>
      </trkpt>
      <trkpt lat="43.44311" lon="6.61088">
        <ele>70.946533</ele>
        <time>2014-02-02T09:08:20Z</time>
      </trkpt>
      <trkpt lat="43.44305" lon="6.61078">
        <ele>71.879189</ele>
        <time>2014-02-02T09:08:28Z</time>
      </trkpt>
      <trkpt lat="43.44299" lon="6.61071">
        <ele>72.422745</ele>
        <time>2014-02-02T09:08:35Z</time>
      </trkpt>
      <trkpt lat="43.44295" lon="6.61062">
        <ele>73.404022</ele>
        <time>2014-02-02T09:08:42Z</time>
      </trkpt>
      <trkpt lat="43.44291" lon="6.61053">
        <ele>74.104919</ele>
        <time>2014-02-02T09:08:48Z</time>
      </trkpt>
      <trkpt lat="43.44286" lon="6.61041">
        <ele>74.803581</ele>
        <time>2014-02-02T09:08:55Z</time>
      </trkpt>
      <trkpt lat="43.44284" lon="6.61035">
        <ele>75.224152</ele>
        <time>2014-02-02T09:09:00Z</time>
      </trkpt>
      <trkpt lat="43.4428" lon="6.61023">
        <ele>75.973511</ele>
        <time>2014-02-02T09:09:07Z</time>
      </trkpt>
      <trkpt lat="43.44275" lon="6.61012">
        <ele>76.7771</ele>
        <time>2014-02-02T09:09:14Z</time>
      </trkpt>
      <trkpt lat="43.44268" lon="6.61">
        <ele>76.838898</ele>
        <time>2014-02-02T09:09:22Z</time>
      </trkpt>
      <trkpt lat="43.44265" lon="6.60994">
        <ele>76.722137</ele>
        <time>2014-02-02T09:09:27Z</time>
      </trkpt>
      <trkpt lat="43.44262" lon="6.60986">
        <ele>76.815689</ele>
        <time>2014-02-02T09:09:33Z</time>
      </trkpt>
      <trkpt lat="43.4426" lon="6.60979">
        <ele>77.211479</ele>
        <time>2014-02-02T09:09:38Z</time>
      </trkpt>
      <trkpt lat="43.44259" lon="6.60973">
        <ele>77.553551</ele>
        <time>2014-02-02T09:09:48Z</time>
      </trkpt>
      <trkpt lat="43.44259" lon="6.60973">
        <ele>77.534912</ele>
        <time>2014-02-02T09:09:49Z</time>
      </trkpt>
      <trkpt lat="43.44257" lon="6.60969">
        <ele>77.50013</ele>
        <time>2014-02-02T09:09:54Z</time>
      </trkpt>
      <trkpt lat="43.44257" lon="6.60964">
        <ele>77.754105</ele>
        <time>2014-02-02T09:09:58Z</time>
      </trkpt>
      <trkpt lat="43.44257" lon="6.60956">
        <ele>78.337143</ele>
        <time>2014-02-02T09:10:05Z</time>
      </trkpt>
      <trkpt lat="43.44257" lon="6.60949">
        <ele>78.798851</ele>
        <time>2014-02-02T09:10:11Z</time>
      </trkpt>
      <trkpt lat="43.44256" lon="6.60937">
        <ele>79.305336</ele>
        <time>2014-02-02T09:10:19Z</time>
      </trkpt>
      <trkpt lat="43.44255" lon="6.60932">
        <ele>79.48764</ele>
        <time>2014-02-02T09:10:24Z</time>
      </trkpt>
      <trkpt lat="43.44253" lon="6.60923">
        <ele>79.86644</ele>
        <time>2014-02-02T09:10:32Z</time>
      </trkpt>
      <trkpt lat="43.4425" lon="6.60914">
        <ele>80.111259</ele>
        <time>2014-02-02T09:10:38Z</time>
      </trkpt>
      <trkpt lat="43.44249" lon="6.6091">
        <ele>79.826164</ele>
        <time>2014-02-02T09:10:41Z</time>
      </trkpt>
      <trkpt lat="43.44241" lon="6.60898">
        <ele>77.235794</ele>
        <time>2014-02-02T09:10:49Z</time>
      </trkpt>
      <trkpt lat="43.44237" lon="6.60889">
        <ele>75.744057</ele>
        <time>2014-02-02T09:10:55Z</time>
      </trkpt>
      <trkpt lat="43.44232" lon="6.60878">
        <ele>74.041679</ele>
        <time>2014-02-02T09:11:04Z</time>
      </trkpt>
      <trkpt lat="43.44226" lon="6.60872">
        <ele>72.17923</ele>
        <time>2014-02-02T09:11:10Z</time>
      </trkpt>
      <trkpt lat="43.44218" lon="6.60863">
        <ele>70.776482</ele>
        <time>2014-02-02T09:11:18Z</time>
      </trkpt>
      <trkpt lat="43.44215" lon="6.60861">
        <ele>70.752449</ele>
        <time>2014-02-02T09:11:20Z</time>
      </trkpt>
      <trkpt lat="43.44205" lon="6.60856">
        <ele>70.563622</ele>
        <time>2014-02-02T09:11:29Z</time>
      </trkpt>
      <trkpt lat="43.44197" lon="6.60849">
        <ele>70.534439</ele>
        <time>2014-02-02T09:11:37Z</time>
      </trkpt>
      <trkpt lat="43.44191" lon="6.60843">
        <ele>70.939606</ele>
        <time>2014-02-02T09:11:44Z</time>
      </trkpt>
      <trkpt lat="43.44185" lon="6.60837">
        <ele>71.557587</ele>
        <time>2014-02-02T09:11:50Z</time>
      </trkpt>
      <trkpt lat="43.44178" lon="6.6083">
        <ele>72.35318</ele>
        <time>2014-02-02T09:11:58Z</time>
      </trkpt>
      <trkpt lat="43.44173" lon="6.60825">
        <ele>72.893906</ele>
        <time>2014-02-02T09:12:03Z</time>
      </trkpt>
      <trkpt lat="43.44171" lon="6.60817">
        <ele>73.340416</ele>
        <time>2014-02-02T09:12:07Z</time>
      </trkpt>
      <trkpt lat="43.44168" lon="6.60806">
        <ele>73.942734</ele>
        <time>2014-02-02T09:12:15Z</time>
      </trkpt>
      <trkpt lat="43.44168" lon="6.60805">
        <ele>73.989799</ele>
        <time>2014-02-02T09:12:16Z</time>
      </trkpt>
      <trkpt lat="43.44166" lon="6.60793">
        <ele>74.538895</ele>
        <time>2014-02-02T09:12:23Z</time>
      </trkpt>
      <trkpt lat="43.44165" lon="6.60788">
        <ele>74.958687</ele>
        <time>2014-02-02T09:12:28Z</time>
      </trkpt>
      <trkpt lat="43.44164" lon="6.60783">
        <ele>75.159706</ele>
        <time>2014-02-02T09:12:33Z</time>
      </trkpt>
      <trkpt lat="43.44165" lon="6.60781">
        <ele>75.11541</ele>
        <time>2014-02-02T09:12:35Z</time>
      </trkpt>
      <trkpt lat="43.44165" lon="6.60777">
        <ele>75.219421</ele>
        <time>2014-02-02T09:12:38Z</time>
      </trkpt>
      <trkpt lat="43.44168" lon="6.60767">
        <ele>75.351074</ele>
        <time>2014-02-02T09:12:45Z</time>
      </trkpt>
      <trkpt lat="43.44168" lon="6.6076">
        <ele>75.59655</ele>
        <time>2014-02-02T09:12:49Z</time>
      </trkpt>
      <trkpt lat="43.44169" lon="6.60751">
        <ele>75.895241</ele>
        <time>2014-02-02T09:12:55Z</time>
      </trkpt>
      <trkpt lat="43.44169" lon="6.60744">
        <ele>76.137283</ele>
        <time>2014-02-02T09:13:01Z</time>
      </trkpt>
      <trkpt lat="43.44169" lon="6.60736">
        <ele>76.418808</ele>
        <time>2014-02-02T09:13:06Z</time>
      </trkpt>
      <trkpt lat="43.44169" lon="6.6073">
        <ele>76.648834</ele>
        <time>2014-02-02T09:13:10Z</time>
      </trkpt>
      <trkpt lat="43.44169" lon="6.60722">
        <ele>76.944092</ele>
        <time>2014-02-02T09:13:17Z</time>
      </trkpt>
      <trkpt lat="43.44169" lon="6.6072">
        <ele>76.973274</ele>
        <time>2014-02-02T09:13:18Z</time>
      </trkpt>
      <trkpt lat="43.4417" lon="6.60712">
        <ele>77.251366</ele>
        <time>2014-02-02T09:13:22Z</time>
      </trkpt>
      <trkpt lat="43.4417" lon="6.60697">
        <ele>77.762917</ele>
        <time>2014-02-02T09:13:29Z</time>
      </trkpt>
      <trkpt lat="43.4417" lon="6.60688">
        <ele>78.08049</ele>
        <time>2014-02-02T09:13:35Z</time>
      </trkpt>
      <trkpt lat="43.44172" lon="6.60682">
        <ele>78.269318</ele>
        <time>2014-02-02T09:13:39Z</time>
      </trkpt>
      <trkpt lat="43.44174" lon="6.60674">
        <ele>78.495911</ele>
        <time>2014-02-02T09:13:45Z</time>
      </trkpt>
      <trkpt lat="43.44175" lon="6.60668">
        <ele>78.671005</ele>
        <time>2014-02-02T09:13:48Z</time>
      </trkpt>
      <trkpt lat="43.44175" lon="6.60663">
        <ele>78.839233</ele>
        <time>2014-02-02T09:13:50Z</time>
      </trkpt>
      <trkpt lat="43.44176" lon="6.60652">
        <ele>79.18084</ele>
        <time>2014-02-02T09:13:58Z</time>
      </trkpt>
      <trkpt lat="43.44179" lon="6.60642">
        <ele>79.441765</ele>
        <time>2014-02-02T09:14:05Z</time>
      </trkpt>
      <trkpt lat="43.44181" lon="6.60634">
        <ele>79.797554</ele>
        <time>2014-02-02T09:14:13Z</time>
      </trkpt>
      <trkpt lat="43.44185" lon="6.60625">
        <ele>80.16983</ele>
        <time>2014-02-02T09:14:29Z</time>
      </trkpt>
      <trkpt lat="43.44185" lon="6.60621">
        <ele>80.376549</ele>
        <time>2014-02-02T09:14:32Z</time>
      </trkpt>
      <trkpt lat="43.44187" lon="6.60613">
        <ele>80.676704</ele>
        <time>2014-02-02T09:14:37Z</time>
      </trkpt>
      <trkpt lat="43.44191" lon="6.60602">
        <ele>81.479378</ele>
        <time>2014-02-02T09:14:43Z</time>
      </trkpt>
      <trkpt lat="43.44194" lon="6.60589">
        <ele>82.495438</ele>
        <time>2014-02-02T09:14:50Z</time>
      </trkpt>
      <trkpt lat="43.44196" lon="6.60582">
        <ele>83.087845</ele>
        <time>2014-02-02T09:14:53Z</time>
      </trkpt>
      <trkpt lat="43.44198" lon="6.60567">
        <ele>84.196777</ele>
        <time>2014-02-02T09:15:01Z</time>
      </trkpt>
      <trkpt lat="43.442" lon="6.60556">
        <ele>84.989853</ele>
        <time>2014-02-02T09:15:07Z</time>
      </trkpt>
      <trkpt lat="43.44201" lon="6.60547">
        <ele>85.888977</ele>
        <time>2014-02-02T09:15:12Z</time>
      </trkpt>
      <trkpt lat="43.44201" lon="6.6054">
        <ele>86.550827</ele>
        <time>2014-02-02T09:15:16Z</time>
      </trkpt>
      <trkpt lat="43.44201" lon="6.60533">
        <ele>87.274139</ele>
        <time>2014-02-02T09:15:20Z</time>
      </trkpt>
      <trkpt lat="43.44205" lon="6.60521">
        <ele>88.112747</ele>
        <time>2014-02-02T09:15:27Z</time>
      </trkpt>
      <trkpt lat="43.44205" lon="6.60512">
        <ele>88.758194</ele>
        <time>2014-02-02T09:15:33Z</time>
      </trkpt>
      <trkpt lat="43.44206" lon="6.60503">
        <ele>89.331543</ele>
        <time>2014-02-02T09:15:40Z</time>
      </trkpt>
      <trkpt lat="43.44207" lon="6.60496">
        <ele>89.792152</ele>
        <time>2014-02-02T09:15:46Z</time>
      </trkpt>
      <trkpt lat="43.44206" lon="6.60485">
        <ele>90.454269</ele>
        <time>2014-02-02T09:15:53Z</time>
      </trkpt>
      <trkpt lat="43.44207" lon="6.60477">
        <ele>90.848404</ele>
        <time>2014-02-02T09:15:58Z</time>
      </trkpt>
      <trkpt lat="43.44207" lon="6.60467">
        <ele>91.631966</ele>
        <time>2014-02-02T09:16:04Z</time>
      </trkpt>
      <trkpt lat="43.44206" lon="6.60458">
        <ele>92.725449</ele>
        <time>2014-02-02T09:16:08Z</time>
      </trkpt>
      <trkpt lat="43.44205" lon="6.60448">
        <ele>93.85498</ele>
        <time>2014-02-02T09:16:15Z</time>
      </trkpt>
      <trkpt lat="43.44205" lon="6.60439">
        <ele>94.756866</ele>
        <time>2014-02-02T09:16:21Z</time>
      </trkpt>
      <trkpt lat="43.44204" lon="6.60429">
        <ele>95.8116</ele>
        <time>2014-02-02T09:16:28Z</time>
      </trkpt>
      <trkpt lat="43.44202" lon="6.60416">
        <ele>97.216057</ele>
        <time>2014-02-02T09:16:35Z</time>
      </trkpt>
      <trkpt lat="43.44204" lon="6.60407">
        <ele>97.475136</ele>
        <time>2014-02-02T09:16:41Z</time>
      </trkpt>
      <trkpt lat="43.44205" lon="6.60404">
        <ele>97.622513</ele>
        <time>2014-02-02T09:16:43Z</time>
      </trkpt>
      <trkpt lat="43.44209" lon="6.60393">
        <ele>97.693237</ele>
        <time>2014-02-02T09:16:50Z</time>
      </trkpt>
      <trkpt lat="43.44215" lon="6.60386">
        <ele>97.322685</ele>
        <time>2014-02-02T09:16:56Z</time>
      </trkpt>
      <trkpt lat="43.44219" lon="6.60378">
        <ele>97.329803</ele>
        <time>2014-02-02T09:17:01Z</time>
      </trkpt>
      <trkpt lat="43.44221" lon="6.60373">
        <ele>97.349251</ele>
        <time>2014-02-02T09:17:04Z</time>
      </trkpt>
      <trkpt lat="43.44223" lon="6.60367">
        <ele>97.554535</ele>
        <time>2014-02-02T09:17:07Z</time>
      </trkpt>
      <trkpt lat="43.44228" lon="6.60357">
        <ele>98.289246</ele>
        <time>2014-02-02T09:17:14Z</time>
      </trkpt>
      <trkpt lat="43.44229" lon="6.6035">
        <ele>98.814529</ele>
        <time>2014-02-02T09:17:19Z</time>
      </trkpt>
      <trkpt lat="43.44229" lon="6.60349">
        <ele>98.907227</ele>
        <time>2014-02-02T09:17:20Z</time>
      </trkpt>
      <trkpt lat="43.4423" lon="6.6034">
        <ele>99.528641</ele>
        <time>2014-02-02T09:17:25Z</time>
      </trkpt>
      <trkpt lat="43.44228" lon="6.60333">
        <ele>100.047012</ele>
        <time>2014-02-02T09:17:32Z</time>
      </trkpt>
      <trkpt lat="43.44232" lon="6.60325">
        <ele>100.700417</ele>
        <time>2014-02-02T09:17:50Z</time>
      </trkpt>
      <trkpt lat="43.44233" lon="6.6032">
        <ele>101.039299</ele>
        <time>2014-02-02T09:17:53Z</time>
      </trkpt>
      <trkpt lat="43.44233" lon="6.60314">
        <ele>101.570992</ele>
        <time>2014-02-02T09:17:59Z</time>
      </trkpt>
      <trkpt lat="43.44231" lon="6.60309">
        <ele>102.098251</ele>
        <time>2014-02-02T09:18:03Z</time>
      </trkpt>
      <trkpt lat="43.44231" lon="6.60297">
        <ele>103.351784</ele>
        <time>2014-02-02T09:18:12Z</time>
      </trkpt>
      <trkpt lat="43.44231" lon="6.60296">
        <ele>103.417015</ele>
        <time>2014-02-02T09:18:13Z</time>
      </trkpt>
      <trkpt lat="43.44233" lon="6.60293">
        <ele>103.58696</ele>
        <time>2014-02-02T09:18:16Z</time>
      </trkpt>
      <trkpt lat="43.44233" lon="6.60285">
        <ele>104.489899</ele>
        <time>2014-02-02T09:18:22Z</time>
      </trkpt>
      <trkpt lat="43.44232" lon="6.60277">
        <ele>105.367737</ele>
        <time>2014-02-02T09:18:31Z</time>
      </trkpt>
      <trkpt lat="43.44233" lon="6.6027">
        <ele>105.786591</ele>
        <time>2014-02-02T09:18:56Z</time>
      </trkpt>
      <trkpt lat="43.44236" lon="6.60265">
        <ele>105.920486</ele>
        <time>2014-02-02T09:19:00Z</time>
      </trkpt>
      <trkpt lat="43.44238" lon="6.6026">
        <ele>106.191711</ele>
        <time>2014-02-02T09:19:04Z</time>
      </trkpt>
      <trkpt lat="43.44242" lon="6.6025">
        <ele>106.589966</ele>
        <time>2014-02-02T09:19:11Z</time>
      </trkpt>
      <trkpt lat="43.44242" lon="6.60248">
        <ele>106.768631</ele>
        <time>2014-02-02T09:19:13Z</time>
      </trkpt>
      <trkpt lat="43.44246" lon="6.60243">
        <ele>107.043289</ele>
        <time>2014-02-02T09:19:19Z</time>
      </trkpt>
      <trkpt lat="43.44246" lon="6.60243">
        <ele>107.043289</ele>
        <time>2014-02-02T09:19:20Z</time>
      </trkpt>
      <trkpt lat="43.44249" lon="6.60253">
        <ele>105.851822</ele>
        <time>2014-02-02T09:19:27Z</time>
      </trkpt>
      <trkpt lat="43.44254" lon="6.60263">
        <ele>104.921829</ele>
        <time>2014-02-02T09:19:35Z</time>
      </trkpt>
      <trkpt lat="43.44253" lon="6.60268">
        <ele>104.619705</ele>
        <time>2014-02-02T09:19:38Z</time>
      </trkpt>
      <trkpt lat="43.44255" lon="6.60277">
        <ele>103.843796</ele>
        <time>2014-02-02T09:19:44Z</time>
      </trkpt>
      <trkpt lat="43.44261" lon="6.60283">
        <ele>103.112305</ele>
        <time>2014-02-02T09:19:51Z</time>
      </trkpt>
      <trkpt lat="43.44262" lon="6.60284">
        <ele>103.023552</ele>
        <time>2014-02-02T09:19:52Z</time>
      </trkpt>
      <trkpt lat="43.44264" lon="6.6029">
        <ele>102.427216</ele>
        <time>2014-02-02T09:19:56Z</time>
      </trkpt>
      <trkpt lat="43.44271" lon="6.60294">
        <ele>101.929497</ele>
        <time>2014-02-02T09:20:02Z</time>
      </trkpt>
      <trkpt lat="43.44274" lon="6.60301">
        <ele>101.376137</ele>
        <time>2014-02-02T09:20:08Z</time>
      </trkpt>
      <trkpt lat="43.44275" lon="6.60301">
        <ele>101.319862</ele>
        <time>2014-02-02T09:20:14Z</time>
      </trkpt>
      <trkpt lat="43.44278" lon="6.603">
        <ele>101.452194</ele>
        <time>2014-02-02T09:20:18Z</time>
      </trkpt>
      <trkpt lat="43.44281" lon="6.603">
        <ele>101.733719</ele>
        <time>2014-02-02T09:20:21Z</time>
      </trkpt>
      <trkpt lat="43.44284" lon="6.60297">
        <ele>102.307068</ele>
        <time>2014-02-02T09:20:25Z</time>
      </trkpt>
      <trkpt lat="43.44293" lon="6.60293">
        <ele>103.549896</ele>
        <time>2014-02-02T09:20:32Z</time>
      </trkpt>
      <trkpt lat="43.44298" lon="6.60289">
        <ele>104.387604</ele>
        <time>2014-02-02T09:20:37Z</time>
      </trkpt>
      <trkpt lat="43.44307" lon="6.60286">
        <ele>105.561592</ele>
        <time>2014-02-02T09:20:45Z</time>
      </trkpt>
      <trkpt lat="43.44309" lon="6.60284">
        <ele>105.985779</ele>
        <time>2014-02-02T09:20:47Z</time>
      </trkpt>
      <trkpt lat="43.44313" lon="6.6028">
        <ele>106.702087</ele>
        <time>2014-02-02T09:20:51Z</time>
      </trkpt>
      <trkpt lat="43.44317" lon="6.60278">
        <ele>107.209343</ele>
        <time>2014-02-02T09:20:54Z</time>
      </trkpt>
      <trkpt lat="43.4432" lon="6.60277">
        <ele>107.522789</ele>
        <time>2014-02-02T09:20:57Z</time>
      </trkpt>
      <trkpt lat="43.44323" lon="6.60278">
        <ele>107.842079</ele>
        <time>2014-02-02T09:21:00Z</time>
      </trkpt>
      <trkpt lat="43.44329" lon="6.60273">
        <ele>108.753601</ele>
        <time>2014-02-02T09:21:07Z</time>
      </trkpt>
      <trkpt lat="43.4433" lon="6.60272">
        <ele>108.860031</ele>
        <time>2014-02-02T09:21:08Z</time>
      </trkpt>
      <trkpt lat="43.44333" lon="6.60267">
        <ele>109.306351</ele>
        <time>2014-02-02T09:21:12Z</time>
      </trkpt>
      <trkpt lat="43.44339" lon="6.60262">
        <ele>110.005676</ele>
        <time>2014-02-02T09:21:21Z</time>
      </trkpt>
      <trkpt lat="43.44345" lon="6.60259">
        <ele>110.549843</ele>
        <time>2014-02-02T09:21:28Z</time>
      </trkpt>
      <trkpt lat="43.44346" lon="6.60259">
        <ele>110.608208</ele>
        <time>2014-02-02T09:21:29Z</time>
      </trkpt>
      <trkpt lat="43.44357" lon="6.60261">
        <ele>111.263954</ele>
        <time>2014-02-02T09:21:37Z</time>
      </trkpt>
      <trkpt lat="43.44361" lon="6.6026">
        <ele>111.612427</ele>
        <time>2014-02-02T09:21:41Z</time>
      </trkpt>
      <trkpt lat="43.44364" lon="6.60257">
        <ele>111.784698</ele>
        <time>2014-02-02T09:21:45Z</time>
      </trkpt>
      <trkpt lat="43.44371" lon="6.60255">
        <ele>111.873192</ele>
        <time>2014-02-02T09:21:51Z</time>
      </trkpt>
      <trkpt lat="43.4438" lon="6.60252">
        <ele>111.97316</ele>
        <time>2014-02-02T09:21:59Z</time>
      </trkpt>
      <trkpt lat="43.44381" lon="6.60252">
        <ele>111.982292</ele>
        <time>2014-02-02T09:22:00Z</time>
      </trkpt>
      <trkpt lat="43.44384" lon="6.60252">
        <ele>111.989151</ele>
        <time>2014-02-02T09:22:03Z</time>
      </trkpt>
      <trkpt lat="43.44391" lon="6.60255">
        <ele>112.499023</ele>
        <time>2014-02-02T09:22:10Z</time>
      </trkpt>
      <trkpt lat="43.44395" lon="6.60259">
        <ele>113.460327</ele>
        <time>2014-02-02T09:22:15Z</time>
      </trkpt>
      <trkpt lat="43.44401" lon="6.60265">
        <ele>114.998413</ele>
        <time>2014-02-02T09:22:23Z</time>
      </trkpt>
      <trkpt lat="43.44408" lon="6.60267">
        <ele>116.921021</ele>
        <time>2014-02-02T09:22:32Z</time>
      </trkpt>
      <trkpt lat="43.44413" lon="6.60268">
        <ele>117.978455</ele>
        <time>2014-02-02T09:22:38Z</time>
      </trkpt>
      <trkpt lat="43.44418" lon="6.60264">
        <ele>119.533089</ele>
        <time>2014-02-02T09:22:44Z</time>
      </trkpt>
      <trkpt lat="43.44421" lon="6.60263">
        <ele>120.643707</ele>
        <time>2014-02-02T09:22:48Z</time>
      </trkpt>
      <trkpt lat="43.44427" lon="6.60263">
        <ele>123.494568</ele>
        <time>2014-02-02T09:22:55Z</time>
      </trkpt>
      <trkpt lat="43.44433" lon="6.60264">
        <ele>125.843086</ele>
        <time>2014-02-02T09:23:01Z</time>
      </trkpt>
      <trkpt lat="43.44434" lon="6.60264">
        <ele>126.172531</ele>
        <time>2014-02-02T09:23:02Z</time>
      </trkpt>
      <trkpt lat="43.4444" lon="6.60264">
        <ele>128.846634</ele>
        <time>2014-02-02T09:23:09Z</time>
      </trkpt>
      <trkpt lat="43.44443" lon="6.60266">
        <ele>129.87973</ele>
        <time>2014-02-02T09:23:11Z</time>
      </trkpt>
      <trkpt lat="43.44449" lon="6.6027">
        <ele>131.175461</ele>
        <time>2014-02-02T09:23:17Z</time>
      </trkpt>
      <trkpt lat="43.44455" lon="6.60273">
        <ele>132.457901</ele>
        <time>2014-02-02T09:23:24Z</time>
      </trkpt>
      <trkpt lat="43.44457" lon="6.60273">
        <ele>132.775146</ele>
        <time>2014-02-02T09:23:33Z</time>
      </trkpt>
      <trkpt lat="43.44458" lon="6.60274">
        <ele>133.080154</ele>
        <time>2014-02-02T09:23:45Z</time>
      </trkpt>
      <trkpt lat="43.44461" lon="6.60274">
        <ele>133.724319</ele>
        <time>2014-02-02T09:24:06Z</time>
      </trkpt>
      <trkpt lat="43.44466" lon="6.60279">
        <ele>134.577637</ele>
        <time>2014-02-02T09:24:12Z</time>
      </trkpt>
      <trkpt lat="43.4447" lon="6.60283">
        <ele>135.484009</ele>
        <time>2014-02-02T09:24:17Z</time>
      </trkpt>
      <trkpt lat="43.44473" lon="6.60286">
        <ele>136.187988</ele>
        <time>2014-02-02T09:24:22Z</time>
      </trkpt>
      <trkpt lat="43.44479" lon="6.60292">
        <ele>137.149292</ele>
        <time>2014-02-02T09:24:29Z</time>
      </trkpt>
      <trkpt lat="43.44482" lon="6.60295">
        <ele>137.767273</ele>
        <time>2014-02-02T09:24:33Z</time>
      </trkpt>
      <trkpt lat="43.44485" lon="6.60298">
        <ele>138.247925</ele>
        <time>2014-02-02T09:24:40Z</time>
      </trkpt>
      <trkpt lat="43.44487" lon="6.60298">
        <ele>138.728577</ele>
        <time>2014-02-02T09:24:45Z</time>
      </trkpt>
      <trkpt lat="43.44492" lon="6.60298">
        <ele>139.552551</ele>
        <time>2014-02-02T09:24:50Z</time>
      </trkpt>
      <trkpt lat="43.44494" lon="6.60299">
        <ele>139.964539</ele>
        <time>2014-02-02T09:24:52Z</time>
      </trkpt>
      <trkpt lat="43.44497" lon="6.60298">
        <ele>140.376526</ele>
        <time>2014-02-02T09:24:54Z</time>
      </trkpt>
      <trkpt lat="43.44503" lon="6.60291">
        <ele>141.855286</ele>
        <time>2014-02-02T09:25:02Z</time>
      </trkpt>
      <trkpt lat="43.44505" lon="6.6029">
        <ele>142.720459</ele>
        <time>2014-02-02T09:25:05Z</time>
      </trkpt>
      <trkpt lat="43.4451" lon="6.60289">
        <ele>144.327209</ele>
        <time>2014-02-02T09:25:10Z</time>
      </trkpt>
      <trkpt lat="43.44514" lon="6.60288">
        <ele>145.563171</ele>
        <time>2014-02-02T09:25:14Z</time>
      </trkpt>
      <trkpt lat="43.44521" lon="6.60288">
        <ele>147.787903</ele>
        <time>2014-02-02T09:25:21Z</time>
      </trkpt>
      <trkpt lat="43.44527" lon="6.60286">
        <ele>149.889038</ele>
        <time>2014-02-02T09:25:27Z</time>
      </trkpt>
      <trkpt lat="43.44532" lon="6.60282">
        <ele>150.714706</ele>
        <time>2014-02-02T09:25:32Z</time>
      </trkpt>
      <trkpt lat="43.44535" lon="6.60279">
        <ele>151.251251</ele>
        <time>2014-02-02T09:25:36Z</time>
      </trkpt>
      <trkpt lat="43.4454" lon="6.60274">
        <ele>152.118256</ele>
        <time>2014-02-02T09:25:42Z</time>
      </trkpt>
      <trkpt lat="43.44546" lon="6.60271">
        <ele>153.213989</ele>
        <time>2014-02-02T09:25:48Z</time>
      </trkpt>
      <trkpt lat="43.44551" lon="6.60267">
        <ele>154.209747</ele>
        <time>2014-02-02T09:25:53Z</time>
      </trkpt>
      <trkpt lat="43.44553" lon="6.60265">
        <ele>154.495407</ele>
        <time>2014-02-02T09:25:56Z</time>
      </trkpt>
      <trkpt lat="43.44559" lon="6.60259">
        <ele>157.005524</ele>
        <time>2014-02-02T09:26:02Z</time>
      </trkpt>
      <trkpt lat="43.44563" lon="6.60253">
        <ele>159.561157</ele>
        <time>2014-02-02T09:26:08Z</time>
      </trkpt>
      <trkpt lat="43.44567" lon="6.60246">
        <ele>161.812088</ele>
        <time>2014-02-02T09:26:14Z</time>
      </trkpt>
      <trkpt lat="43.44569" lon="6.60243">
        <ele>162.939438</ele>
        <time>2014-02-02T09:26:17Z</time>
      </trkpt>
      <trkpt lat="43.44572" lon="6.6024">
        <ele>164.055145</ele>
        <time>2014-02-02T09:26:20Z</time>
      </trkpt>
      <trkpt lat="43.44575" lon="6.60236">
        <ele>165.520996</ele>
        <time>2014-02-02T09:26:24Z</time>
      </trkpt>
      <trkpt lat="43.44577" lon="6.60233">
        <ele>166.393219</ele>
        <time>2014-02-02T09:26:27Z</time>
      </trkpt>
      <trkpt lat="43.44579" lon="6.60229">
        <ele>167.25737</ele>
        <time>2014-02-02T09:26:31Z</time>
      </trkpt>
      <trkpt lat="43.44582" lon="6.60224">
        <ele>168.468811</ele>
        <time>2014-02-02T09:26:36Z</time>
      </trkpt>
      <trkpt lat="43.44584" lon="6.60221">
        <ele>168.931854</ele>
        <time>2014-02-02T09:26:39Z</time>
      </trkpt>
      <trkpt lat="43.44588" lon="6.60214">
        <ele>170.589066</ele>
        <time>2014-02-02T09:26:46Z</time>
      </trkpt>
      <trkpt lat="43.44591" lon="6.60208">
        <ele>171.228851</ele>
        <time>2014-02-02T09:26:51Z</time>
      </trkpt>
      <trkpt lat="43.44592" lon="6.60206">
        <ele>171.804428</ele>
        <time>2014-02-02T09:26:53Z</time>
      </trkpt>
      <trkpt lat="43.44596" lon="6.602">
        <ele>173.311859</ele>
        <time>2014-02-02T09:26:59Z</time>
      </trkpt>
      <trkpt lat="43.44596" lon="6.60197">
        <ele>173.061813</ele>
        <time>2014-02-02T09:27:02Z</time>
      </trkpt>
      <trkpt lat="43.44596" lon="6.60187">
        <ele>172.277084</ele>
        <time>2014-02-02T09:27:09Z</time>
      </trkpt>
      <trkpt lat="43.44595" lon="6.60183">
        <ele>171.819855</ele>
        <time>2014-02-02T09:27:12Z</time>
      </trkpt>
      <trkpt lat="43.44595" lon="6.60176">
        <ele>171.451126</ele>
        <time>2014-02-02T09:27:16Z</time>
      </trkpt>
      <trkpt lat="43.44595" lon="6.60168">
        <ele>170.793564</ele>
        <time>2014-02-02T09:27:22Z</time>
      </trkpt>
      <trkpt lat="43.44595" lon="6.60166">
        <ele>170.791656</ele>
        <time>2014-02-02T09:27:24Z</time>
      </trkpt>
      <trkpt lat="43.44598" lon="6.60152">
        <ele>170.380844</ele>
        <time>2014-02-02T09:27:33Z</time>
      </trkpt>
      <trkpt lat="43.44598" lon="6.60151">
        <ele>170.206757</ele>
        <time>2014-02-02T09:27:34Z</time>
      </trkpt>
      <trkpt lat="43.44602" lon="6.6014">
        <ele>170.65332</ele>
        <time>2014-02-02T09:27:42Z</time>
      </trkpt>
      <trkpt lat="43.44604" lon="6.60134">
        <ele>170.909866</ele>
        <time>2014-02-02T09:27:46Z</time>
      </trkpt>
      <trkpt lat="43.44608" lon="6.60123">
        <ele>171.261185</ele>
        <time>2014-02-02T09:27:53Z</time>
      </trkpt>
      <trkpt lat="43.44609" lon="6.60118">
        <ele>171.14299</ele>
        <time>2014-02-02T09:27:56Z</time>
      </trkpt>
      <trkpt lat="43.44612" lon="6.60115">
        <ele>171.760071</ele>
        <time>2014-02-02T09:28:00Z</time>
      </trkpt>
      <trkpt lat="43.44615" lon="6.60103">
        <ele>171.14209</ele>
        <time>2014-02-02T09:28:07Z</time>
      </trkpt>
      <trkpt lat="43.44616" lon="6.601">
        <ele>171.127914</ele>
        <time>2014-02-02T09:28:08Z</time>
      </trkpt>
      <trkpt lat="43.44621" lon="6.60087">
        <ele>171.113159</ele>
        <time>2014-02-02T09:28:15Z</time>
      </trkpt>
      <trkpt lat="43.44622" lon="6.60082">
        <ele>171.076721</ele>
        <time>2014-02-02T09:28:18Z</time>
      </trkpt>
      <trkpt lat="43.44625" lon="6.60079">
        <ele>171.686127</ele>
        <time>2014-02-02T09:28:21Z</time>
      </trkpt>
      <trkpt lat="43.4463" lon="6.60078">
        <ele>172.59079</ele>
        <time>2014-02-02T09:28:28Z</time>
      </trkpt>
      <trkpt lat="43.44632" lon="6.60082">
        <ele>172.717804</ele>
        <time>2014-02-02T09:28:32Z</time>
      </trkpt>
      <trkpt lat="43.44636" lon="6.60089">
        <ele>174.066467</ele>
        <time>2014-02-02T09:28:39Z</time>
      </trkpt>
      <trkpt lat="43.44638" lon="6.60093">
        <ele>174.924591</ele>
        <time>2014-02-02T09:28:43Z</time>
      </trkpt>
      <trkpt lat="43.44643" lon="6.60098">
        <ele>176.588715</ele>
        <time>2014-02-02T09:28:49Z</time>
      </trkpt>
      <trkpt lat="43.44647" lon="6.60103">
        <ele>177.932037</ele>
        <time>2014-02-02T09:28:55Z</time>
      </trkpt>
      <trkpt lat="43.44651" lon="6.6011">
        <ele>179.428192</ele>
        <time>2014-02-02T09:29:00Z</time>
      </trkpt>
      <trkpt lat="43.44652" lon="6.60113">
        <ele>180.070801</ele>
        <time>2014-02-02T09:29:02Z</time>
      </trkpt>
      <trkpt lat="43.44659" lon="6.60115">
        <ele>181.739914</ele>
        <time>2014-02-02T09:29:08Z</time>
      </trkpt>
      <trkpt lat="43.44664" lon="6.60116">
        <ele>183.067383</ele>
        <time>2014-02-02T09:29:12Z</time>
      </trkpt>
      <trkpt lat="43.44669" lon="6.60112">
        <ele>184.063416</ele>
        <time>2014-02-02T09:29:18Z</time>
      </trkpt>
      <trkpt lat="43.44672" lon="6.60108">
        <ele>184.485977</ele>
        <time>2014-02-02T09:29:22Z</time>
      </trkpt>
      <trkpt lat="43.44675" lon="6.60104">
        <ele>185.266403</ele>
        <time>2014-02-02T09:29:25Z</time>
      </trkpt>
      <trkpt lat="43.44681" lon="6.60097">
        <ele>186.298599</ele>
        <time>2014-02-02T09:29:31Z</time>
      </trkpt>
      <trkpt lat="43.44683" lon="6.60095">
        <ele>186.802582</ele>
        <time>2014-02-02T09:29:33Z</time>
      </trkpt>
      <trkpt lat="43.44691" lon="6.6009">
        <ele>188.803894</ele>
        <time>2014-02-02T09:29:39Z</time>
      </trkpt>
      <trkpt lat="43.44694" lon="6.60087">
        <ele>189.185684</ele>
        <time>2014-02-02T09:29:41Z</time>
      </trkpt>
      <trkpt lat="43.44698" lon="6.6008">
        <ele>189.54187</ele>
        <time>2014-02-02T09:29:47Z</time>
      </trkpt>
      <trkpt lat="43.44704" lon="6.60077">
        <ele>191.012543</ele>
        <time>2014-02-02T09:29:53Z</time>
      </trkpt>
      <trkpt lat="43.44711" lon="6.60076">
        <ele>192.375137</ele>
        <time>2014-02-02T09:29:59Z</time>
      </trkpt>
      <trkpt lat="43.44715" lon="6.60072">
        <ele>193.161057</ele>
        <time>2014-02-02T09:30:04Z</time>
      </trkpt>
      <trkpt lat="43.44722" lon="6.60069">
        <ele>194.441605</ele>
        <time>2014-02-02T09:30:10Z</time>
      </trkpt>
      <trkpt lat="43.44723" lon="6.60071">
        <ele>194.814026</ele>
        <time>2014-02-02T09:30:12Z</time>
      </trkpt>
      <trkpt lat="43.4473" lon="6.60069">
        <ele>196.163467</ele>
        <time>2014-02-02T09:30:18Z</time>
      </trkpt>
      <trkpt lat="43.44735" lon="6.60071">
        <ele>197.331055</ele>
        <time>2014-02-02T09:30:23Z</time>
      </trkpt>
      <trkpt lat="43.44738" lon="6.60074">
        <ele>198.645462</ele>
        <time>2014-02-02T09:30:27Z</time>
      </trkpt>
      <trkpt lat="43.44745" lon="6.60078">
        <ele>200.898544</ele>
        <time>2014-02-02T09:30:34Z</time>
      </trkpt>
      <trkpt lat="43.44747" lon="6.6008">
        <ele>201.666229</ele>
        <time>2014-02-02T09:30:39Z</time>
      </trkpt>
      <trkpt lat="43.44751" lon="6.60082">
        <ele>203.123932</ele>
        <time>2014-02-02T09:30:45Z</time>
      </trkpt>
      <trkpt lat="43.44754" lon="6.60083">
        <ele>204.004517</ele>
        <time>2014-02-02T09:30:47Z</time>
      </trkpt>
      <trkpt lat="43.44757" lon="6.60084">
        <ele>205.08371</ele>
        <time>2014-02-02T09:30:49Z</time>
      </trkpt>
      <trkpt lat="43.44762" lon="6.60086">
        <ele>206.995789</ele>
        <time>2014-02-02T09:30:53Z</time>
      </trkpt>
      <trkpt lat="43.44769" lon="6.60089">
        <ele>209.562805</ele>
        <time>2014-02-02T09:31:00Z</time>
      </trkpt>
      <trkpt lat="43.44772" lon="6.60091">
        <ele>210.706879</ele>
        <time>2014-02-02T09:31:03Z</time>
      </trkpt>
      <trkpt lat="43.44774" lon="6.6009">
        <ele>211.267365</ele>
        <time>2014-02-02T09:31:06Z</time>
      </trkpt>
      <trkpt lat="43.44778" lon="6.60095">
        <ele>213.532349</ele>
        <time>2014-02-02T09:31:12Z</time>
      </trkpt>
      <trkpt lat="43.4478" lon="6.60096">
        <ele>214.333237</ele>
        <time>2014-02-02T09:31:17Z</time>
      </trkpt>
      <trkpt lat="43.44786" lon="6.60099">
        <ele>216.492615</ele>
        <time>2014-02-02T09:31:25Z</time>
      </trkpt>
      <trkpt lat="43.44787" lon="6.601">
        <ele>216.858322</ele>
        <time>2014-02-02T09:31:26Z</time>
      </trkpt>
      <trkpt lat="43.44791" lon="6.60103">
        <ele>218.543259</ele>
        <time>2014-02-02T09:31:33Z</time>
      </trkpt>
      <trkpt lat="43.44798" lon="6.60103">
        <ele>220.2397</ele>
        <time>2014-02-02T09:31:40Z</time>
      </trkpt>
      <trkpt lat="43.44803" lon="6.6011">
        <ele>222.313202</ele>
        <time>2014-02-02T09:31:47Z</time>
      </trkpt>
      <trkpt lat="43.44804" lon="6.60111">
        <ele>222.678024</ele>
        <time>2014-02-02T09:31:49Z</time>
      </trkpt>
      <trkpt lat="43.44807" lon="6.6011">
        <ele>223.178421</ele>
        <time>2014-02-02T09:31:53Z</time>
      </trkpt>
      <trkpt lat="43.4481" lon="6.60111">
        <ele>223.683243</ele>
        <time>2014-02-02T09:31:58Z</time>
      </trkpt>
      <trkpt lat="43.44811" lon="6.60115">
        <ele>224.710358</ele>
        <time>2014-02-02T09:32:03Z</time>
      </trkpt>
      <trkpt lat="43.44813" lon="6.60121">
        <ele>226.326218</ele>
        <time>2014-02-02T09:32:10Z</time>
      </trkpt>
      <trkpt lat="43.44814" lon="6.60126">
        <ele>227.511932</ele>
        <time>2014-02-02T09:32:14Z</time>
      </trkpt>
      <trkpt lat="43.44815" lon="6.60127">
        <ele>228.071075</ele>
        <time>2014-02-02T09:32:17Z</time>
      </trkpt>
      <trkpt lat="43.44818" lon="6.60135">
        <ele>230.498383</ele>
        <time>2014-02-02T09:32:25Z</time>
      </trkpt>
      <trkpt lat="43.4482" lon="6.60137">
        <ele>231.231766</ele>
        <time>2014-02-02T09:32:29Z</time>
      </trkpt>
      <trkpt lat="43.44822" lon="6.60141">
        <ele>232.582932</ele>
        <time>2014-02-02T09:32:34Z</time>
      </trkpt>
      <trkpt lat="43.44819" lon="6.60151">
        <ele>234.398697</ele>
        <time>2014-02-02T09:33:07Z</time>
      </trkpt>
      <trkpt lat="43.44822" lon="6.60153">
        <ele>235.990204</ele>
        <time>2014-02-02T09:33:15Z</time>
      </trkpt>
      <trkpt lat="43.44823" lon="6.60155">
        <ele>236.883987</ele>
        <time>2014-02-02T09:33:20Z</time>
      </trkpt>
      <trkpt lat="43.44822" lon="6.60157">
        <ele>237.028168</ele>
        <time>2014-02-02T09:33:28Z</time>
      </trkpt>
      <trkpt lat="43.44828" lon="6.60164">
        <ele>241.201996</ele>
        <time>2014-02-02T09:34:11Z</time>
      </trkpt>
      <trkpt lat="43.44833" lon="6.60171">
        <ele>245.324097</ele>
        <time>2014-02-02T09:34:25Z</time>
      </trkpt>
      <trkpt lat="43.44833" lon="6.60174">
        <ele>245.877563</ele>
        <time>2014-02-02T09:34:30Z</time>
      </trkpt>
      <trkpt lat="43.44832" lon="6.60182">
        <ele>247.800171</ele>
        <time>2014-02-02T09:34:37Z</time>
      </trkpt>
      <trkpt lat="43.44836" lon="6.60187">
        <ele>250.617783</ele>
        <time>2014-02-02T09:34:44Z</time>
      </trkpt>
      <trkpt lat="43.44837" lon="6.60188">
        <ele>251.391037</ele>
        <time>2014-02-02T09:34:46Z</time>
      </trkpt>
      <trkpt lat="43.4484" lon="6.60192">
        <ele>253.657425</ele>
        <time>2014-02-02T09:34:54Z</time>
      </trkpt>
      <trkpt lat="43.44846" lon="6.60207">
        <ele>261.837463</ele>
        <time>2014-02-02T09:35:21Z</time>
      </trkpt>
      <trkpt lat="43.44846" lon="6.60215">
        <ele>265.452637</ele>
        <time>2014-02-02T09:37:04Z</time>
      </trkpt>
      <trkpt lat="43.44847" lon="6.60219">
        <ele>267.697998</ele>
        <time>2014-02-02T09:37:18Z</time>
      </trkpt>
      <trkpt lat="43.44845" lon="6.6022">
        <ele>267.861053</ele>
        <time>2014-02-02T09:37:23Z</time>
      </trkpt>
      <trkpt lat="43.44845" lon="6.60222">
        <ele>268.709076</ele>
        <time>2014-02-02T09:37:29Z</time>
      </trkpt>
      <trkpt lat="43.44847" lon="6.60226">
        <ele>271.201599</ele>
        <time>2014-02-02T09:37:38Z</time>
      </trkpt>
      <trkpt lat="43.44848" lon="6.60229">
        <ele>272.889038</ele>
        <time>2014-02-02T09:37:43Z</time>
      </trkpt>
      <trkpt lat="43.4485" lon="6.60232">
        <ele>275.259674</ele>
        <time>2014-02-02T09:37:49Z</time>
      </trkpt>
      <trkpt lat="43.44849" lon="6.60234">
        <ele>275.726593</ele>
        <time>2014-02-02T09:37:51Z</time>
      </trkpt>
      <trkpt lat="43.44849" lon="6.60237">
        <ele>277.110168</ele>
        <time>2014-02-02T09:37:57Z</time>
      </trkpt>
      <trkpt lat="43.44855" lon="6.60243">
        <ele>281.429169</ele>
        <time>2014-02-02T09:38:25Z</time>
      </trkpt>
      <trkpt lat="43.44852" lon="6.60245">
        <ele>281.645477</ele>
        <time>2014-02-02T09:38:33Z</time>
      </trkpt>
      <trkpt lat="43.44848" lon="6.60247">
        <ele>281.436035</ele>
        <time>2014-02-02T09:38:39Z</time>
      </trkpt>
      <trkpt lat="43.44849" lon="6.60252">
        <ele>283.542847</ele>
        <time>2014-02-02T09:38:44Z</time>
      </trkpt>
      <trkpt lat="43.44847" lon="6.60256">
        <ele>284.271667</ele>
        <time>2014-02-02T09:38:50Z</time>
      </trkpt>
      <trkpt lat="43.44846" lon="6.6026">
        <ele>285.171173</ele>
        <time>2014-02-02T09:38:55Z</time>
      </trkpt>
      <trkpt lat="43.44845" lon="6.60263">
        <ele>285.861023</ele>
        <time>2014-02-02T09:39:07Z</time>
      </trkpt>
      <trkpt lat="43.44843" lon="6.60262">
        <ele>285.052704</ele>
        <time>2014-02-02T09:39:58Z</time>
      </trkpt>
      <trkpt lat="43.44842" lon="6.60267">
        <ele>286.071381</ele>
        <time>2014-02-02T09:40:04Z</time>
      </trkpt>
      <trkpt lat="43.44841" lon="6.6027">
        <ele>286.977051</ele>
        <time>2014-02-02T09:40:11Z</time>
      </trkpt>
      <trkpt lat="43.44838" lon="6.60273">
        <ele>286.600861</ele>
        <time>2014-02-02T09:40:16Z</time>
      </trkpt>
      <trkpt lat="43.44838" lon="6.60281">
        <ele>289.733795</ele>
        <time>2014-02-02T09:40:25Z</time>
      </trkpt>
      <trkpt lat="43.44839" lon="6.60288">
        <ele>293.186401</ele>
        <time>2014-02-02T09:40:32Z</time>
      </trkpt>
      <trkpt lat="43.44838" lon="6.60293">
        <ele>295.13028</ele>
        <time>2014-02-02T09:40:41Z</time>
      </trkpt>
      <trkpt lat="43.44837" lon="6.60299">
        <ele>297.710388</ele>
        <time>2014-02-02T09:40:51Z</time>
      </trkpt>
      <trkpt lat="43.44836" lon="6.60309">
        <ele>300.726318</ele>
        <time>2014-02-02T09:41:09Z</time>
      </trkpt>
      <trkpt lat="43.44841" lon="6.60314">
        <ele>302.124207</ele>
        <time>2014-02-02T09:41:39Z</time>
      </trkpt>
      <trkpt lat="43.44841" lon="6.60323">
        <ele>303.173126</ele>
        <time>2014-02-02T09:41:54Z</time>
      </trkpt>
      <trkpt lat="43.44844" lon="6.60322">
        <ele>303.552979</ele>
        <time>2014-02-02T09:42:10Z</time>
      </trkpt>
      <trkpt lat="43.44846" lon="6.60322">
        <ele>303.974274</ele>
        <time>2014-02-02T09:42:17Z</time>
      </trkpt>
      <trkpt lat="43.4485" lon="6.60324">
        <ele>304.753174</ele>
        <time>2014-02-02T09:42:25Z</time>
      </trkpt>
      <trkpt lat="43.44852" lon="6.6032">
        <ele>304.583282</ele>
        <time>2014-02-02T09:42:32Z</time>
      </trkpt>
      <trkpt lat="43.44855" lon="6.60322">
        <ele>305.339874</ele>
        <time>2014-02-02T09:42:40Z</time>
      </trkpt>
      <trkpt lat="43.44857" lon="6.60323">
        <ele>305.701782</ele>
        <time>2014-02-02T09:42:45Z</time>
      </trkpt>
      <trkpt lat="43.44858" lon="6.6032">
        <ele>305.600769</ele>
        <time>2014-02-02T09:42:52Z</time>
      </trkpt>
      <trkpt lat="43.44858" lon="6.60319">
        <ele>305.473755</ele>
        <time>2014-02-02T09:42:54Z</time>
      </trkpt>
      <trkpt lat="43.44857" lon="6.6031">
        <ele>304.001465</ele>
        <time>2014-02-02T09:43:03Z</time>
      </trkpt>
      <trkpt lat="43.44849" lon="6.60292">
        <ele>296.97348</ele>
        <time>2014-02-02T09:43:48Z</time>
      </trkpt>
      <trkpt lat="43.4485" lon="6.60296">
        <ele>298.715851</ele>
        <time>2014-02-02T09:43:57Z</time>
      </trkpt>
      <trkpt lat="43.44858" lon="6.60327">
        <ele>306.571167</ele>
        <time>2014-02-02T09:46:43Z</time>
      </trkpt>
      <trkpt lat="43.44858" lon="6.60333">
        <ele>307.378906</ele>
        <time>2014-02-02T09:46:54Z</time>
      </trkpt>
      <trkpt lat="43.44858" lon="6.60337">
        <ele>308.091217</ele>
        <time>2014-02-02T09:47:00Z</time>
      </trkpt>
      <trkpt lat="43.44859" lon="6.60342">
        <ele>309.410034</ele>
        <time>2014-02-02T09:47:16Z</time>
      </trkpt>
      <trkpt lat="43.4486" lon="6.60344">
        <ele>310.265686</ele>
        <time>2014-02-02T09:47:39Z</time>
      </trkpt>
      <trkpt lat="43.44857" lon="6.60344">
        <ele>309.333832</ele>
        <time>2014-02-02T09:47:49Z</time>
      </trkpt>
      <trkpt lat="43.44857" lon="6.60345">
        <ele>309.809418</ele>
        <time>2014-02-02T09:47:54Z</time>
      </trkpt>
      <trkpt lat="43.44862" lon="6.60349">
        <ele>311.70694</ele>
        <time>2014-02-02T09:48:17Z</time>
      </trkpt>
      <trkpt lat="43.44865" lon="6.60356">
        <ele>314.632141</ele>
        <time>2014-02-02T09:48:40Z</time>
      </trkpt>
      <trkpt lat="43.44865" lon="6.60355">
        <ele>314.422607</ele>
        <time>2014-02-02T09:48:42Z</time>
      </trkpt>
      <trkpt lat="43.44868" lon="6.60358">
        <ele>316.578186</ele>
        <time>2014-02-02T09:48:46Z</time>
      </trkpt>
      <trkpt lat="43.44868" lon="6.60363">
        <ele>317.841858</ele>
        <time>2014-02-02T09:48:53Z</time>
      </trkpt>
      <trkpt lat="43.44867" lon="6.60367">
        <ele>318.018494</ele>
        <time>2014-02-02T09:49:02Z</time>
      </trkpt>
      <trkpt lat="43.44865" lon="6.60365">
        <ele>316.738342</ele>
        <time>2014-02-02T09:49:11Z</time>
      </trkpt>
      <trkpt lat="43.44861" lon="6.6035">
        <ele>311.635468</ele>
        <time>2014-02-02T09:49:44Z</time>
      </trkpt>
      <trkpt lat="43.4486" lon="6.60349">
        <ele>311.077362</ele>
        <time>2014-02-02T09:49:50Z</time>
      </trkpt>
      <trkpt lat="43.4487" lon="6.60342">
        <ele>313.574341</ele>
        <time>2014-02-02T09:50:39Z</time>
      </trkpt>
      <trkpt lat="43.44871" lon="6.60348">
        <ele>315.431702</ele>
        <time>2014-02-02T09:50:44Z</time>
      </trkpt>
      <trkpt lat="43.44878" lon="6.60364">
        <ele>322.459808</ele>
        <time>2014-02-02T09:50:56Z</time>
      </trkpt>
      <trkpt lat="43.44883" lon="6.60367">
        <ele>325.687836</ele>
        <time>2014-02-02T09:51:01Z</time>
      </trkpt>
      <trkpt lat="43.44888" lon="6.6037">
        <ele>329.622742</ele>
        <time>2014-02-02T09:51:07Z</time>
      </trkpt>
      <trkpt lat="43.44891" lon="6.60373">
        <ele>333.205872</ele>
        <time>2014-02-02T09:51:11Z</time>
      </trkpt>
      <trkpt lat="43.44894" lon="6.60375">
        <ele>335.789886</ele>
        <time>2014-02-02T09:51:17Z</time>
      </trkpt>
      <trkpt lat="43.44899" lon="6.60378">
        <ele>341.282776</ele>
        <time>2014-02-02T09:51:33Z</time>
      </trkpt>
      <trkpt lat="43.449" lon="6.6038">
        <ele>343.589325</ele>
        <time>2014-02-02T09:51:38Z</time>
      </trkpt>
      <trkpt lat="43.44901" lon="6.6038">
        <ele>344.621857</ele>
        <time>2014-02-02T09:51:45Z</time>
      </trkpt>
      <trkpt lat="43.44904" lon="6.60384">
        <ele>349.216125</ele>
        <time>2014-02-02T09:52:01Z</time>
      </trkpt>
      <trkpt lat="43.44907" lon="6.60386">
        <ele>352.354187</ele>
        <time>2014-02-02T09:52:08Z</time>
      </trkpt>
      <trkpt lat="43.44907" lon="6.60388">
        <ele>353.792847</ele>
        <time>2014-02-02T09:52:15Z</time>
      </trkpt>
      <trkpt lat="43.44909" lon="6.60389">
        <ele>356.625366</ele>
        <time>2014-02-02T09:52:21Z</time>
      </trkpt>
      <trkpt lat="43.4491" lon="6.60391">
        <ele>357.923248</ele>
        <time>2014-02-02T09:52:29Z</time>
      </trkpt>
      <trkpt lat="43.44909" lon="6.60391">
        <ele>356.401031</ele>
        <time>2014-02-02T09:52:31Z</time>
      </trkpt>
      <trkpt lat="43.44906" lon="6.60393">
        <ele>354.683838</ele>
        <time>2014-02-02T09:52:36Z</time>
      </trkpt>
      <trkpt lat="43.44907" lon="6.60395">
        <ele>355.751465</ele>
        <time>2014-02-02T09:53:26Z</time>
      </trkpt>
      <trkpt lat="43.44906" lon="6.60397">
        <ele>355.537964</ele>
        <time>2014-02-02T09:53:43Z</time>
      </trkpt>
      <trkpt lat="43.44903" lon="6.60396">
        <ele>352.156311</ele>
        <time>2014-02-02T09:53:49Z</time>
      </trkpt>
      <trkpt lat="43.44901" lon="6.60396">
        <ele>350.213593</ele>
        <time>2014-02-02T09:54:00Z</time>
      </trkpt>
      <trkpt lat="43.44898" lon="6.60397">
        <ele>347.631165</ele>
        <time>2014-02-02T09:54:06Z</time>
      </trkpt>
      <trkpt lat="43.44899" lon="6.60396">
        <ele>348.13913</ele>
        <time>2014-02-02T09:54:12Z</time>
      </trkpt>
      <trkpt lat="43.44901" lon="6.60392">
        <ele>349.276978</ele>
        <time>2014-02-02T09:54:38Z</time>
      </trkpt>
      <trkpt lat="43.44901" lon="6.60393">
        <ele>349.717896</ele>
        <time>2014-02-02T09:54:47Z</time>
      </trkpt>
      <trkpt lat="43.449" lon="6.60391">
        <ele>347.495819</ele>
        <time>2014-02-02T09:55:00Z</time>
      </trkpt>
      <trkpt lat="43.44903" lon="6.60391">
        <ele>351.019989</ele>
        <time>2014-02-02T09:55:05Z</time>
      </trkpt>
      <trkpt lat="43.44903" lon="6.60394">
        <ele>351.919128</ele>
        <time>2014-02-02T09:55:18Z</time>
      </trkpt>
      <trkpt lat="43.44903" lon="6.60394">
        <ele>351.524323</ele>
        <time>2014-02-02T09:55:22Z</time>
      </trkpt>
      <trkpt lat="43.44902" lon="6.60392">
        <ele>349.774719</ele>
        <time>2014-02-02T09:55:27Z</time>
      </trkpt>
      <trkpt lat="43.44902" lon="6.60393">
        <ele>349.895813</ele>
        <time>2014-02-02T09:55:37Z</time>
      </trkpt>
      <trkpt lat="43.44902" lon="6.60396">
        <ele>351.675293</ele>
        <time>2014-02-02T09:57:16Z</time>
      </trkpt>
      <trkpt lat="43.44905" lon="6.60393">
        <ele>353.985687</ele>
        <time>2014-02-02T09:57:24Z</time>
      </trkpt>
      <trkpt lat="43.44909" lon="6.60393">
        <ele>357.007172</ele>
        <time>2014-02-02T09:57:29Z</time>
      </trkpt>
      <trkpt lat="43.44912" lon="6.60393">
        <ele>360.366547</ele>
        <time>2014-02-02T09:57:34Z</time>
      </trkpt>
      <trkpt lat="43.44915" lon="6.60396">
        <ele>365.09259</ele>
        <time>2014-02-02T09:57:40Z</time>
      </trkpt>
      <trkpt lat="43.4492" lon="6.60391">
        <ele>365.433533</ele>
        <time>2014-02-02T09:57:58Z</time>
      </trkpt>
      <trkpt lat="43.44921" lon="6.60389">
        <ele>365.045624</ele>
        <time>2014-02-02T09:58:05Z</time>
      </trkpt>
      <trkpt lat="43.44923" lon="6.60389">
        <ele>365.537903</ele>
        <time>2014-02-02T09:58:12Z</time>
      </trkpt>
      <trkpt lat="43.44926" lon="6.60389">
        <ele>365.899872</ele>
        <time>2014-02-02T09:58:25Z</time>
      </trkpt>
      <trkpt lat="43.44929" lon="6.60389">
        <ele>366.774597</ele>
        <time>2014-02-02T09:58:35Z</time>
      </trkpt>
      <trkpt lat="43.44929" lon="6.60388">
        <ele>366.026245</ele>
        <time>2014-02-02T09:59:38Z</time>
      </trkpt>
      <trkpt lat="43.44929" lon="6.60388">
        <ele>366.275543</ele>
        <time>2014-02-02T09:59:49Z</time>
      </trkpt>
      <trkpt lat="43.44931" lon="6.60388">
        <ele>366.568634</ele>
        <time>2014-02-02T10:00:56Z</time>
      </trkpt>
      <trkpt lat="43.44928" lon="6.60386">
        <ele>364.861938</ele>
        <time>2014-02-02T10:01:02Z</time>
      </trkpt>
      <trkpt lat="43.44929" lon="6.60385">
        <ele>364.514923</ele>
        <time>2014-02-02T10:01:07Z</time>
      </trkpt>
      <trkpt lat="43.4493" lon="6.60386">
        <ele>364.992981</ele>
        <time>2014-02-02T10:01:13Z</time>
      </trkpt>
      <trkpt lat="43.44931" lon="6.60383">
        <ele>363.545074</ele>
        <time>2014-02-02T10:01:18Z</time>
      </trkpt>
      <trkpt lat="43.4493" lon="6.60379">
        <ele>361.181091</ele>
        <time>2014-02-02T10:01:24Z</time>
      </trkpt>
      <trkpt lat="43.44932" lon="6.60381">
        <ele>362.432343</ele>
        <time>2014-02-02T10:01:33Z</time>
      </trkpt>
      <trkpt lat="43.44935" lon="6.60381">
        <ele>362.9823</ele>
        <time>2014-02-02T10:01:44Z</time>
      </trkpt>
      <trkpt lat="43.44939" lon="6.6038">
        <ele>363.517426</ele>
        <time>2014-02-02T10:02:00Z</time>
      </trkpt>
      <trkpt lat="43.4494" lon="6.60383">
        <ele>365.17215</ele>
        <time>2014-02-02T10:02:06Z</time>
      </trkpt>
      <trkpt lat="43.44939" lon="6.60384">
        <ele>365.520538</ele>
        <time>2014-02-02T10:02:21Z</time>
      </trkpt>
      <trkpt lat="43.4494" lon="6.60386">
        <ele>367.189484</ele>
        <time>2014-02-02T10:02:27Z</time>
      </trkpt>
      <trkpt lat="43.44941" lon="6.6039">
        <ele>369.428009</ele>
        <time>2014-02-02T10:02:33Z</time>
      </trkpt>
      <trkpt lat="43.44945" lon="6.60387">
        <ele>368.155334</ele>
        <time>2014-02-02T10:02:42Z</time>
      </trkpt>
      <trkpt lat="43.44944" lon="6.60385">
        <ele>367.060944</ele>
        <time>2014-02-02T10:02:47Z</time>
      </trkpt>
      <trkpt lat="43.44944" lon="6.60383">
        <ele>366.292297</ele>
        <time>2014-02-02T10:02:50Z</time>
      </trkpt>
      <trkpt lat="43.44944" lon="6.60382">
        <ele>365.792206</ele>
        <time>2014-02-02T10:02:56Z</time>
      </trkpt>
      <trkpt lat="43.44941" lon="6.60383">
        <ele>365.57373</ele>
        <time>2014-02-02T10:03:06Z</time>
      </trkpt>
      <trkpt lat="43.44941" lon="6.60383">
        <ele>365.698059</ele>
        <time>2014-02-02T10:03:13Z</time>
      </trkpt>
      <trkpt lat="43.44944" lon="6.60381">
        <ele>364.54837</ele>
        <time>2014-02-02T10:03:27Z</time>
      </trkpt>
      <trkpt lat="43.44941" lon="6.60374">
        <ele>360.115417</ele>
        <time>2014-02-02T10:03:44Z</time>
      </trkpt>
      <trkpt lat="43.4494" lon="6.60374">
        <ele>359.481445</ele>
        <time>2014-02-02T10:03:51Z</time>
      </trkpt>
      <trkpt lat="43.44932" lon="6.60364">
        <ele>352.242065</ele>
        <time>2014-02-02T10:04:53Z</time>
      </trkpt>
      <trkpt lat="43.44932" lon="6.60362">
        <ele>351.039856</ele>
        <time>2014-02-02T10:05:00Z</time>
      </trkpt>
      <trkpt lat="43.44934" lon="6.6036">
        <ele>350.272278</ele>
        <time>2014-02-02T10:05:05Z</time>
      </trkpt>
      <trkpt lat="43.44936" lon="6.60358">
        <ele>349.025818</ele>
        <time>2014-02-02T10:06:18Z</time>
      </trkpt>
      <trkpt lat="43.44933" lon="6.60346">
        <ele>341.646973</ele>
        <time>2014-02-02T10:07:00Z</time>
      </trkpt>
      <trkpt lat="43.44938" lon="6.60338">
        <ele>337.648102</ele>
        <time>2014-02-02T10:07:40Z</time>
      </trkpt>
      <trkpt lat="43.44932" lon="6.60335">
        <ele>335.590057</ele>
        <time>2014-02-02T10:09:22Z</time>
      </trkpt>
      <trkpt lat="43.44933" lon="6.60332">
        <ele>333.932281</ele>
        <time>2014-02-02T10:09:29Z</time>
      </trkpt>
      <trkpt lat="43.44934" lon="6.60332">
        <ele>334.142853</ele>
        <time>2014-02-02T10:09:36Z</time>
      </trkpt>
      <trkpt lat="43.44936" lon="6.60331">
        <ele>333.793823</ele>
        <time>2014-02-02T10:09:47Z</time>
      </trkpt>
      <trkpt lat="43.44939" lon="6.6033">
        <ele>333.586395</ele>
        <time>2014-02-02T10:10:04Z</time>
      </trkpt>
      <trkpt lat="43.44941" lon="6.60329">
        <ele>332.97345</ele>
        <time>2014-02-02T10:10:09Z</time>
      </trkpt>
      <trkpt lat="43.44942" lon="6.60325">
        <ele>331.407898</ele>
        <time>2014-02-02T10:10:14Z</time>
      </trkpt>
      <trkpt lat="43.44942" lon="6.60323">
        <ele>330.436401</ele>
        <time>2014-02-02T10:10:19Z</time>
      </trkpt>
      <trkpt lat="43.44944" lon="6.60321">
        <ele>329.794098</ele>
        <time>2014-02-02T10:10:24Z</time>
      </trkpt>
      <trkpt lat="43.44947" lon="6.60322">
        <ele>329.462799</ele>
        <time>2014-02-02T10:10:29Z</time>
      </trkpt>
      <trkpt lat="43.44949" lon="6.60326">
        <ele>331.115845</ele>
        <time>2014-02-02T10:10:36Z</time>
      </trkpt>
      <trkpt lat="43.44949" lon="6.60328">
        <ele>332.085449</ele>
        <time>2014-02-02T10:10:43Z</time>
      </trkpt>
      <trkpt lat="43.44949" lon="6.60329">
        <ele>332.623077</ele>
        <time>2014-02-02T10:10:48Z</time>
      </trkpt>
      <trkpt lat="43.44951" lon="6.60327">
        <ele>331.230804</ele>
        <time>2014-02-02T10:10:56Z</time>
      </trkpt>
      <trkpt lat="43.44952" lon="6.60328">
        <ele>331.767761</ele>
        <time>2014-02-02T10:11:05Z</time>
      </trkpt>
      <trkpt lat="43.44955" lon="6.60329">
        <ele>331.294342</ele>
        <time>2014-02-02T10:11:11Z</time>
      </trkpt>
      <trkpt lat="43.44957" lon="6.60327">
        <ele>330.546051</ele>
        <time>2014-02-02T10:11:22Z</time>
      </trkpt>
      <trkpt lat="43.44958" lon="6.60327">
        <ele>330.228607</ele>
        <time>2014-02-02T10:11:29Z</time>
      </trkpt>
      <trkpt lat="43.44959" lon="6.60324">
        <ele>328.699127</ele>
        <time>2014-02-02T10:11:41Z</time>
      </trkpt>
      <trkpt lat="43.44962" lon="6.60319">
        <ele>325.938293</ele>
        <time>2014-02-02T10:11:47Z</time>
      </trkpt>
      <trkpt lat="43.44964" lon="6.60319">
        <ele>325.609192</ele>
        <time>2014-02-02T10:11:53Z</time>
      </trkpt>
      <trkpt lat="43.44966" lon="6.60318">
        <ele>324.7948</ele>
        <time>2014-02-02T10:12:00Z</time>
      </trkpt>
      <trkpt lat="43.4497" lon="6.60319">
        <ele>324.633881</ele>
        <time>2014-02-02T10:12:06Z</time>
      </trkpt>
      <trkpt lat="43.44971" lon="6.60318">
        <ele>324.203094</ele>
        <time>2014-02-02T10:12:08Z</time>
      </trkpt>
      <trkpt lat="43.44971" lon="6.60317">
        <ele>323.362122</ele>
        <time>2014-02-02T10:12:10Z</time>
      </trkpt>
      <trkpt lat="43.44973" lon="6.60313">
        <ele>321.483093</ele>
        <time>2014-02-02T10:12:15Z</time>
      </trkpt>
      <trkpt lat="43.44973" lon="6.60312">
        <ele>321.132172</ele>
        <time>2014-02-02T10:12:24Z</time>
      </trkpt>
      <trkpt lat="43.44973" lon="6.60312">
        <ele>321.132172</ele>
        <time>2014-02-02T10:12:34Z</time>
      </trkpt>
      <trkpt lat="43.44976" lon="6.60311">
        <ele>320.591583</ele>
        <time>2014-02-02T10:12:43Z</time>
      </trkpt>
      <trkpt lat="43.44979" lon="6.60308">
        <ele>319.180298</ele>
        <time>2014-02-02T10:12:49Z</time>
      </trkpt>
      <trkpt lat="43.44981" lon="6.60305">
        <ele>317.710693</ele>
        <time>2014-02-02T10:12:54Z</time>
      </trkpt>
      <trkpt lat="43.44984" lon="6.603">
        <ele>315.011902</ele>
        <time>2014-02-02T10:13:00Z</time>
      </trkpt>
      <trkpt lat="43.44985" lon="6.60296">
        <ele>312.507385</ele>
        <time>2014-02-02T10:13:09Z</time>
      </trkpt>
      <trkpt lat="43.44987" lon="6.60293">
        <ele>311.331238</ele>
        <time>2014-02-02T10:13:15Z</time>
      </trkpt>
      <trkpt lat="43.44988" lon="6.60292">
        <ele>310.831207</ele>
        <time>2014-02-02T10:13:16Z</time>
      </trkpt>
      <trkpt lat="43.44989" lon="6.60289">
        <ele>309.05188</ele>
        <time>2014-02-02T10:13:19Z</time>
      </trkpt>
      <trkpt lat="43.44994" lon="6.60286">
        <ele>307.612793</ele>
        <time>2014-02-02T10:13:26Z</time>
      </trkpt>
      <trkpt lat="43.44996" lon="6.60286">
        <ele>308.189087</ele>
        <time>2014-02-02T10:13:32Z</time>
      </trkpt>
      <trkpt lat="43.44997" lon="6.6029">
        <ele>310.141449</ele>
        <time>2014-02-02T10:13:38Z</time>
      </trkpt>
      <trkpt lat="43.44998" lon="6.60292">
        <ele>311.520599</ele>
        <time>2014-02-02T10:13:42Z</time>
      </trkpt>
      <trkpt lat="43.45002" lon="6.60293">
        <ele>312.130371</ele>
        <time>2014-02-02T10:13:47Z</time>
      </trkpt>
      <trkpt lat="43.45005" lon="6.60293">
        <ele>311.888977</ele>
        <time>2014-02-02T10:13:52Z</time>
      </trkpt>
      <trkpt lat="43.45007" lon="6.60296">
        <ele>313.293793</ele>
        <time>2014-02-02T10:13:58Z</time>
      </trkpt>
      <trkpt lat="43.45009" lon="6.603">
        <ele>315.276825</ele>
        <time>2014-02-02T10:14:06Z</time>
      </trkpt>
      <trkpt lat="43.45012" lon="6.603">
        <ele>315.296143</ele>
        <time>2014-02-02T10:14:11Z</time>
      </trkpt>
      <trkpt lat="43.45012" lon="6.60302">
        <ele>316.318512</ele>
        <time>2014-02-02T10:14:15Z</time>
      </trkpt>
      <trkpt lat="43.45015" lon="6.60304">
        <ele>317.271759</ele>
        <time>2014-02-02T10:14:22Z</time>
      </trkpt>
      <trkpt lat="43.4502" lon="6.60303">
        <ele>316.514496</ele>
        <time>2014-02-02T10:14:30Z</time>
      </trkpt>
      <trkpt lat="43.45022" lon="6.60304">
        <ele>316.779694</ele>
        <time>2014-02-02T10:14:39Z</time>
      </trkpt>
      <trkpt lat="43.45024" lon="6.60307">
        <ele>317.750671</ele>
        <time>2014-02-02T10:14:51Z</time>
      </trkpt>
      <trkpt lat="43.45025" lon="6.6031">
        <ele>318.708527</ele>
        <time>2014-02-02T10:15:01Z</time>
      </trkpt>
      <trkpt lat="43.45026" lon="6.60314">
        <ele>319.722534</ele>
        <time>2014-02-02T10:15:08Z</time>
      </trkpt>
      <trkpt lat="43.45029" lon="6.60316">
        <ele>320.12674</ele>
        <time>2014-02-02T10:15:15Z</time>
      </trkpt>
      <trkpt lat="43.45029" lon="6.6032">
        <ele>321.495667</ele>
        <time>2014-02-02T10:15:25Z</time>
      </trkpt>
      <trkpt lat="43.45027" lon="6.60325">
        <ele>323.236938</ele>
        <time>2014-02-02T10:15:34Z</time>
      </trkpt>
      <trkpt lat="43.45027" lon="6.60325">
        <ele>323.267914</ele>
        <time>2014-02-02T10:15:43Z</time>
      </trkpt>
      <trkpt lat="43.45027" lon="6.60322">
        <ele>322.385132</ele>
        <time>2014-02-02T10:15:49Z</time>
      </trkpt>
      <trkpt lat="43.45029" lon="6.60323">
        <ele>322.180145</ele>
        <time>2014-02-02T10:15:54Z</time>
      </trkpt>
      <trkpt lat="43.45029" lon="6.60319">
        <ele>321.02652</ele>
        <time>2014-02-02T10:16:02Z</time>
      </trkpt>
      <trkpt lat="43.45029" lon="6.60314">
        <ele>319.599792</ele>
        <time>2014-02-02T10:16:08Z</time>
      </trkpt>
      <trkpt lat="43.45029" lon="6.60313">
        <ele>319.187195</ele>
        <time>2014-02-02T10:16:10Z</time>
      </trkpt>
      <trkpt lat="43.45029" lon="6.60309">
        <ele>317.708313</ele>
        <time>2014-02-02T10:16:14Z</time>
      </trkpt>
      <trkpt lat="43.45032" lon="6.60304">
        <ele>315.536804</ele>
        <time>2014-02-02T10:16:19Z</time>
      </trkpt>
      <trkpt lat="43.45035" lon="6.60302">
        <ele>314.252472</ele>
        <time>2014-02-02T10:16:23Z</time>
      </trkpt>
      <trkpt lat="43.45037" lon="6.60303">
        <ele>314.224731</ele>
        <time>2014-02-02T10:16:29Z</time>
      </trkpt>
      <trkpt lat="43.45039" lon="6.60305">
        <ele>314.655121</ele>
        <time>2014-02-02T10:16:34Z</time>
      </trkpt>
      <trkpt lat="43.45042" lon="6.60295">
        <ele>310.513947</ele>
        <time>2014-02-02T10:16:46Z</time>
      </trkpt>
      <trkpt lat="43.45043" lon="6.60293">
        <ele>309.40036</ele>
        <time>2014-02-02T10:16:52Z</time>
      </trkpt>
      <trkpt lat="43.45045" lon="6.60291">
        <ele>308.268066</ele>
        <time>2014-02-02T10:17:03Z</time>
      </trkpt>
      <trkpt lat="43.45048" lon="6.6029">
        <ele>307.631348</ele>
        <time>2014-02-02T10:17:09Z</time>
      </trkpt>
      <trkpt lat="43.4505" lon="6.60283">
        <ele>304.902466</ele>
        <time>2014-02-02T10:17:16Z</time>
      </trkpt>
      <trkpt lat="43.45052" lon="6.60281">
        <ele>304.316315</ele>
        <time>2014-02-02T10:17:20Z</time>
      </trkpt>
      <trkpt lat="43.45053" lon="6.6028">
        <ele>303.672485</ele>
        <time>2014-02-02T10:17:27Z</time>
      </trkpt>
      <trkpt lat="43.45055" lon="6.60282">
        <ele>304.419128</ele>
        <time>2014-02-02T10:17:49Z</time>
      </trkpt>
      <trkpt lat="43.45056" lon="6.60282">
        <ele>304.128448</ele>
        <time>2014-02-02T10:17:51Z</time>
      </trkpt>
      <trkpt lat="43.45061" lon="6.6028">
        <ele>302.714142</ele>
        <time>2014-02-02T10:17:58Z</time>
      </trkpt>
      <trkpt lat="43.45065" lon="6.60281">
        <ele>302.219055</ele>
        <time>2014-02-02T10:18:05Z</time>
      </trkpt>
      <trkpt lat="43.45068" lon="6.60281">
        <ele>301.590179</ele>
        <time>2014-02-02T10:18:11Z</time>
      </trkpt>
      <trkpt lat="43.45075" lon="6.60272">
        <ele>298.610718</ele>
        <time>2014-02-02T10:19:02Z</time>
      </trkpt>
      <trkpt lat="43.45073" lon="6.60272">
        <ele>298.916992</ele>
        <time>2014-02-02T10:19:09Z</time>
      </trkpt>
      <trkpt lat="43.4507" lon="6.60268">
        <ele>298.753174</ele>
        <time>2014-02-02T10:19:21Z</time>
      </trkpt>
      <trkpt lat="43.45068" lon="6.60266">
        <ele>298.495178</ele>
        <time>2014-02-02T10:19:26Z</time>
      </trkpt>
      <trkpt lat="43.45065" lon="6.60261">
        <ele>297.905487</ele>
        <time>2014-02-02T10:19:37Z</time>
      </trkpt>
      <trkpt lat="43.45064" lon="6.60258">
        <ele>297.320282</ele>
        <time>2014-02-02T10:19:42Z</time>
      </trkpt>
      <trkpt lat="43.45063" lon="6.60254">
        <ele>296.62561</ele>
        <time>2014-02-02T10:19:50Z</time>
      </trkpt>
      <trkpt lat="43.45064" lon="6.60252">
        <ele>296.162262</ele>
        <time>2014-02-02T10:19:55Z</time>
      </trkpt>
      <trkpt lat="43.45061" lon="6.60247">
        <ele>294.579407</ele>
        <time>2014-02-02T10:20:02Z</time>
      </trkpt>
      <trkpt lat="43.45061" lon="6.60243">
        <ele>293.039734</ele>
        <time>2014-02-02T10:20:07Z</time>
      </trkpt>
      <trkpt lat="43.4506" lon="6.60237">
        <ele>290.667999</ele>
        <time>2014-02-02T10:20:12Z</time>
      </trkpt>
      <trkpt lat="43.45059" lon="6.60233">
        <ele>289.171722</ele>
        <time>2014-02-02T10:20:15Z</time>
      </trkpt>
      <trkpt lat="43.45057" lon="6.60229">
        <ele>287.243103</ele>
        <time>2014-02-02T10:20:21Z</time>
      </trkpt>
      <trkpt lat="43.45057" lon="6.60228">
        <ele>286.84436</ele>
        <time>2014-02-02T10:20:22Z</time>
      </trkpt>
      <trkpt lat="43.45057" lon="6.60224">
        <ele>285.003326</ele>
        <time>2014-02-02T10:20:29Z</time>
      </trkpt>
      <trkpt lat="43.45058" lon="6.60221">
        <ele>284.442139</ele>
        <time>2014-02-02T10:20:45Z</time>
      </trkpt>
      <trkpt lat="43.45058" lon="6.60218">
        <ele>283.34729</ele>
        <time>2014-02-02T10:20:51Z</time>
      </trkpt>
      <trkpt lat="43.45058" lon="6.60214">
        <ele>282.45401</ele>
        <time>2014-02-02T10:20:56Z</time>
      </trkpt>
      <trkpt lat="43.45057" lon="6.60207">
        <ele>280.652405</ele>
        <time>2014-02-02T10:21:03Z</time>
      </trkpt>
      <trkpt lat="43.45057" lon="6.60203">
        <ele>279.518127</ele>
        <time>2014-02-02T10:21:08Z</time>
      </trkpt>
      <trkpt lat="43.45057" lon="6.60199">
        <ele>278.422455</ele>
        <time>2014-02-02T10:21:15Z</time>
      </trkpt>
      <trkpt lat="43.45057" lon="6.60198">
        <ele>278.090668</ele>
        <time>2014-02-02T10:21:16Z</time>
      </trkpt>
      <trkpt lat="43.45054" lon="6.60196">
        <ele>277.296875</ele>
        <time>2014-02-02T10:21:19Z</time>
      </trkpt>
      <trkpt lat="43.45054" lon="6.60193">
        <ele>276.807251</ele>
        <time>2014-02-02T10:21:22Z</time>
      </trkpt>
      <trkpt lat="43.45056" lon="6.60185">
        <ele>276.505554</ele>
        <time>2014-02-02T10:21:28Z</time>
      </trkpt>
      <trkpt lat="43.45056" lon="6.60181">
        <ele>276.079437</ele>
        <time>2014-02-02T10:21:35Z</time>
      </trkpt>
      <trkpt lat="43.45057" lon="6.60177">
        <ele>276.012939</ele>
        <time>2014-02-02T10:21:40Z</time>
      </trkpt>
      <trkpt lat="43.45055" lon="6.60176">
        <ele>275.598022</ele>
        <time>2014-02-02T10:21:44Z</time>
      </trkpt>
      <trkpt lat="43.45053" lon="6.6017">
        <ele>274.962677</ele>
        <time>2014-02-02T10:21:51Z</time>
      </trkpt>
      <trkpt lat="43.45052" lon="6.60169">
        <ele>274.81427</ele>
        <time>2014-02-02T10:21:52Z</time>
      </trkpt>
      <trkpt lat="43.45052" lon="6.60166">
        <ele>274.437927</ele>
        <time>2014-02-02T10:21:55Z</time>
      </trkpt>
      <trkpt lat="43.45052" lon="6.60162">
        <ele>273.827148</ele>
        <time>2014-02-02T10:21:58Z</time>
      </trkpt>
      <trkpt lat="43.45054" lon="6.60158">
        <ele>273.549194</ele>
        <time>2014-02-02T10:22:04Z</time>
      </trkpt>
      <trkpt lat="43.45057" lon="6.60155">
        <ele>273.763489</ele>
        <time>2014-02-02T10:22:10Z</time>
      </trkpt>
      <trkpt lat="43.45058" lon="6.60154">
        <ele>273.678986</ele>
        <time>2014-02-02T10:22:20Z</time>
      </trkpt>
      <trkpt lat="43.45058" lon="6.60149">
        <ele>273.177429</ele>
        <time>2014-02-02T10:22:47Z</time>
      </trkpt>
      <trkpt lat="43.45057" lon="6.60149">
        <ele>272.865845</ele>
        <time>2014-02-02T10:22:56Z</time>
      </trkpt>
      <trkpt lat="43.45054" lon="6.60148">
        <ele>272.032654</ele>
        <time>2014-02-02T10:23:49Z</time>
      </trkpt>
      <trkpt lat="43.45056" lon="6.60144">
        <ele>271.821838</ele>
        <time>2014-02-02T10:24:06Z</time>
      </trkpt>
      <trkpt lat="43.45055" lon="6.60139">
        <ele>270.894287</ele>
        <time>2014-02-02T10:24:14Z</time>
      </trkpt>
      <trkpt lat="43.45055" lon="6.60137">
        <ele>270.660828</ele>
        <time>2014-02-02T10:24:17Z</time>
      </trkpt>
      <trkpt lat="43.45056" lon="6.60131">
        <ele>269.975098</ele>
        <time>2014-02-02T10:24:23Z</time>
      </trkpt>
      <trkpt lat="43.45057" lon="6.60129">
        <ele>270.019012</ele>
        <time>2014-02-02T10:24:33Z</time>
      </trkpt>
      <trkpt lat="43.45058" lon="6.60126">
        <ele>270.003845</ele>
        <time>2014-02-02T10:24:39Z</time>
      </trkpt>
      <trkpt lat="43.45059" lon="6.60124">
        <ele>269.989777</ele>
        <time>2014-02-02T10:24:46Z</time>
      </trkpt>
      <trkpt lat="43.4506" lon="6.60123">
        <ele>270.109222</ele>
        <time>2014-02-02T10:24:53Z</time>
      </trkpt>
      <trkpt lat="43.45062" lon="6.60123">
        <ele>270.830414</ele>
        <time>2014-02-02T10:25:01Z</time>
      </trkpt>
      <trkpt lat="43.45063" lon="6.60121">
        <ele>271.083862</ele>
        <time>2014-02-02T10:25:10Z</time>
      </trkpt>
      <trkpt lat="43.45065" lon="6.60116">
        <ele>271.046448</ele>
        <time>2014-02-02T10:25:16Z</time>
      </trkpt>
      <trkpt lat="43.45068" lon="6.60111">
        <ele>271.63913</ele>
        <time>2014-02-02T10:25:22Z</time>
      </trkpt>
      <trkpt lat="43.4507" lon="6.60109">
        <ele>272.030365</ele>
        <time>2014-02-02T10:25:25Z</time>
      </trkpt>
      <trkpt lat="43.45071" lon="6.60104">
        <ele>272.059845</ele>
        <time>2014-02-02T10:25:30Z</time>
      </trkpt>
      <trkpt lat="43.4507" lon="6.60103">
        <ele>271.850861</ele>
        <time>2014-02-02T10:25:31Z</time>
      </trkpt>
      <trkpt lat="43.45073" lon="6.60101">
        <ele>272.884644</ele>
        <time>2014-02-02T10:25:37Z</time>
      </trkpt>
      <trkpt lat="43.45078" lon="6.60101">
        <ele>274.767273</ele>
        <time>2014-02-02T10:25:43Z</time>
      </trkpt>
      <trkpt lat="43.45081" lon="6.60102">
        <ele>275.777069</ele>
        <time>2014-02-02T10:25:46Z</time>
      </trkpt>
      <trkpt lat="43.45086" lon="6.60101">
        <ele>277.953888</ele>
        <time>2014-02-02T10:25:52Z</time>
      </trkpt>
      <trkpt lat="43.45086" lon="6.601">
        <ele>278.122192</ele>
        <time>2014-02-02T10:25:53Z</time>
      </trkpt>
      <trkpt lat="43.45086" lon="6.60101">
        <ele>277.762756</ele>
        <time>2014-02-02T10:25:55Z</time>
      </trkpt>
      <trkpt lat="43.45088" lon="6.60101">
        <ele>278.965637</ele>
        <time>2014-02-02T10:25:57Z</time>
      </trkpt>
      <trkpt lat="43.45093" lon="6.60098">
        <ele>281.44577</ele>
        <time>2014-02-02T10:26:02Z</time>
      </trkpt>
      <trkpt lat="43.45095" lon="6.60098">
        <ele>282.647186</ele>
        <time>2014-02-02T10:26:05Z</time>
      </trkpt>
      <trkpt lat="43.45095" lon="6.60101">
        <ele>282.904785</ele>
        <time>2014-02-02T10:26:09Z</time>
      </trkpt>
      <trkpt lat="43.45095" lon="6.60103">
        <ele>282.934814</ele>
        <time>2014-02-02T10:26:10Z</time>
      </trkpt>
      <trkpt lat="43.45098" lon="6.60107">
        <ele>284.37207</ele>
        <time>2014-02-02T10:26:15Z</time>
      </trkpt>
      <trkpt lat="43.45099" lon="6.60105">
        <ele>284.933685</ele>
        <time>2014-02-02T10:26:18Z</time>
      </trkpt>
      <trkpt lat="43.45104" lon="6.60099">
        <ele>287.223053</ele>
        <time>2014-02-02T10:26:24Z</time>
      </trkpt>
      <trkpt lat="43.45106" lon="6.60095">
        <ele>288.183441</ele>
        <time>2014-02-02T10:26:29Z</time>
      </trkpt>
      <trkpt lat="43.45108" lon="6.60095">
        <ele>289.382324</ele>
        <time>2014-02-02T10:26:32Z</time>
      </trkpt>
      <trkpt lat="43.45116" lon="6.60099">
        <ele>292.322205</ele>
        <time>2014-02-02T10:26:40Z</time>
      </trkpt>
      <trkpt lat="43.45119" lon="6.60097">
        <ele>293.26123</ele>
        <time>2014-02-02T10:26:47Z</time>
      </trkpt>
      <trkpt lat="43.45122" lon="6.60094">
        <ele>293.914185</ele>
        <time>2014-02-02T10:26:56Z</time>
      </trkpt>
      <trkpt lat="43.45124" lon="6.60091">
        <ele>294.487915</ele>
        <time>2014-02-02T10:27:02Z</time>
      </trkpt>
      <trkpt lat="43.45124" lon="6.60089">
        <ele>294.73764</ele>
        <time>2014-02-02T10:27:09Z</time>
      </trkpt>
      <trkpt lat="43.45126" lon="6.60086">
        <ele>295.342316</ele>
        <time>2014-02-02T10:27:15Z</time>
      </trkpt>
      <trkpt lat="43.45134" lon="6.60084">
        <ele>297.661987</ele>
        <time>2014-02-02T10:27:26Z</time>
      </trkpt>
      <trkpt lat="43.4514" lon="6.60082">
        <ele>299.082031</ele>
        <time>2014-02-02T10:27:35Z</time>
      </trkpt>
      <trkpt lat="43.45145" lon="6.60079">
        <ele>299.325623</ele>
        <time>2014-02-02T10:27:42Z</time>
      </trkpt>
      <trkpt lat="43.4515" lon="6.60083">
        <ele>299.412323</ele>
        <time>2014-02-02T10:27:56Z</time>
      </trkpt>
      <trkpt lat="43.45158" lon="6.60086">
        <ele>299.63858</ele>
        <time>2014-02-02T10:28:08Z</time>
      </trkpt>
      <trkpt lat="43.45163" lon="6.60088">
        <ele>299.843323</ele>
        <time>2014-02-02T10:28:19Z</time>
      </trkpt>
      <trkpt lat="43.45167" lon="6.60093">
        <ele>299.821838</ele>
        <time>2014-02-02T10:28:35Z</time>
      </trkpt>
      <trkpt lat="43.45171" lon="6.60095">
        <ele>298.547852</ele>
        <time>2014-02-02T10:28:40Z</time>
      </trkpt>
      <trkpt lat="43.45173" lon="6.601">
        <ele>297.586151</ele>
        <time>2014-02-02T10:28:48Z</time>
      </trkpt>
      <trkpt lat="43.45184" lon="6.60102">
        <ele>293.120056</ele>
        <time>2014-02-02T10:29:10Z</time>
      </trkpt>
      <trkpt lat="43.45194" lon="6.60111">
        <ele>288.313599</ele>
        <time>2014-02-02T10:29:41Z</time>
      </trkpt>
      <trkpt lat="43.45198" lon="6.60111">
        <ele>285.556183</ele>
        <time>2014-02-02T10:29:48Z</time>
      </trkpt>
      <trkpt lat="43.45202" lon="6.60115">
        <ele>282.736969</ele>
        <time>2014-02-02T10:29:58Z</time>
      </trkpt>
      <trkpt lat="43.45205" lon="6.60122">
        <ele>279.979065</ele>
        <time>2014-02-02T10:30:17Z</time>
      </trkpt>
      <trkpt lat="43.45205" lon="6.60125">
        <ele>279.709808</ele>
        <time>2014-02-02T10:30:22Z</time>
      </trkpt>
      <trkpt lat="43.45205" lon="6.60131">
        <ele>279.230774</ele>
        <time>2014-02-02T10:30:26Z</time>
      </trkpt>
      <trkpt lat="43.45206" lon="6.60138">
        <ele>277.236542</ele>
        <time>2014-02-02T10:30:36Z</time>
      </trkpt>
      <trkpt lat="43.45207" lon="6.60143">
        <ele>276.400055</ele>
        <time>2014-02-02T10:30:43Z</time>
      </trkpt>
      <trkpt lat="43.45212" lon="6.60144">
        <ele>273.410461</ele>
        <time>2014-02-02T10:30:55Z</time>
      </trkpt>
      <trkpt lat="43.45222" lon="6.60148">
        <ele>266.942535</ele>
        <time>2014-02-02T10:31:18Z</time>
      </trkpt>
      <trkpt lat="43.45224" lon="6.60147">
        <ele>266.146729</ele>
        <time>2014-02-02T10:31:26Z</time>
      </trkpt>
      <trkpt lat="43.45229" lon="6.60152">
        <ele>263.573853</ele>
        <time>2014-02-02T10:31:33Z</time>
      </trkpt>
      <trkpt lat="43.45235" lon="6.60153">
        <ele>260.701263</ele>
        <time>2014-02-02T10:31:50Z</time>
      </trkpt>
      <trkpt lat="43.45237" lon="6.60155">
        <ele>259.657043</ele>
        <time>2014-02-02T10:31:57Z</time>
      </trkpt>
      <trkpt lat="43.4524" lon="6.60157">
        <ele>258.159302</ele>
        <time>2014-02-02T10:32:04Z</time>
      </trkpt>
      <trkpt lat="43.45244" lon="6.60156">
        <ele>256.507751</ele>
        <time>2014-02-02T10:32:11Z</time>
      </trkpt>
      <trkpt lat="43.45245" lon="6.60154">
        <ele>255.976486</ele>
        <time>2014-02-02T10:32:27Z</time>
      </trkpt>
      <trkpt lat="43.45248" lon="6.60155">
        <ele>254.733566</ele>
        <time>2014-02-02T10:32:44Z</time>
      </trkpt>
      <trkpt lat="43.45252" lon="6.60153">
        <ele>252.602432</ele>
        <time>2014-02-02T10:32:49Z</time>
      </trkpt>
      <trkpt lat="43.45262" lon="6.60151">
        <ele>246.634628</ele>
        <time>2014-02-02T10:33:12Z</time>
      </trkpt>
      <trkpt lat="43.45266" lon="6.60143">
        <ele>244.285767</ele>
        <time>2014-02-02T10:33:25Z</time>
      </trkpt>
      <trkpt lat="43.45271" lon="6.6014">
        <ele>241.432877</ele>
        <time>2014-02-02T10:33:33Z</time>
      </trkpt>
      <trkpt lat="43.45274" lon="6.60135">
        <ele>239.734299</ele>
        <time>2014-02-02T10:33:44Z</time>
      </trkpt>
      <trkpt lat="43.45282" lon="6.60127">
        <ele>234.058563</ele>
        <time>2014-02-02T10:34:25Z</time>
      </trkpt>
      <trkpt lat="43.45288" lon="6.60124">
        <ele>229.755615</ele>
        <time>2014-02-02T10:34:34Z</time>
      </trkpt>
      <trkpt lat="43.45298" lon="6.60129">
        <ele>222.634369</ele>
        <time>2014-02-02T10:34:50Z</time>
      </trkpt>
      <trkpt lat="43.45298" lon="6.60135">
        <ele>222.792282</ele>
        <time>2014-02-02T10:35:03Z</time>
      </trkpt>
      <trkpt lat="43.45311" lon="6.60139">
        <ele>215.304443</ele>
        <time>2014-02-02T10:35:30Z</time>
      </trkpt>
      <trkpt lat="43.45314" lon="6.60138">
        <ele>213.961517</ele>
        <time>2014-02-02T10:35:36Z</time>
      </trkpt>
      <trkpt lat="43.45314" lon="6.60135">
        <ele>213.834396</ele>
        <time>2014-02-02T10:35:38Z</time>
      </trkpt>
      <trkpt lat="43.45317" lon="6.60133">
        <ele>212.014999</ele>
        <time>2014-02-02T10:35:42Z</time>
      </trkpt>
      <trkpt lat="43.45318" lon="6.60137">
        <ele>211.934525</ele>
        <time>2014-02-02T10:35:48Z</time>
      </trkpt>
      <trkpt lat="43.45321" lon="6.60143">
        <ele>210.869888</ele>
        <time>2014-02-02T10:35:53Z</time>
      </trkpt>
      <trkpt lat="43.45325" lon="6.60145">
        <ele>209.209686</ele>
        <time>2014-02-02T10:36:00Z</time>
      </trkpt>
      <trkpt lat="43.45324" lon="6.60139">
        <ele>209.241776</ele>
        <time>2014-02-02T10:36:09Z</time>
      </trkpt>
      <trkpt lat="43.45333" lon="6.60136">
        <ele>204.644196</ele>
        <time>2014-02-02T10:36:16Z</time>
      </trkpt>
      <trkpt lat="43.45338" lon="6.60138">
        <ele>202.546188</ele>
        <time>2014-02-02T10:36:20Z</time>
      </trkpt>
      <trkpt lat="43.45344" lon="6.60137">
        <ele>199.259201</ele>
        <time>2014-02-02T10:36:38Z</time>
      </trkpt>
      <trkpt lat="43.45344" lon="6.60149">
        <ele>199.749802</ele>
        <time>2014-02-02T10:37:02Z</time>
      </trkpt>
      <trkpt lat="43.45347" lon="6.60152">
        <ele>198.197601</ele>
        <time>2014-02-02T10:37:12Z</time>
      </trkpt>
      <trkpt lat="43.45354" lon="6.60155">
        <ele>194.504593</ele>
        <time>2014-02-02T10:37:45Z</time>
      </trkpt>
      <trkpt lat="43.45357" lon="6.60152">
        <ele>192.889175</ele>
        <time>2014-02-02T10:37:51Z</time>
      </trkpt>
      <trkpt lat="43.45368" lon="6.60149">
        <ele>186.61673</ele>
        <time>2014-02-02T10:38:14Z</time>
      </trkpt>
      <trkpt lat="43.45373" lon="6.60149">
        <ele>184.182846</ele>
        <time>2014-02-02T10:38:19Z</time>
      </trkpt>
      <trkpt lat="43.45378" lon="6.60149">
        <ele>181.150757</ele>
        <time>2014-02-02T10:38:25Z</time>
      </trkpt>
      <trkpt lat="43.4538" lon="6.6015">
        <ele>180.528473</ele>
        <time>2014-02-02T10:38:30Z</time>
      </trkpt>
      <trkpt lat="43.45378" lon="6.60156">
        <ele>181.087692</ele>
        <time>2014-02-02T10:38:36Z</time>
      </trkpt>
      <trkpt lat="43.45385" lon="6.6016">
        <ele>177.414093</ele>
        <time>2014-02-02T10:38:51Z</time>
      </trkpt>
      <trkpt lat="43.45385" lon="6.60162">
        <ele>177.149338</ele>
        <time>2014-02-02T10:39:06Z</time>
      </trkpt>
      <trkpt lat="43.4539" lon="6.60162">
        <ele>174.425079</ele>
        <time>2014-02-02T10:39:13Z</time>
      </trkpt>
      <trkpt lat="43.45394" lon="6.60161">
        <ele>172.468781</ele>
        <time>2014-02-02T10:39:18Z</time>
      </trkpt>
      <trkpt lat="43.45395" lon="6.60162">
        <ele>172.196426</ele>
        <time>2014-02-02T10:39:30Z</time>
      </trkpt>
      <trkpt lat="43.45399" lon="6.60163">
        <ele>169.508667</ele>
        <time>2014-02-02T10:39:37Z</time>
      </trkpt>
      <trkpt lat="43.45401" lon="6.6016">
        <ele>168.701675</ele>
        <time>2014-02-02T10:39:43Z</time>
      </trkpt>
      <trkpt lat="43.45406" lon="6.60157">
        <ele>166.336563</ele>
        <time>2014-02-02T10:39:49Z</time>
      </trkpt>
      <trkpt lat="43.45408" lon="6.60158">
        <ele>165.488708</ele>
        <time>2014-02-02T10:39:50Z</time>
      </trkpt>
      <trkpt lat="43.4541" lon="6.60161">
        <ele>164.052048</ele>
        <time>2014-02-02T10:39:57Z</time>
      </trkpt>
      <trkpt lat="43.45415" lon="6.60151">
        <ele>162.235657</ele>
        <time>2014-02-02T10:40:20Z</time>
      </trkpt>
      <trkpt lat="43.45419" lon="6.6015">
        <ele>161.290421</ele>
        <time>2014-02-02T10:40:25Z</time>
      </trkpt>
      <trkpt lat="43.45422" lon="6.60151">
        <ele>160.211426</ele>
        <time>2014-02-02T10:40:31Z</time>
      </trkpt>
      <trkpt lat="43.45422" lon="6.60152">
        <ele>160.274551</ele>
        <time>2014-02-02T10:40:32Z</time>
      </trkpt>
      <trkpt lat="43.45425" lon="6.6015">
        <ele>159.414322</ele>
        <time>2014-02-02T10:40:38Z</time>
      </trkpt>
      <trkpt lat="43.45426" lon="6.60155">
        <ele>158.873077</ele>
        <time>2014-02-02T10:40:49Z</time>
      </trkpt>
      <trkpt lat="43.45425" lon="6.6016">
        <ele>158.588226</ele>
        <time>2014-02-02T10:40:55Z</time>
      </trkpt>
      <trkpt lat="43.45426" lon="6.60164">
        <ele>158.198929</ele>
        <time>2014-02-02T10:41:01Z</time>
      </trkpt>
      <trkpt lat="43.45428" lon="6.60164">
        <ele>157.67749</ele>
        <time>2014-02-02T10:41:06Z</time>
      </trkpt>
      <trkpt lat="43.45435" lon="6.60169">
        <ele>156.133759</ele>
        <time>2014-02-02T10:41:38Z</time>
      </trkpt>
      <trkpt lat="43.45441" lon="6.60173">
        <ele>155.024811</ele>
        <time>2014-02-02T10:41:52Z</time>
      </trkpt>
      <trkpt lat="43.45445" lon="6.60174">
        <ele>154.088196</ele>
        <time>2014-02-02T10:42:02Z</time>
      </trkpt>
      <trkpt lat="43.45447" lon="6.60177">
        <ele>153.454773</ele>
        <time>2014-02-02T10:42:09Z</time>
      </trkpt>
      <trkpt lat="43.45448" lon="6.60181">
        <ele>152.987854</ele>
        <time>2014-02-02T10:42:44Z</time>
      </trkpt>
      <trkpt lat="43.45448" lon="6.60176">
        <ele>153.102859</ele>
        <time>2014-02-02T10:43:07Z</time>
      </trkpt>
      <trkpt lat="43.45442" lon="6.60172">
        <ele>154.683212</ele>
        <time>2014-02-02T10:43:13Z</time>
      </trkpt>
      <trkpt lat="43.4544" lon="6.60171">
        <ele>155.035126</ele>
        <time>2014-02-02T10:43:17Z</time>
      </trkpt>
      <trkpt lat="43.45441" lon="6.60166">
        <ele>154.747421</ele>
        <time>2014-02-02T10:43:22Z</time>
      </trkpt>
      <trkpt lat="43.4544" lon="6.60163">
        <ele>155.137695</ele>
        <time>2014-02-02T10:43:32Z</time>
      </trkpt>
      <trkpt lat="43.45439" lon="6.60158">
        <ele>155.415344</ele>
        <time>2014-02-02T10:43:38Z</time>
      </trkpt>
      <trkpt lat="43.45439" lon="6.60154">
        <ele>155.40274</ele>
        <time>2014-02-02T10:43:48Z</time>
      </trkpt>
      <trkpt lat="43.4544" lon="6.60151">
        <ele>155.146606</ele>
        <time>2014-02-02T10:43:53Z</time>
      </trkpt>
      <trkpt lat="43.45443" lon="6.60146">
        <ele>154.554276</ele>
        <time>2014-02-02T10:43:59Z</time>
      </trkpt>
      <trkpt lat="43.45447" lon="6.60144">
        <ele>152.845016</ele>
        <time>2014-02-02T10:44:08Z</time>
      </trkpt>
      <trkpt lat="43.45448" lon="6.60143">
        <ele>152.680222</ele>
        <time>2014-02-02T10:44:10Z</time>
      </trkpt>
      <trkpt lat="43.45448" lon="6.60142">
        <ele>152.673904</ele>
        <time>2014-02-02T10:44:16Z</time>
      </trkpt>
      <trkpt lat="43.45446" lon="6.60141">
        <ele>153.489517</ele>
        <time>2014-02-02T10:44:25Z</time>
      </trkpt>
      <trkpt lat="43.45445" lon="6.60143">
        <ele>153.818268</ele>
        <time>2014-02-02T10:44:34Z</time>
      </trkpt>
      <trkpt lat="43.45448" lon="6.60139">
        <ele>152.499115</ele>
        <time>2014-02-02T10:44:38Z</time>
      </trkpt>
      <trkpt lat="43.45449" lon="6.60136">
        <ele>152.121704</ele>
        <time>2014-02-02T10:44:41Z</time>
      </trkpt>
      <trkpt lat="43.45453" lon="6.60131">
        <ele>150.640274</ele>
        <time>2014-02-02T10:44:47Z</time>
      </trkpt>
      <trkpt lat="43.45455" lon="6.60127">
        <ele>149.963928</ele>
        <time>2014-02-02T10:44:51Z</time>
      </trkpt>
      <trkpt lat="43.45454" lon="6.60118">
        <ele>150.602509</ele>
        <time>2014-02-02T10:44:57Z</time>
      </trkpt>
      <trkpt lat="43.45454" lon="6.60117">
        <ele>150.652283</ele>
        <time>2014-02-02T10:44:58Z</time>
      </trkpt>
      <trkpt lat="43.45458" lon="6.6011">
        <ele>149.292953</ele>
        <time>2014-02-02T10:45:04Z</time>
      </trkpt>
      <trkpt lat="43.45459" lon="6.60107">
        <ele>148.955078</ele>
        <time>2014-02-02T10:45:06Z</time>
      </trkpt>
      <trkpt lat="43.45461" lon="6.601">
        <ele>148.39534</ele>
        <time>2014-02-02T10:45:13Z</time>
      </trkpt>
      <trkpt lat="43.45462" lon="6.60094">
        <ele>148.220551</ele>
        <time>2014-02-02T10:45:18Z</time>
      </trkpt>
      <trkpt lat="43.45463" lon="6.60091">
        <ele>148.143082</ele>
        <time>2014-02-02T10:45:24Z</time>
      </trkpt>
      <trkpt lat="43.45461" lon="6.60086">
        <ele>149.192001</ele>
        <time>2014-02-02T10:45:30Z</time>
      </trkpt>
      <trkpt lat="43.45461" lon="6.60086">
        <ele>149.338821</ele>
        <time>2014-02-02T10:45:32Z</time>
      </trkpt>
      <trkpt lat="43.4546" lon="6.60083">
        <ele>149.885849</ele>
        <time>2014-02-02T10:45:37Z</time>
      </trkpt>
      <trkpt lat="43.4546" lon="6.60081">
        <ele>150.188919</ele>
        <time>2014-02-02T10:45:39Z</time>
      </trkpt>
      <trkpt lat="43.45457" lon="6.60079">
        <ele>151.625992</ele>
        <time>2014-02-02T10:45:47Z</time>
      </trkpt>
      <trkpt lat="43.45453" lon="6.6008">
        <ele>152.91716</ele>
        <time>2014-02-02T10:46:04Z</time>
      </trkpt>
      <trkpt lat="43.45452" lon="6.60077">
        <ele>153.66333</ele>
        <time>2014-02-02T10:46:08Z</time>
      </trkpt>
      <trkpt lat="43.45452" lon="6.60073">
        <ele>154.130127</ele>
        <time>2014-02-02T10:46:14Z</time>
      </trkpt>
      <trkpt lat="43.4545" lon="6.60069">
        <ele>155.467651</ele>
        <time>2014-02-02T10:46:20Z</time>
      </trkpt>
      <trkpt lat="43.45449" lon="6.60066">
        <ele>156.201721</ele>
        <time>2014-02-02T10:46:24Z</time>
      </trkpt>
      <trkpt lat="43.45448" lon="6.6006">
        <ele>157.132813</ele>
        <time>2014-02-02T10:46:32Z</time>
      </trkpt>
      <trkpt lat="43.45449" lon="6.60053">
        <ele>157.763855</ele>
        <time>2014-02-02T10:46:43Z</time>
      </trkpt>
      <trkpt lat="43.4545" lon="6.6005">
        <ele>157.667725</ele>
        <time>2014-02-02T10:46:48Z</time>
      </trkpt>
      <trkpt lat="43.45451" lon="6.60046">
        <ele>157.846252</ele>
        <time>2014-02-02T10:46:56Z</time>
      </trkpt>
      <trkpt lat="43.45453" lon="6.60038">
        <ele>158.35437</ele>
        <time>2014-02-02T10:47:13Z</time>
      </trkpt>
      <trkpt lat="43.45459" lon="6.60034">
        <ele>156.898682</ele>
        <time>2014-02-02T10:47:19Z</time>
      </trkpt>
      <trkpt lat="43.4546" lon="6.60033">
        <ele>156.644623</ele>
        <time>2014-02-02T10:47:28Z</time>
      </trkpt>
      <trkpt lat="43.45462" lon="6.60033">
        <ele>156.026642</ele>
        <time>2014-02-02T10:47:40Z</time>
      </trkpt>
      <trkpt lat="43.45466" lon="6.60032">
        <ele>154.687683</ele>
        <time>2014-02-02T10:47:46Z</time>
      </trkpt>
      <trkpt lat="43.45464" lon="6.60032">
        <ele>155.305664</ele>
        <time>2014-02-02T10:47:51Z</time>
      </trkpt>
      <trkpt lat="43.45462" lon="6.60034">
        <ele>155.587189</ele>
        <time>2014-02-02T10:48:14Z</time>
      </trkpt>
      <trkpt lat="43.45467" lon="6.60032">
        <ele>154.481689</ele>
        <time>2014-02-02T10:48:19Z</time>
      </trkpt>
      <trkpt lat="43.45471" lon="6.60031">
        <ele>153.032867</ele>
        <time>2014-02-02T10:48:24Z</time>
      </trkpt>
      <trkpt lat="43.45473" lon="6.60025">
        <ele>152.853104</ele>
        <time>2014-02-02T10:48:35Z</time>
      </trkpt>
      <trkpt lat="43.45475" lon="6.60022">
        <ele>152.702042</ele>
        <time>2014-02-02T10:48:41Z</time>
      </trkpt>
      <trkpt lat="43.45478" lon="6.60019">
        <ele>151.840302</ele>
        <time>2014-02-02T10:48:51Z</time>
      </trkpt>
      <trkpt lat="43.45491" lon="6.60014">
        <ele>148.671432</ele>
        <time>2014-02-02T10:49:08Z</time>
      </trkpt>
      <trkpt lat="43.45497" lon="6.60016">
        <ele>146.673294</ele>
        <time>2014-02-02T10:49:14Z</time>
      </trkpt>
      <trkpt lat="43.45499" lon="6.60013">
        <ele>146.223541</ele>
        <time>2014-02-02T10:49:19Z</time>
      </trkpt>
      <trkpt lat="43.45505" lon="6.60012">
        <ele>143.834061</ele>
        <time>2014-02-02T10:49:25Z</time>
      </trkpt>
      <trkpt lat="43.4551" lon="6.60013">
        <ele>141.52124</ele>
        <time>2014-02-02T10:49:34Z</time>
      </trkpt>
      <trkpt lat="43.45513" lon="6.60015">
        <ele>140.019424</ele>
        <time>2014-02-02T10:49:38Z</time>
      </trkpt>
      <trkpt lat="43.45517" lon="6.60017">
        <ele>138.079773</ele>
        <time>2014-02-02T10:49:44Z</time>
      </trkpt>
      <trkpt lat="43.45523" lon="6.60014">
        <ele>135.634781</ele>
        <time>2014-02-02T10:49:51Z</time>
      </trkpt>
      <trkpt lat="43.45526" lon="6.60008">
        <ele>135.066757</ele>
        <time>2014-02-02T10:49:58Z</time>
      </trkpt>
      <trkpt lat="43.45528" lon="6.60004">
        <ele>134.469604</ele>
        <time>2014-02-02T10:50:03Z</time>
      </trkpt>
      <trkpt lat="43.45532" lon="6.59997">
        <ele>133.413895</ele>
        <time>2014-02-02T10:50:30Z</time>
      </trkpt>
      <trkpt lat="43.45532" lon="6.59996">
        <ele>133.630188</ele>
        <time>2014-02-02T10:50:31Z</time>
      </trkpt>
      <trkpt lat="43.45529" lon="6.59994">
        <ele>135.164841</ele>
        <time>2014-02-02T10:50:36Z</time>
      </trkpt>
      <trkpt lat="43.45525" lon="6.59992">
        <ele>137.085724</ele>
        <time>2014-02-02T10:50:42Z</time>
      </trkpt>
      <trkpt lat="43.45518" lon="6.59984">
        <ele>140.850266</ele>
        <time>2014-02-02T10:50:53Z</time>
      </trkpt>
      <trkpt lat="43.45516" lon="6.5998">
        <ele>142.106827</ele>
        <time>2014-02-02T10:50:58Z</time>
      </trkpt>
      <trkpt lat="43.45514" lon="6.59976">
        <ele>143.723877</ele>
        <time>2014-02-02T10:51:04Z</time>
      </trkpt>
      <trkpt lat="43.45514" lon="6.5997">
        <ele>144.530014</ele>
        <time>2014-02-02T10:51:14Z</time>
      </trkpt>
      <trkpt lat="43.4551" lon="6.59964">
        <ele>147.163284</ele>
        <time>2014-02-02T10:51:26Z</time>
      </trkpt>
      <trkpt lat="43.45515" lon="6.59962">
        <ele>145.252655</ele>
        <time>2014-02-02T10:51:41Z</time>
      </trkpt>
      <trkpt lat="43.45515" lon="6.5996">
        <ele>145.317612</ele>
        <time>2014-02-02T10:51:46Z</time>
      </trkpt>
      <trkpt lat="43.4552" lon="6.59954">
        <ele>144.31424</ele>
        <time>2014-02-02T10:51:52Z</time>
      </trkpt>
      <trkpt lat="43.45523" lon="6.59949">
        <ele>143.404297</ele>
        <time>2014-02-02T10:52:13Z</time>
      </trkpt>
      <trkpt lat="43.45526" lon="6.59946">
        <ele>142.681046</ele>
        <time>2014-02-02T10:52:21Z</time>
      </trkpt>
      <trkpt lat="43.45528" lon="6.59944">
        <ele>141.754547</ele>
        <time>2014-02-02T10:52:28Z</time>
      </trkpt>
      <trkpt lat="43.4553" lon="6.59938">
        <ele>141.603409</ele>
        <time>2014-02-02T10:52:34Z</time>
      </trkpt>
      <trkpt lat="43.45529" lon="6.59932">
        <ele>142.398056</ele>
        <time>2014-02-02T10:52:40Z</time>
      </trkpt>
      <trkpt lat="43.45531" lon="6.59926">
        <ele>141.735855</ele>
        <time>2014-02-02T10:52:47Z</time>
      </trkpt>
      <trkpt lat="43.45536" lon="6.59922">
        <ele>139.30542</ele>
        <time>2014-02-02T10:52:52Z</time>
      </trkpt>
      <trkpt lat="43.45536" lon="6.59921">
        <ele>139.576767</ele>
        <time>2014-02-02T10:53:05Z</time>
      </trkpt>
      <trkpt lat="43.45537" lon="6.59914">
        <ele>139.810532</ele>
        <time>2014-02-02T10:53:19Z</time>
      </trkpt>
      <trkpt lat="43.45539" lon="6.59907">
        <ele>139.251755</ele>
        <time>2014-02-02T10:53:25Z</time>
      </trkpt>
      <trkpt lat="43.45539" lon="6.59905">
        <ele>139.408951</ele>
        <time>2014-02-02T10:53:27Z</time>
      </trkpt>
      <trkpt lat="43.45539" lon="6.599">
        <ele>139.9673</ele>
        <time>2014-02-02T10:53:33Z</time>
      </trkpt>
      <trkpt lat="43.45537" lon="6.599">
        <ele>141.309311</ele>
        <time>2014-02-02T10:53:44Z</time>
      </trkpt>
      <trkpt lat="43.45536" lon="6.59898">
        <ele>142.100616</ele>
        <time>2014-02-02T10:53:49Z</time>
      </trkpt>
      <trkpt lat="43.45538" lon="6.59897">
        <ele>141.032089</ele>
        <time>2014-02-02T10:54:21Z</time>
      </trkpt>
      <trkpt lat="43.45537" lon="6.59895">
        <ele>141.908203</ele>
        <time>2014-02-02T10:54:23Z</time>
      </trkpt>
      <trkpt lat="43.45533" lon="6.59892">
        <ele>144.426529</ele>
        <time>2014-02-02T10:54:27Z</time>
      </trkpt>
      <trkpt lat="43.45528" lon="6.59886">
        <ele>147.869064</ele>
        <time>2014-02-02T10:54:33Z</time>
      </trkpt>
      <trkpt lat="43.45522" lon="6.59879">
        <ele>152.163345</ele>
        <time>2014-02-02T10:54:41Z</time>
      </trkpt>
      <trkpt lat="43.45518" lon="6.59874">
        <ele>155.068329</ele>
        <time>2014-02-02T10:54:47Z</time>
      </trkpt>
      <trkpt lat="43.45515" lon="6.59868">
        <ele>156.943253</ele>
        <time>2014-02-02T10:54:53Z</time>
      </trkpt>
      <trkpt lat="43.4552" lon="6.59867">
        <ele>154.471725</ele>
        <time>2014-02-02T10:54:59Z</time>
      </trkpt>
      <trkpt lat="43.4552" lon="6.59855">
        <ele>155.760162</ele>
        <time>2014-02-02T10:55:57Z</time>
      </trkpt>
      <trkpt lat="43.45519" lon="6.59851">
        <ele>156.477219</ele>
        <time>2014-02-02T10:56:02Z</time>
      </trkpt>
      <trkpt lat="43.45518" lon="6.59842">
        <ele>158.683014</ele>
        <time>2014-02-02T10:56:14Z</time>
      </trkpt>
      <trkpt lat="43.45514" lon="6.5984">
        <ele>161.836761</ele>
        <time>2014-02-02T10:56:27Z</time>
      </trkpt>
      <trkpt lat="43.4551" lon="6.59837">
        <ele>164.195374</ele>
        <time>2014-02-02T10:56:33Z</time>
      </trkpt>
      <trkpt lat="43.45513" lon="6.59833">
        <ele>163.228455</ele>
        <time>2014-02-02T10:56:41Z</time>
      </trkpt>
      <trkpt lat="43.45514" lon="6.59832">
        <ele>162.59845</ele>
        <time>2014-02-02T10:56:48Z</time>
      </trkpt>
      <trkpt lat="43.45516" lon="6.5983">
        <ele>160.816605</ele>
        <time>2014-02-02T10:57:02Z</time>
      </trkpt>
      <trkpt lat="43.45517" lon="6.59829">
        <ele>159.623566</ele>
        <time>2014-02-02T10:57:08Z</time>
      </trkpt>
      <trkpt lat="43.45517" lon="6.59826">
        <ele>159.647583</ele>
        <time>2014-02-02T10:57:12Z</time>
      </trkpt>
      <trkpt lat="43.45519" lon="6.59819">
        <ele>157.585938</ele>
        <time>2014-02-02T10:57:25Z</time>
      </trkpt>
      <trkpt lat="43.45522" lon="6.59818">
        <ele>155.651306</ele>
        <time>2014-02-02T10:57:31Z</time>
      </trkpt>
      <trkpt lat="43.45523" lon="6.59819">
        <ele>154.377594</ele>
        <time>2014-02-02T10:57:33Z</time>
      </trkpt>
      <trkpt lat="43.45525" lon="6.59813">
        <ele>152.424072</ele>
        <time>2014-02-02T10:57:39Z</time>
      </trkpt>
      <trkpt lat="43.45528" lon="6.59809">
        <ele>150.201065</ele>
        <time>2014-02-02T10:57:45Z</time>
      </trkpt>
      <trkpt lat="43.45531" lon="6.59809">
        <ele>148.123962</ele>
        <time>2014-02-02T10:57:50Z</time>
      </trkpt>
      <trkpt lat="43.45534" lon="6.59804">
        <ele>145.596771</ele>
        <time>2014-02-02T10:57:57Z</time>
      </trkpt>
      <trkpt lat="43.45535" lon="6.59804">
        <ele>145.071503</ele>
        <time>2014-02-02T10:57:58Z</time>
      </trkpt>
      <trkpt lat="43.45539" lon="6.59802">
        <ele>142.149811</ele>
        <time>2014-02-02T10:58:04Z</time>
      </trkpt>
      <trkpt lat="43.45541" lon="6.59803">
        <ele>140.613449</ele>
        <time>2014-02-02T10:58:09Z</time>
      </trkpt>
      <trkpt lat="43.45543" lon="6.59802">
        <ele>139.2659</ele>
        <time>2014-02-02T10:58:12Z</time>
      </trkpt>
      <trkpt lat="43.45547" lon="6.59801">
        <ele>136.867798</ele>
        <time>2014-02-02T10:58:17Z</time>
      </trkpt>
      <trkpt lat="43.45548" lon="6.59797">
        <ele>135.937393</ele>
        <time>2014-02-02T10:58:22Z</time>
      </trkpt>
      <trkpt lat="43.4555" lon="6.59792">
        <ele>134.449097</ele>
        <time>2014-02-02T10:58:28Z</time>
      </trkpt>
      <trkpt lat="43.45554" lon="6.59784">
        <ele>131.297394</ele>
        <time>2014-02-02T10:58:36Z</time>
      </trkpt>
      <trkpt lat="43.45557" lon="6.5978">
        <ele>129.544342</ele>
        <time>2014-02-02T10:58:42Z</time>
      </trkpt>
      <trkpt lat="43.45561" lon="6.59778">
        <ele>127.331863</ele>
        <time>2014-02-02T10:58:56Z</time>
      </trkpt>
      <trkpt lat="43.45562" lon="6.59776">
        <ele>126.470123</ele>
        <time>2014-02-02T10:59:00Z</time>
      </trkpt>
      <trkpt lat="43.45564" lon="6.59773">
        <ele>125.491653</ele>
        <time>2014-02-02T10:59:03Z</time>
      </trkpt>
      <trkpt lat="43.45564" lon="6.59773">
        <ele>125.433289</ele>
        <time>2014-02-02T10:59:10Z</time>
      </trkpt>
      <trkpt lat="43.45563" lon="6.59773">
        <ele>125.834976</ele>
        <time>2014-02-02T10:59:14Z</time>
      </trkpt>
      <trkpt lat="43.45562" lon="6.59777">
        <ele>126.882111</ele>
        <time>2014-02-02T10:59:23Z</time>
      </trkpt>
      <trkpt lat="43.45561" lon="6.59775">
        <ele>126.947342</ele>
        <time>2014-02-02T11:00:00Z</time>
      </trkpt>
      <trkpt lat="43.4556" lon="6.59774">
        <ele>127.235733</ele>
        <time>2014-02-02T11:00:02Z</time>
      </trkpt>
      <trkpt lat="43.45555" lon="6.59769">
        <ele>129.958664</ele>
        <time>2014-02-02T11:00:10Z</time>
      </trkpt>
      <trkpt lat="43.45547" lon="6.5977">
        <ele>135.190903</ele>
        <time>2014-02-02T11:00:19Z</time>
      </trkpt>
      <trkpt lat="43.45543" lon="6.59771">
        <ele>138.140045</ele>
        <time>2014-02-02T11:00:24Z</time>
      </trkpt>
      <trkpt lat="43.45539" lon="6.5977">
        <ele>140.989624</ele>
        <time>2014-02-02T11:00:31Z</time>
      </trkpt>
      <trkpt lat="43.45535" lon="6.59767">
        <ele>143.121658</ele>
        <time>2014-02-02T11:00:37Z</time>
      </trkpt>
      <trkpt lat="43.45533" lon="6.59766">
        <ele>144.817673</ele>
        <time>2014-02-02T11:00:42Z</time>
      </trkpt>
      <trkpt lat="43.45524" lon="6.59754">
        <ele>149.970947</ele>
        <time>2014-02-02T11:01:03Z</time>
      </trkpt>
      <trkpt lat="43.45521" lon="6.59748">
        <ele>151.993866</ele>
        <time>2014-02-02T11:01:14Z</time>
      </trkpt>
      <trkpt lat="43.45517" lon="6.59742">
        <ele>155.356339</ele>
        <time>2014-02-02T11:01:30Z</time>
      </trkpt>
      <trkpt lat="43.45513" lon="6.59737">
        <ele>158.422531</ele>
        <time>2014-02-02T11:01:41Z</time>
      </trkpt>
      <trkpt lat="43.45511" lon="6.5973">
        <ele>160.038956</ele>
        <time>2014-02-02T11:01:50Z</time>
      </trkpt>
      <trkpt lat="43.45509" lon="6.59727">
        <ele>162.061768</ele>
        <time>2014-02-02T11:01:58Z</time>
      </trkpt>
      <trkpt lat="43.45506" lon="6.59724">
        <ele>164.287704</ele>
        <time>2014-02-02T11:02:04Z</time>
      </trkpt>
      <trkpt lat="43.45504" lon="6.59721">
        <ele>165.475754</ele>
        <time>2014-02-02T11:02:10Z</time>
      </trkpt>
      <trkpt lat="43.45499" lon="6.59713">
        <ele>168.7677</ele>
        <time>2014-02-02T11:02:20Z</time>
      </trkpt>
      <trkpt lat="43.45493" lon="6.5971">
        <ele>171.637573</ele>
        <time>2014-02-02T11:02:33Z</time>
      </trkpt>
      <trkpt lat="43.45488" lon="6.59701">
        <ele>174.060211</ele>
        <time>2014-02-02T11:02:47Z</time>
      </trkpt>
      <trkpt lat="43.45485" lon="6.59694">
        <ele>175.699448</ele>
        <time>2014-02-02T11:02:56Z</time>
      </trkpt>
      <trkpt lat="43.45485" lon="6.5969">
        <ele>176.085358</ele>
        <time>2014-02-02T11:03:01Z</time>
      </trkpt>
      <trkpt lat="43.4548" lon="6.59685">
        <ele>178.293961</ele>
        <time>2014-02-02T11:03:09Z</time>
      </trkpt>
      <trkpt lat="43.45478" lon="6.59682">
        <ele>179.643814</ele>
        <time>2014-02-02T11:03:15Z</time>
      </trkpt>
      <trkpt lat="43.45474" lon="6.59679">
        <ele>181.316208</ele>
        <time>2014-02-02T11:03:21Z</time>
      </trkpt>
      <trkpt lat="43.45472" lon="6.59674">
        <ele>182.434479</ele>
        <time>2014-02-02T11:03:26Z</time>
      </trkpt>
      <trkpt lat="43.4547" lon="6.59668">
        <ele>184.290115</ele>
        <time>2014-02-02T11:03:33Z</time>
      </trkpt>
      <trkpt lat="43.45468" lon="6.59664">
        <ele>185.481888</ele>
        <time>2014-02-02T11:03:38Z</time>
      </trkpt>
      <trkpt lat="43.45467" lon="6.5966">
        <ele>186.234116</ele>
        <time>2014-02-02T11:03:43Z</time>
      </trkpt>
      <trkpt lat="43.45468" lon="6.59657">
        <ele>186.099701</ele>
        <time>2014-02-02T11:03:53Z</time>
      </trkpt>
      <trkpt lat="43.45467" lon="6.59656">
        <ele>187.025482</ele>
        <time>2014-02-02T11:04:03Z</time>
      </trkpt>
      <trkpt lat="43.45464" lon="6.59655">
        <ele>188.699203</ele>
        <time>2014-02-02T11:04:08Z</time>
      </trkpt>
      <trkpt lat="43.4546" lon="6.59653">
        <ele>190.607605</ele>
        <time>2014-02-02T11:04:13Z</time>
      </trkpt>
      <trkpt lat="43.45457" lon="6.59649">
        <ele>192.406631</ele>
        <time>2014-02-02T11:04:20Z</time>
      </trkpt>
      <trkpt lat="43.45454" lon="6.59645">
        <ele>194.346985</ele>
        <time>2014-02-02T11:04:27Z</time>
      </trkpt>
      <trkpt lat="43.4545" lon="6.59644">
        <ele>196.061325</ele>
        <time>2014-02-02T11:04:33Z</time>
      </trkpt>
      <trkpt lat="43.45447" lon="6.59641">
        <ele>197.832321</ele>
        <time>2014-02-02T11:04:40Z</time>
      </trkpt>
      <trkpt lat="43.45449" lon="6.59637">
        <ele>197.032944</ele>
        <time>2014-02-02T11:04:43Z</time>
      </trkpt>
      <trkpt lat="43.45446" lon="6.5964">
        <ele>198.02829</ele>
        <time>2014-02-02T11:04:48Z</time>
      </trkpt>
      <trkpt lat="43.45446" lon="6.59642">
        <ele>197.975433</ele>
        <time>2014-02-02T11:04:56Z</time>
      </trkpt>
      <trkpt lat="43.45444" lon="6.59642">
        <ele>199.031723</ele>
        <time>2014-02-02T11:05:03Z</time>
      </trkpt>
      <trkpt lat="43.45437" lon="6.5964">
        <ele>202.237442</ele>
        <time>2014-02-02T11:05:18Z</time>
      </trkpt>
      <trkpt lat="43.45429" lon="6.59632">
        <ele>205.828781</ele>
        <time>2014-02-02T11:05:31Z</time>
      </trkpt>
      <trkpt lat="43.45425" lon="6.59629">
        <ele>207.712616</ele>
        <time>2014-02-02T11:05:36Z</time>
      </trkpt>
      <trkpt lat="43.45423" lon="6.59625">
        <ele>209.128311</ele>
        <time>2014-02-02T11:05:41Z</time>
      </trkpt>
      <trkpt lat="43.45422" lon="6.59622">
        <ele>209.692642</ele>
        <time>2014-02-02T11:05:47Z</time>
      </trkpt>
      <trkpt lat="43.45424" lon="6.5962">
        <ele>208.687897</ele>
        <time>2014-02-02T11:05:54Z</time>
      </trkpt>
      <trkpt lat="43.45428" lon="6.59619">
        <ele>206.72612</ele>
        <time>2014-02-02T11:06:01Z</time>
      </trkpt>
      <trkpt lat="43.45432" lon="6.59622">
        <ele>204.974487</ele>
        <time>2014-02-02T11:06:06Z</time>
      </trkpt>
      <trkpt lat="43.4543" lon="6.59624">
        <ele>205.965576</ele>
        <time>2014-02-02T11:06:12Z</time>
      </trkpt>
      <trkpt lat="43.45422" lon="6.59619">
        <ele>209.862</ele>
        <time>2014-02-02T11:06:29Z</time>
      </trkpt>
      <trkpt lat="43.45419" lon="6.59618">
        <ele>211.410233</ele>
        <time>2014-02-02T11:06:34Z</time>
      </trkpt>
      <trkpt lat="43.45414" lon="6.59612">
        <ele>213.596375</ele>
        <time>2014-02-02T11:06:40Z</time>
      </trkpt>
      <trkpt lat="43.4541" lon="6.59609">
        <ele>214.899887</ele>
        <time>2014-02-02T11:06:46Z</time>
      </trkpt>
      <trkpt lat="43.45407" lon="6.59602">
        <ele>216.361206</ele>
        <time>2014-02-02T11:06:53Z</time>
      </trkpt>
      <trkpt lat="43.45405" lon="6.596">
        <ele>216.945557</ele>
        <time>2014-02-02T11:06:58Z</time>
      </trkpt>
      <trkpt lat="43.45404" lon="6.59594">
        <ele>217.842316</ele>
        <time>2014-02-02T11:07:06Z</time>
      </trkpt>
      <trkpt lat="43.45401" lon="6.59589">
        <ele>218.818054</ele>
        <time>2014-02-02T11:07:12Z</time>
      </trkpt>
      <trkpt lat="43.45399" lon="6.59585">
        <ele>219.670074</ele>
        <time>2014-02-02T11:07:18Z</time>
      </trkpt>
      <trkpt lat="43.45398" lon="6.59579">
        <ele>220.553146</ele>
        <time>2014-02-02T11:07:26Z</time>
      </trkpt>
      <trkpt lat="43.45396" lon="6.59572">
        <ele>221.598572</ele>
        <time>2014-02-02T11:07:32Z</time>
      </trkpt>
      <trkpt lat="43.45396" lon="6.59572">
        <ele>221.732452</ele>
        <time>2014-02-02T11:07:33Z</time>
      </trkpt>
      <trkpt lat="43.45394" lon="6.59569">
        <ele>222.371033</ele>
        <time>2014-02-02T11:07:36Z</time>
      </trkpt>
      <trkpt lat="43.45392" lon="6.59562">
        <ele>223.61731</ele>
        <time>2014-02-02T11:07:43Z</time>
      </trkpt>
      <trkpt lat="43.4539" lon="6.59557">
        <ele>224.66272</ele>
        <time>2014-02-02T11:07:47Z</time>
      </trkpt>
      <trkpt lat="43.45388" lon="6.59553">
        <ele>225.290924</ele>
        <time>2014-02-02T11:07:52Z</time>
      </trkpt>
      <trkpt lat="43.45385" lon="6.59548">
        <ele>226.133774</ele>
        <time>2014-02-02T11:07:59Z</time>
      </trkpt>
      <trkpt lat="43.45382" lon="6.59542">
        <ele>226.91655</ele>
        <time>2014-02-02T11:08:05Z</time>
      </trkpt>
      <trkpt lat="43.45382" lon="6.5954">
        <ele>227.163742</ele>
        <time>2014-02-02T11:08:11Z</time>
      </trkpt>
      <trkpt lat="43.45379" lon="6.59532">
        <ele>227.996307</ele>
        <time>2014-02-02T11:08:18Z</time>
      </trkpt>
      <trkpt lat="43.45374" lon="6.59525">
        <ele>229.36441</ele>
        <time>2014-02-02T11:08:26Z</time>
      </trkpt>
      <trkpt lat="43.4537" lon="6.59519">
        <ele>230.710236</ele>
        <time>2014-02-02T11:08:32Z</time>
      </trkpt>
      <trkpt lat="43.45366" lon="6.59512">
        <ele>231.997696</ele>
        <time>2014-02-02T11:08:40Z</time>
      </trkpt>
      <trkpt lat="43.45361" lon="6.59507">
        <ele>233.436218</ele>
        <time>2014-02-02T11:08:47Z</time>
      </trkpt>
      <trkpt lat="43.4536" lon="6.59502">
        <ele>234.045807</ele>
        <time>2014-02-02T11:08:52Z</time>
      </trkpt>
      <trkpt lat="43.45358" lon="6.59497">
        <ele>234.870544</ele>
        <time>2014-02-02T11:08:57Z</time>
      </trkpt>
      <trkpt lat="43.45351" lon="6.59492">
        <ele>236.386322</ele>
        <time>2014-02-02T11:09:55Z</time>
      </trkpt>
      <trkpt lat="43.45348" lon="6.5949">
        <ele>237.182831</ele>
        <time>2014-02-02T11:10:01Z</time>
      </trkpt>
      <trkpt lat="43.45344" lon="6.59487">
        <ele>238.144135</ele>
        <time>2014-02-02T11:10:09Z</time>
      </trkpt>
      <trkpt lat="43.45344" lon="6.59482">
        <ele>238.374161</ele>
        <time>2014-02-02T11:10:14Z</time>
      </trkpt>
      <trkpt lat="43.45343" lon="6.59476">
        <ele>238.847946</ele>
        <time>2014-02-02T11:10:20Z</time>
      </trkpt>
      <trkpt lat="43.45341" lon="6.59473">
        <ele>239.223877</ele>
        <time>2014-02-02T11:10:25Z</time>
      </trkpt>
      <trkpt lat="43.4534" lon="6.59472">
        <ele>239.49968</ele>
        <time>2014-02-02T11:10:27Z</time>
      </trkpt>
      <trkpt lat="43.45336" lon="6.59467">
        <ele>240.811539</ele>
        <time>2014-02-02T11:10:33Z</time>
      </trkpt>
      <trkpt lat="43.45333" lon="6.59465">
        <ele>241.51564</ele>
        <time>2014-02-02T11:10:36Z</time>
      </trkpt>
      <trkpt lat="43.45328" lon="6.5946">
        <ele>242.40242</ele>
        <time>2014-02-02T11:10:43Z</time>
      </trkpt>
      <trkpt lat="43.45325" lon="6.59455">
        <ele>242.86322</ele>
        <time>2014-02-02T11:10:53Z</time>
      </trkpt>
      <trkpt lat="43.45323" lon="6.59453">
        <ele>243.101425</ele>
        <time>2014-02-02T11:10:55Z</time>
      </trkpt>
      <trkpt lat="43.45319" lon="6.59449">
        <ele>243.439499</ele>
        <time>2014-02-02T11:11:01Z</time>
      </trkpt>
      <trkpt lat="43.45316" lon="6.59443">
        <ele>243.593826</ele>
        <time>2014-02-02T11:11:09Z</time>
      </trkpt>
      <trkpt lat="43.45316" lon="6.59437">
        <ele>243.487228</ele>
        <time>2014-02-02T11:11:14Z</time>
      </trkpt>
      <trkpt lat="43.45315" lon="6.59426">
        <ele>243.252014</ele>
        <time>2014-02-02T11:11:22Z</time>
      </trkpt>
      <trkpt lat="43.45318" lon="6.59425">
        <ele>243.39267</ele>
        <time>2014-02-02T11:11:31Z</time>
      </trkpt>
      <trkpt lat="43.45318" lon="6.59427">
        <ele>243.410904</ele>
        <time>2014-02-02T11:11:34Z</time>
      </trkpt>
      <trkpt lat="43.45324" lon="6.59426">
        <ele>243.754211</ele>
        <time>2014-02-02T11:11:39Z</time>
      </trkpt>
      <trkpt lat="43.45321" lon="6.59418">
        <ele>243.606155</ele>
        <time>2014-02-02T11:11:48Z</time>
      </trkpt>
      <trkpt lat="43.45318" lon="6.59415">
        <ele>243.34407</ele>
        <time>2014-02-02T11:11:56Z</time>
      </trkpt>
      <trkpt lat="43.45326" lon="6.59418">
        <ele>244.182495</ele>
        <time>2014-02-02T11:13:02Z</time>
      </trkpt>
      <trkpt lat="43.4533" lon="6.59422">
        <ele>244.32489</ele>
        <time>2014-02-02T11:13:08Z</time>
      </trkpt>
      <trkpt lat="43.45337" lon="6.59418">
        <ele>244.024918</ele>
        <time>2014-02-02T11:13:14Z</time>
      </trkpt>
      <trkpt lat="43.4534" lon="6.59416">
        <ele>243.291916</ele>
        <time>2014-02-02T11:13:17Z</time>
      </trkpt>
      <trkpt lat="43.45343" lon="6.59413">
        <ele>242.690628</ele>
        <time>2014-02-02T11:13:22Z</time>
      </trkpt>
      <trkpt lat="43.45348" lon="6.59412">
        <ele>241.635193</ele>
        <time>2014-02-02T11:13:29Z</time>
      </trkpt>
      <trkpt lat="43.4535" lon="6.59414">
        <ele>240.973404</ele>
        <time>2014-02-02T11:13:32Z</time>
      </trkpt>
      <trkpt lat="43.45354" lon="6.59413">
        <ele>240.039307</ele>
        <time>2014-02-02T11:13:38Z</time>
      </trkpt>
      <trkpt lat="43.45359" lon="6.5941">
        <ele>238.662369</ele>
        <time>2014-02-02T11:13:45Z</time>
      </trkpt>
      <trkpt lat="43.45364" lon="6.5941">
        <ele>237.801376</ele>
        <time>2014-02-02T11:13:52Z</time>
      </trkpt>
      <trkpt lat="43.45369" lon="6.59409">
        <ele>237.173004</ele>
        <time>2014-02-02T11:13:57Z</time>
      </trkpt>
      <trkpt lat="43.45379" lon="6.59412">
        <ele>235.689041</ele>
        <time>2014-02-02T11:14:05Z</time>
      </trkpt>
      <trkpt lat="43.45384" lon="6.59416">
        <ele>234.744583</ele>
        <time>2014-02-02T11:14:10Z</time>
      </trkpt>
      <trkpt lat="43.45387" lon="6.59416">
        <ele>234.279434</ele>
        <time>2014-02-02T11:14:14Z</time>
      </trkpt>
      <trkpt lat="43.45389" lon="6.59416">
        <ele>234.074722</ele>
        <time>2014-02-02T11:14:21Z</time>
      </trkpt>
      <trkpt lat="43.45389" lon="6.59415">
        <ele>234.098892</ele>
        <time>2014-02-02T11:14:24Z</time>
      </trkpt>
      <trkpt lat="43.4539" lon="6.59413">
        <ele>234.146957</ele>
        <time>2014-02-02T11:14:31Z</time>
      </trkpt>
      <trkpt lat="43.45388" lon="6.5941">
        <ele>234.681335</ele>
        <time>2014-02-02T11:14:49Z</time>
      </trkpt>
      <trkpt lat="43.45387" lon="6.59408">
        <ele>234.866058</ele>
        <time>2014-02-02T11:14:55Z</time>
      </trkpt>
      <trkpt lat="43.45387" lon="6.59406">
        <ele>235.058975</ele>
        <time>2014-02-02T11:15:02Z</time>
      </trkpt>
      <trkpt lat="43.45389" lon="6.59408">
        <ele>234.650528</ele>
        <time>2014-02-02T11:15:22Z</time>
      </trkpt>
      <trkpt lat="43.45388" lon="6.59414">
        <ele>234.352386</ele>
        <time>2014-02-02T11:15:32Z</time>
      </trkpt>
      <trkpt lat="43.45388" lon="6.59417">
        <ele>234.037064</ele>
        <time>2014-02-02T11:15:43Z</time>
      </trkpt>
      <trkpt lat="43.45389" lon="6.59421">
        <ele>233.700607</ele>
        <time>2014-02-02T11:15:48Z</time>
      </trkpt>
      <trkpt lat="43.45388" lon="6.59421">
        <ele>233.882568</ele>
        <time>2014-02-02T11:15:57Z</time>
      </trkpt>
      <trkpt lat="43.45389" lon="6.59421">
        <ele>233.693741</ele>
        <time>2014-02-02T11:16:12Z</time>
      </trkpt>
      <trkpt lat="43.4539" lon="6.59418">
        <ele>233.769531</ele>
        <time>2014-02-02T11:16:18Z</time>
      </trkpt>
      <trkpt lat="43.45397" lon="6.59425">
        <ele>232.762512</ele>
        <time>2014-02-02T11:16:25Z</time>
      </trkpt>
      <trkpt lat="43.45399" lon="6.5943">
        <ele>232.112991</ele>
        <time>2014-02-02T11:16:29Z</time>
      </trkpt>
      <trkpt lat="43.45403" lon="6.59433">
        <ele>231.483795</ele>
        <time>2014-02-02T11:16:33Z</time>
      </trkpt>
      <trkpt lat="43.45449" lon="6.59461">
        <ele>227.5</ele>
        <time>2014-02-02T11:16:39Z</time>
      </trkpt>
      <trkpt lat="43.45431" lon="6.59416">
        <ele>230.018417</ele>
        <time>2014-02-02T11:52:25Z</time>
      </trkpt>
      <trkpt lat="43.45433" lon="6.59421">
        <ele>228.69548</ele>
        <time>2014-02-02T11:52:31Z</time>
      </trkpt>
      <trkpt lat="43.45436" lon="6.59428">
        <ele>226.417465</ele>
        <time>2014-02-02T11:52:37Z</time>
      </trkpt>
      <trkpt lat="43.45434" lon="6.59434">
        <ele>225.800507</ele>
        <time>2014-02-02T11:53:06Z</time>
      </trkpt>
      <trkpt lat="43.45432" lon="6.5943">
        <ele>227.200775</ele>
        <time>2014-02-02T11:53:13Z</time>
      </trkpt>
      <trkpt lat="43.45432" lon="6.59428">
        <ele>227.570862</ele>
        <time>2014-02-02T11:53:29Z</time>
      </trkpt>
      <trkpt lat="43.45438" lon="6.59432">
        <ele>225.110535</ele>
        <time>2014-02-02T11:53:38Z</time>
      </trkpt>
      <trkpt lat="43.45436" lon="6.5943">
        <ele>225.898987</ele>
        <time>2014-02-02T11:53:59Z</time>
      </trkpt>
      <trkpt lat="43.45435" lon="6.59432">
        <ele>225.728989</ele>
        <time>2014-02-02T11:54:06Z</time>
      </trkpt>
      <trkpt lat="43.45434" lon="6.59435">
        <ele>225.344299</ele>
        <time>2014-02-02T11:54:36Z</time>
      </trkpt>
      <trkpt lat="43.45439" lon="6.59446">
        <ele>221.563721</ele>
        <time>2014-02-02T11:54:45Z</time>
      </trkpt>
      <trkpt lat="43.4544" lon="6.59448">
        <ele>220.746429</ele>
        <time>2014-02-02T11:54:49Z</time>
      </trkpt>
      <trkpt lat="43.45444" lon="6.59451">
        <ele>218.813919</ele>
        <time>2014-02-02T11:54:55Z</time>
      </trkpt>
      <trkpt lat="43.45449" lon="6.59456">
        <ele>217.261429</ele>
        <time>2014-02-02T11:55:02Z</time>
      </trkpt>
      <trkpt lat="43.45453" lon="6.59461">
        <ele>215.61972</ele>
        <time>2014-02-02T11:55:09Z</time>
      </trkpt>
      <trkpt lat="43.4545" lon="6.5946">
        <ele>216.345673</ele>
        <time>2014-02-02T11:55:16Z</time>
      </trkpt>
      <trkpt lat="43.45446" lon="6.59462">
        <ele>216.463181</ele>
        <time>2014-02-02T11:56:25Z</time>
      </trkpt>
      <trkpt lat="43.45445" lon="6.5946">
        <ele>217.002853</ele>
        <time>2014-02-02T11:56:31Z</time>
      </trkpt>
      <trkpt lat="43.45445" lon="6.59459">
        <ele>217.275116</ele>
        <time>2014-02-02T11:56:51Z</time>
      </trkpt>
      <trkpt lat="43.45439" lon="6.59461">
        <ele>218.997559</ele>
        <time>2014-02-02T11:57:16Z</time>
      </trkpt>
      <trkpt lat="43.45433" lon="6.59456">
        <ele>222.097916</ele>
        <time>2014-02-02T11:57:23Z</time>
      </trkpt>
      <trkpt lat="43.4543" lon="6.59454">
        <ele>223.600601</ele>
        <time>2014-02-02T11:57:31Z</time>
      </trkpt>
      <trkpt lat="43.45428" lon="6.59453">
        <ele>224.461517</ele>
        <time>2014-02-02T11:57:35Z</time>
      </trkpt>
      <trkpt lat="43.45425" lon="6.5945">
        <ele>225.545547</ele>
        <time>2014-02-02T11:57:38Z</time>
      </trkpt>
      <trkpt lat="43.45421" lon="6.5945">
        <ele>227.064667</ele>
        <time>2014-02-02T11:57:43Z</time>
      </trkpt>
      <trkpt lat="43.45419" lon="6.59449">
        <ele>227.928986</ele>
        <time>2014-02-02T11:57:48Z</time>
      </trkpt>
      <trkpt lat="43.45418" lon="6.59447">
        <ele>228.471268</ele>
        <time>2014-02-02T11:57:51Z</time>
      </trkpt>
      <trkpt lat="43.45414" lon="6.59443">
        <ele>229.532486</ele>
        <time>2014-02-02T11:57:56Z</time>
      </trkpt>
      <trkpt lat="43.45405" lon="6.59433">
        <ele>231.350555</ele>
        <time>2014-02-02T11:58:05Z</time>
      </trkpt>
      <trkpt lat="43.45404" lon="6.59431">
        <ele>231.556961</ele>
        <time>2014-02-02T11:58:06Z</time>
      </trkpt>
      <trkpt lat="43.45395" lon="6.59421">
        <ele>233.205246</ele>
        <time>2014-02-02T11:58:14Z</time>
      </trkpt>
      <trkpt lat="43.45391" lon="6.59414">
        <ele>234.026794</ele>
        <time>2014-02-02T11:58:21Z</time>
      </trkpt>
      <trkpt lat="43.4539" lon="6.5941">
        <ele>234.376984</ele>
        <time>2014-02-02T11:58:28Z</time>
      </trkpt>
      <trkpt lat="43.45388" lon="6.59409">
        <ele>234.640076</ele>
        <time>2014-02-02T11:58:37Z</time>
      </trkpt>
      <trkpt lat="43.4539" lon="6.59415">
        <ele>234.102325</ele>
        <time>2014-02-02T11:58:45Z</time>
      </trkpt>
      <trkpt lat="43.45384" lon="6.59417">
        <ele>234.641312</ele>
        <time>2014-02-02T11:59:17Z</time>
      </trkpt>
      <trkpt lat="43.45378" lon="6.59415">
        <ele>235.637024</ele>
        <time>2014-02-02T11:59:23Z</time>
      </trkpt>
      <trkpt lat="43.45375" lon="6.59416">
        <ele>235.951401</ele>
        <time>2014-02-02T11:59:28Z</time>
      </trkpt>
      <trkpt lat="43.45372" lon="6.59415">
        <ele>236.563248</ele>
        <time>2014-02-02T11:59:33Z</time>
      </trkpt>
      <trkpt lat="43.45366" lon="6.59411">
        <ele>237.496597</ele>
        <time>2014-02-02T11:59:39Z</time>
      </trkpt>
      <trkpt lat="43.45363" lon="6.59409">
        <ele>238.027802</ele>
        <time>2014-02-02T11:59:45Z</time>
      </trkpt>
      <trkpt lat="43.45356" lon="6.59411">
        <ele>239.429764</ele>
        <time>2014-02-02T11:59:53Z</time>
      </trkpt>
      <trkpt lat="43.45354" lon="6.5941">
        <ele>239.9646</ele>
        <time>2014-02-02T11:59:59Z</time>
      </trkpt>
      <trkpt lat="43.45352" lon="6.59408">
        <ele>240.660431</ele>
        <time>2014-02-02T12:00:04Z</time>
      </trkpt>
      <trkpt lat="43.45347" lon="6.5941">
        <ele>241.846771</ele>
        <time>2014-02-02T12:00:08Z</time>
      </trkpt>
      <trkpt lat="43.45343" lon="6.59409">
        <ele>243.115356</ele>
        <time>2014-02-02T12:00:13Z</time>
      </trkpt>
      <trkpt lat="43.45346" lon="6.59417">
        <ele>241.868851</ele>
        <time>2014-02-02T12:00:23Z</time>
      </trkpt>
      <trkpt lat="43.45336" lon="6.59421">
        <ele>244.072983</ele>
        <time>2014-02-02T12:00:30Z</time>
      </trkpt>
      <trkpt lat="43.45329" lon="6.59423">
        <ele>244.172516</ele>
        <time>2014-02-02T12:00:34Z</time>
      </trkpt>
      <trkpt lat="43.45317" lon="6.59425">
        <ele>243.342789</ele>
        <time>2014-02-02T12:00:42Z</time>
      </trkpt>
      <trkpt lat="43.45313" lon="6.59428">
        <ele>243.16626</ele>
        <time>2014-02-02T12:00:46Z</time>
      </trkpt>
      <trkpt lat="43.45308" lon="6.59427">
        <ele>242.874207</ele>
        <time>2014-02-02T12:00:53Z</time>
      </trkpt>
      <trkpt lat="43.45304" lon="6.59422">
        <ele>242.513168</ele>
        <time>2014-02-02T12:00:57Z</time>
      </trkpt>
      <trkpt lat="43.45298" lon="6.59423">
        <ele>243.198166</ele>
        <time>2014-02-02T12:01:02Z</time>
      </trkpt>
      <trkpt lat="43.45295" lon="6.59421">
        <ele>243.173874</ele>
        <time>2014-02-02T12:01:07Z</time>
      </trkpt>
      <trkpt lat="43.45291" lon="6.59416">
        <ele>242.982758</ele>
        <time>2014-02-02T12:01:11Z</time>
      </trkpt>
      <trkpt lat="43.45286" lon="6.59415">
        <ele>243.251999</ele>
        <time>2014-02-02T12:01:16Z</time>
      </trkpt>
      <trkpt lat="43.45284" lon="6.59412">
        <ele>243.133331</ele>
        <time>2014-02-02T12:01:18Z</time>
      </trkpt>
      <trkpt lat="43.45276" lon="6.59407">
        <ele>242.907776</ele>
        <time>2014-02-02T12:01:25Z</time>
      </trkpt>
      <trkpt lat="43.45274" lon="6.59406">
        <ele>242.734406</ele>
        <time>2014-02-02T12:01:26Z</time>
      </trkpt>
      <trkpt lat="43.4527" lon="6.59407">
        <ele>242.657166</ele>
        <time>2014-02-02T12:01:32Z</time>
      </trkpt>
      <trkpt lat="43.45269" lon="6.59407">
        <ele>242.619385</ele>
        <time>2014-02-02T12:01:33Z</time>
      </trkpt>
      <trkpt lat="43.45262" lon="6.59405">
        <ele>242.142181</ele>
        <time>2014-02-02T12:01:42Z</time>
      </trkpt>
      <trkpt lat="43.45256" lon="6.59403">
        <ele>241.800568</ele>
        <time>2014-02-02T12:01:47Z</time>
      </trkpt>
      <trkpt lat="43.45248" lon="6.59401">
        <ele>241.153137</ele>
        <time>2014-02-02T12:01:53Z</time>
      </trkpt>
      <trkpt lat="43.45239" lon="6.59401">
        <ele>240.690033</ele>
        <time>2014-02-02T12:02:00Z</time>
      </trkpt>
      <trkpt lat="43.45233" lon="6.59403">
        <ele>240.617935</ele>
        <time>2014-02-02T12:02:06Z</time>
      </trkpt>
      <trkpt lat="43.45223" lon="6.594">
        <ele>239.602005</ele>
        <time>2014-02-02T12:02:13Z</time>
      </trkpt>
      <trkpt lat="43.45216" lon="6.59396">
        <ele>238.517456</ele>
        <time>2014-02-02T12:02:18Z</time>
      </trkpt>
      <trkpt lat="43.45213" lon="6.59395">
        <ele>238.181</ele>
        <time>2014-02-02T12:02:20Z</time>
      </trkpt>
      <trkpt lat="43.45206" lon="6.5939">
        <ele>237.041168</ele>
        <time>2014-02-02T12:02:26Z</time>
      </trkpt>
      <trkpt lat="43.45201" lon="6.59387">
        <ele>236.236374</ele>
        <time>2014-02-02T12:02:31Z</time>
      </trkpt>
      <trkpt lat="43.45194" lon="6.59381">
        <ele>234.624634</ele>
        <time>2014-02-02T12:02:38Z</time>
      </trkpt>
      <trkpt lat="43.4519" lon="6.5938">
        <ele>233.838882</ele>
        <time>2014-02-02T12:02:41Z</time>
      </trkpt>
      <trkpt lat="43.45181" lon="6.59378">
        <ele>232.153809</ele>
        <time>2014-02-02T12:02:48Z</time>
      </trkpt>
      <trkpt lat="43.45167" lon="6.59374">
        <ele>229.216049</ele>
        <time>2014-02-02T12:02:57Z</time>
      </trkpt>
      <trkpt lat="43.45157" lon="6.59371">
        <ele>226.163635</ele>
        <time>2014-02-02T12:03:05Z</time>
      </trkpt>
      <trkpt lat="43.45155" lon="6.59372">
        <ele>225.695007</ele>
        <time>2014-02-02T12:03:08Z</time>
      </trkpt>
      <trkpt lat="43.45147" lon="6.59375">
        <ele>224.673615</ele>
        <time>2014-02-02T12:03:15Z</time>
      </trkpt>
      <trkpt lat="43.45139" lon="6.59374">
        <ele>222.186249</ele>
        <time>2014-02-02T12:03:21Z</time>
      </trkpt>
      <trkpt lat="43.45138" lon="6.59374">
        <ele>222.181458</ele>
        <time>2014-02-02T12:03:22Z</time>
      </trkpt>
      <trkpt lat="43.45133" lon="6.59375">
        <ele>222.507324</ele>
        <time>2014-02-02T12:03:27Z</time>
      </trkpt>
      <trkpt lat="43.45124" lon="6.59378">
        <ele>222.901733</ele>
        <time>2014-02-02T12:03:35Z</time>
      </trkpt>
      <trkpt lat="43.45116" lon="6.59373">
        <ele>221.691772</ele>
        <time>2014-02-02T12:03:40Z</time>
      </trkpt>
      <trkpt lat="43.4511" lon="6.59365">
        <ele>219.726227</ele>
        <time>2014-02-02T12:03:45Z</time>
      </trkpt>
      <trkpt lat="43.45102" lon="6.59362">
        <ele>218.915985</ele>
        <time>2014-02-02T12:03:54Z</time>
      </trkpt>
      <trkpt lat="43.45098" lon="6.59363">
        <ele>219.001816</ele>
        <time>2014-02-02T12:03:58Z</time>
      </trkpt>
      <trkpt lat="43.45096" lon="6.59363">
        <ele>218.919418</ele>
        <time>2014-02-02T12:04:01Z</time>
      </trkpt>
      <trkpt lat="43.45091" lon="6.59364">
        <ele>218.802689</ele>
        <time>2014-02-02T12:04:08Z</time>
      </trkpt>
      <trkpt lat="43.45089" lon="6.59363">
        <ele>218.627594</ele>
        <time>2014-02-02T12:04:11Z</time>
      </trkpt>
      <trkpt lat="43.45087" lon="6.59362">
        <ele>218.328903</ele>
        <time>2014-02-02T12:04:13Z</time>
      </trkpt>
      <trkpt lat="43.45077" lon="6.59363">
        <ele>218.151566</ele>
        <time>2014-02-02T12:04:22Z</time>
      </trkpt>
      <trkpt lat="43.45069" lon="6.59362">
        <ele>217.604019</ele>
        <time>2014-02-02T12:04:28Z</time>
      </trkpt>
      <trkpt lat="43.45065" lon="6.59362">
        <ele>217.463791</ele>
        <time>2014-02-02T12:04:31Z</time>
      </trkpt>
      <trkpt lat="43.45057" lon="6.5936">
        <ele>216.934967</ele>
        <time>2014-02-02T12:04:37Z</time>
      </trkpt>
      <trkpt lat="43.45046" lon="6.59361">
        <ele>214.644318</ele>
        <time>2014-02-02T12:04:45Z</time>
      </trkpt>
      <trkpt lat="43.4504" lon="6.59362">
        <ele>213.283066</ele>
        <time>2014-02-02T12:04:50Z</time>
      </trkpt>
      <trkpt lat="43.45031" lon="6.5936">
        <ele>210.296005</ele>
        <time>2014-02-02T12:04:56Z</time>
      </trkpt>
      <trkpt lat="43.45027" lon="6.59358">
        <ele>208.614792</ele>
        <time>2014-02-02T12:05:00Z</time>
      </trkpt>
      <trkpt lat="43.45024" lon="6.59355">
        <ele>206.98822</ele>
        <time>2014-02-02T12:05:05Z</time>
      </trkpt>
      <trkpt lat="43.45019" lon="6.59351">
        <ele>204.262253</ele>
        <time>2014-02-02T12:05:21Z</time>
      </trkpt>
      <trkpt lat="43.45008" lon="6.59347">
        <ele>200.041245</ele>
        <time>2014-02-02T12:05:48Z</time>
      </trkpt>
      <trkpt lat="43.45007" lon="6.59351">
        <ele>200.345673</ele>
        <time>2014-02-02T12:05:53Z</time>
      </trkpt>
      <trkpt lat="43.45006" lon="6.59356">
        <ele>200.624695</ele>
        <time>2014-02-02T12:06:01Z</time>
      </trkpt>
      <trkpt lat="43.45005" lon="6.59359">
        <ele>200.607574</ele>
        <time>2014-02-02T12:06:07Z</time>
      </trkpt>
      <trkpt lat="43.45002" lon="6.59361">
        <ele>199.630341</ele>
        <time>2014-02-02T12:06:12Z</time>
      </trkpt>
      <trkpt lat="43.44999" lon="6.59358">
        <ele>198.602798</ele>
        <time>2014-02-02T12:06:17Z</time>
      </trkpt>
      <trkpt lat="43.44997" lon="6.59353">
        <ele>197.876678</ele>
        <time>2014-02-02T12:06:23Z</time>
      </trkpt>
      <trkpt lat="43.44994" lon="6.59349">
        <ele>196.996048</ele>
        <time>2014-02-02T12:06:30Z</time>
      </trkpt>
      <trkpt lat="43.4499" lon="6.59348">
        <ele>196.445007</ele>
        <time>2014-02-02T12:06:37Z</time>
      </trkpt>
      <trkpt lat="43.44989" lon="6.59345">
        <ele>196.03302</ele>
        <time>2014-02-02T12:06:42Z</time>
      </trkpt>
      <trkpt lat="43.44985" lon="6.59341">
        <ele>195.229645</ele>
        <time>2014-02-02T12:06:51Z</time>
      </trkpt>
      <trkpt lat="43.44984" lon="6.59341">
        <ele>195.085449</ele>
        <time>2014-02-02T12:06:57Z</time>
      </trkpt>
      <trkpt lat="43.44981" lon="6.59341">
        <ele>194.786774</ele>
        <time>2014-02-02T12:07:04Z</time>
      </trkpt>
      <trkpt lat="43.44981" lon="6.59341">
        <ele>194.766174</ele>
        <time>2014-02-02T12:07:26Z</time>
      </trkpt>
      <trkpt lat="43.44978" lon="6.59339">
        <ele>194.179077</ele>
        <time>2014-02-02T12:07:35Z</time>
      </trkpt>
      <trkpt lat="43.44973" lon="6.59337">
        <ele>193.519897</ele>
        <time>2014-02-02T12:07:39Z</time>
      </trkpt>
      <trkpt lat="43.4497" lon="6.59335">
        <ele>193.033859</ele>
        <time>2014-02-02T12:07:45Z</time>
      </trkpt>
      <trkpt lat="43.44963" lon="6.59332">
        <ele>192.27887</ele>
        <time>2014-02-02T12:07:50Z</time>
      </trkpt>
      <trkpt lat="43.44954" lon="6.59328">
        <ele>191.286667</ele>
        <time>2014-02-02T12:07:57Z</time>
      </trkpt>
      <trkpt lat="43.4495" lon="6.59324">
        <ele>190.685852</ele>
        <time>2014-02-02T12:08:01Z</time>
      </trkpt>
      <trkpt lat="43.44946" lon="6.59317">
        <ele>189.985474</ele>
        <time>2014-02-02T12:08:06Z</time>
      </trkpt>
      <trkpt lat="43.44941" lon="6.59316">
        <ele>189.494522</ele>
        <time>2014-02-02T12:08:10Z</time>
      </trkpt>
      <trkpt lat="43.44936" lon="6.59309">
        <ele>188.673981</ele>
        <time>2014-02-02T12:08:15Z</time>
      </trkpt>
      <trkpt lat="43.44932" lon="6.5931">
        <ele>188.423355</ele>
        <time>2014-02-02T12:08:20Z</time>
      </trkpt>
      <trkpt lat="43.44931" lon="6.59311">
        <ele>188.395889</ele>
        <time>2014-02-02T12:08:21Z</time>
      </trkpt>
      <trkpt lat="43.44925" lon="6.59312">
        <ele>188.073166</ele>
        <time>2014-02-02T12:08:27Z</time>
      </trkpt>
      <trkpt lat="43.44923" lon="6.5931">
        <ele>187.812241</ele>
        <time>2014-02-02T12:08:30Z</time>
      </trkpt>
      <trkpt lat="43.4492" lon="6.5931">
        <ele>187.558182</ele>
        <time>2014-02-02T12:08:33Z</time>
      </trkpt>
      <trkpt lat="43.44912" lon="6.59321">
        <ele>188.885803</ele>
        <time>2014-02-02T12:08:40Z</time>
      </trkpt>
      <trkpt lat="43.4491" lon="6.59324">
        <ele>189.341415</ele>
        <time>2014-02-02T12:08:42Z</time>
      </trkpt>
      <trkpt lat="43.44908" lon="6.5933">
        <ele>190.100311</ele>
        <time>2014-02-02T12:08:46Z</time>
      </trkpt>
      <trkpt lat="43.44905" lon="6.59334">
        <ele>190.751831</ele>
        <time>2014-02-02T12:08:50Z</time>
      </trkpt>
      <trkpt lat="43.44898" lon="6.59345">
        <ele>192.358475</ele>
        <time>2014-02-02T12:08:58Z</time>
      </trkpt>
      <trkpt lat="43.44897" lon="6.59346">
        <ele>192.492447</ele>
        <time>2014-02-02T12:08:59Z</time>
      </trkpt>
      <trkpt lat="43.44891" lon="6.59349">
        <ele>193.364517</ele>
        <time>2014-02-02T12:09:05Z</time>
      </trkpt>
      <trkpt lat="43.44884" lon="6.59357">
        <ele>193.655029</ele>
        <time>2014-02-02T12:09:12Z</time>
      </trkpt>
      <trkpt lat="43.44882" lon="6.59359">
        <ele>193.665329</ele>
        <time>2014-02-02T12:09:14Z</time>
      </trkpt>
      <trkpt lat="43.44876" lon="6.59371">
        <ele>193.750137</ele>
        <time>2014-02-02T12:09:23Z</time>
      </trkpt>
      <trkpt lat="43.4487" lon="6.59376">
        <ele>193.490173</ele>
        <time>2014-02-02T12:09:29Z</time>
      </trkpt>
      <trkpt lat="43.44868" lon="6.59382">
        <ele>193.439255</ele>
        <time>2014-02-02T12:09:34Z</time>
      </trkpt>
      <trkpt lat="43.44859" lon="6.59387">
        <ele>193</ele>
        <time>2014-02-02T12:09:43Z</time>
      </trkpt>
      <trkpt lat="43.4485" lon="6.5939">
        <ele>193</ele>
        <time>2014-02-02T12:09:50Z</time>
      </trkpt>
      <trkpt lat="43.44844" lon="6.59391">
        <ele>193</ele>
        <time>2014-02-02T12:09:55Z</time>
      </trkpt>
      <trkpt lat="43.44839" lon="6.59393">
        <ele>193</ele>
        <time>2014-02-02T12:09:59Z</time>
      </trkpt>
      <trkpt lat="43.44832" lon="6.59403">
        <ele>192.919571</ele>
        <time>2014-02-02T12:10:07Z</time>
      </trkpt>
      <trkpt lat="43.44828" lon="6.5941">
        <ele>192.642838</ele>
        <time>2014-02-02T12:10:12Z</time>
      </trkpt>
      <trkpt lat="43.44823" lon="6.59414">
        <ele>192.298004</ele>
        <time>2014-02-02T12:10:16Z</time>
      </trkpt>
      <trkpt lat="43.44818" lon="6.5942">
        <ele>191.832642</ele>
        <time>2014-02-02T12:10:21Z</time>
      </trkpt>
      <trkpt lat="43.44815" lon="6.59424">
        <ele>191.485153</ele>
        <time>2014-02-02T12:10:25Z</time>
      </trkpt>
      <trkpt lat="43.44813" lon="6.59426">
        <ele>191.279419</ele>
        <time>2014-02-02T12:10:27Z</time>
      </trkpt>
      <trkpt lat="43.44812" lon="6.59431">
        <ele>191.02269</ele>
        <time>2014-02-02T12:10:34Z</time>
      </trkpt>
      <trkpt lat="43.44809" lon="6.5943">
        <ele>190.796677</ele>
        <time>2014-02-02T12:10:40Z</time>
      </trkpt>
      <trkpt lat="43.44807" lon="6.59431">
        <ele>190.574173</ele>
        <time>2014-02-02T12:10:47Z</time>
      </trkpt>
      <trkpt lat="43.44807" lon="6.59431">
        <ele>190.5923</ele>
        <time>2014-02-02T12:10:55Z</time>
      </trkpt>
      <trkpt lat="43.44804" lon="6.59434">
        <ele>190.261169</ele>
        <time>2014-02-02T12:11:00Z</time>
      </trkpt>
      <trkpt lat="43.44796" lon="6.59441">
        <ele>189.480118</ele>
        <time>2014-02-02T12:11:07Z</time>
      </trkpt>
      <trkpt lat="43.44793" lon="6.59445">
        <ele>189.046707</ele>
        <time>2014-02-02T12:11:11Z</time>
      </trkpt>
      <trkpt lat="43.44789" lon="6.5945">
        <ele>188.672394</ele>
        <time>2014-02-02T12:11:16Z</time>
      </trkpt>
      <trkpt lat="43.4478" lon="6.59458">
        <ele>187.735565</ele>
        <time>2014-02-02T12:11:23Z</time>
      </trkpt>
      <trkpt lat="43.44774" lon="6.59465">
        <ele>186.740189</ele>
        <time>2014-02-02T12:11:28Z</time>
      </trkpt>
      <trkpt lat="43.44768" lon="6.5947">
        <ele>185.648422</ele>
        <time>2014-02-02T12:11:32Z</time>
      </trkpt>
      <trkpt lat="43.44759" lon="6.59473">
        <ele>184.318054</ele>
        <time>2014-02-02T12:11:39Z</time>
      </trkpt>
      <trkpt lat="43.44751" lon="6.59474">
        <ele>183.025436</ele>
        <time>2014-02-02T12:11:46Z</time>
      </trkpt>
      <trkpt lat="43.44747" lon="6.59475">
        <ele>182.310303</ele>
        <time>2014-02-02T12:11:49Z</time>
      </trkpt>
      <trkpt lat="43.44745" lon="6.59476">
        <ele>181.905334</ele>
        <time>2014-02-02T12:11:51Z</time>
      </trkpt>
      <trkpt lat="43.44742" lon="6.59479">
        <ele>181.162079</ele>
        <time>2014-02-02T12:11:56Z</time>
      </trkpt>
      <trkpt lat="43.44736" lon="6.59484">
        <ele>179.568832</ele>
        <time>2014-02-02T12:12:02Z</time>
      </trkpt>
      <trkpt lat="43.44732" lon="6.59485">
        <ele>178.706375</ele>
        <time>2014-02-02T12:12:08Z</time>
      </trkpt>
      <trkpt lat="43.44728" lon="6.59492">
        <ele>177.183762</ele>
        <time>2014-02-02T12:12:19Z</time>
      </trkpt>
      <trkpt lat="43.44721" lon="6.595">
        <ele>174.990997</ele>
        <time>2014-02-02T12:12:26Z</time>
      </trkpt>
      <trkpt lat="43.44715" lon="6.5951">
        <ele>174.180786</ele>
        <time>2014-02-02T12:12:33Z</time>
      </trkpt>
      <trkpt lat="43.44713" lon="6.59515">
        <ele>173.745483</ele>
        <time>2014-02-02T12:12:36Z</time>
      </trkpt>
      <trkpt lat="43.44707" lon="6.59525">
        <ele>172.727463</ele>
        <time>2014-02-02T12:12:44Z</time>
      </trkpt>
      <trkpt lat="43.44703" lon="6.59535">
        <ele>171.859787</ele>
        <time>2014-02-02T12:12:51Z</time>
      </trkpt>
      <trkpt lat="43.44699" lon="6.59548">
        <ele>170.822586</ele>
        <time>2014-02-02T12:13:00Z</time>
      </trkpt>
      <trkpt lat="43.44696" lon="6.59557">
        <ele>170.05867</ele>
        <time>2014-02-02T12:13:05Z</time>
      </trkpt>
      <trkpt lat="43.44693" lon="6.59563">
        <ele>169.25502</ele>
        <time>2014-02-02T12:13:09Z</time>
      </trkpt>
      <trkpt lat="43.44692" lon="6.59573">
        <ele>168.413498</ele>
        <time>2014-02-02T12:13:15Z</time>
      </trkpt>
      <trkpt lat="43.44691" lon="6.59579">
        <ele>167.825485</ele>
        <time>2014-02-02T12:13:19Z</time>
      </trkpt>
      <trkpt lat="43.4469" lon="6.59589">
        <ele>166.65593</ele>
        <time>2014-02-02T12:13:25Z</time>
      </trkpt>
      <trkpt lat="43.44691" lon="6.59592">
        <ele>166.437927</ele>
        <time>2014-02-02T12:13:27Z</time>
      </trkpt>
      <trkpt lat="43.4469" lon="6.59604">
        <ele>164.992523</ele>
        <time>2014-02-02T12:13:33Z</time>
      </trkpt>
      <trkpt lat="43.4469" lon="6.59613">
        <ele>164.121826</ele>
        <time>2014-02-02T12:13:39Z</time>
      </trkpt>
      <trkpt lat="43.44691" lon="6.59624">
        <ele>163.938156</ele>
        <time>2014-02-02T12:13:46Z</time>
      </trkpt>
      <trkpt lat="43.44691" lon="6.59637">
        <ele>163.393982</ele>
        <time>2014-02-02T12:13:52Z</time>
      </trkpt>
      <trkpt lat="43.44691" lon="6.59649">
        <ele>162.45108</ele>
        <time>2014-02-02T12:13:58Z</time>
      </trkpt>
      <trkpt lat="43.44693" lon="6.59651">
        <ele>162.432281</ele>
        <time>2014-02-02T12:14:00Z</time>
      </trkpt>
      <trkpt lat="43.44699" lon="6.59655">
        <ele>162.766357</ele>
        <time>2014-02-02T12:14:06Z</time>
      </trkpt>
      <trkpt lat="43.44708" lon="6.59655">
        <ele>163.498474</ele>
        <time>2014-02-02T12:14:11Z</time>
      </trkpt>
      <trkpt lat="43.44719" lon="6.59655">
        <ele>164.534607</ele>
        <time>2014-02-02T12:14:17Z</time>
      </trkpt>
      <trkpt lat="43.44722" lon="6.59655">
        <ele>164.921677</ele>
        <time>2014-02-02T12:14:20Z</time>
      </trkpt>
      <trkpt lat="43.44725" lon="6.59663">
        <ele>165.282608</ele>
        <time>2014-02-02T12:14:27Z</time>
      </trkpt>
      <trkpt lat="43.44725" lon="6.59666">
        <ele>165.040939</ele>
        <time>2014-02-02T12:14:29Z</time>
      </trkpt>
      <trkpt lat="43.44727" lon="6.59678">
        <ele>164.72113</ele>
        <time>2014-02-02T12:14:36Z</time>
      </trkpt>
      <trkpt lat="43.44727" lon="6.5968">
        <ele>164.763916</ele>
        <time>2014-02-02T12:14:38Z</time>
      </trkpt>
      <trkpt lat="43.4473" lon="6.59691">
        <ele>164.691574</ele>
        <time>2014-02-02T12:14:45Z</time>
      </trkpt>
      <trkpt lat="43.44731" lon="6.59698">
        <ele>164.481659</ele>
        <time>2014-02-02T12:14:50Z</time>
      </trkpt>
      <trkpt lat="43.44734" lon="6.59708">
        <ele>164.77005</ele>
        <time>2014-02-02T12:14:56Z</time>
      </trkpt>
      <trkpt lat="43.44736" lon="6.59716">
        <ele>165.082474</ele>
        <time>2014-02-02T12:15:01Z</time>
      </trkpt>
      <trkpt lat="43.44737" lon="6.5973">
        <ele>164.300339</ele>
        <time>2014-02-02T12:15:09Z</time>
      </trkpt>
      <trkpt lat="43.44737" lon="6.59745">
        <ele>163.537933</ele>
        <time>2014-02-02T12:15:17Z</time>
      </trkpt>
      <trkpt lat="43.44737" lon="6.5976">
        <ele>163.581528</ele>
        <time>2014-02-02T12:15:25Z</time>
      </trkpt>
      <trkpt lat="43.44738" lon="6.59777">
        <ele>164.252396</ele>
        <time>2014-02-02T12:15:34Z</time>
      </trkpt>
      <trkpt lat="43.44737" lon="6.59792">
        <ele>165.331329</ele>
        <time>2014-02-02T12:15:42Z</time>
      </trkpt>
      <trkpt lat="43.44737" lon="6.59801">
        <ele>166.137909</ele>
        <time>2014-02-02T12:15:48Z</time>
      </trkpt>
      <trkpt lat="43.44735" lon="6.59809">
        <ele>166.954071</ele>
        <time>2014-02-02T12:15:54Z</time>
      </trkpt>
      <trkpt lat="43.44731" lon="6.59817">
        <ele>167.763245</ele>
        <time>2014-02-02T12:16:00Z</time>
      </trkpt>
      <trkpt lat="43.44728" lon="6.5982">
        <ele>167.968613</ele>
        <time>2014-02-02T12:16:03Z</time>
      </trkpt>
      <trkpt lat="43.44726" lon="6.59821">
        <ele>167.939316</ele>
        <time>2014-02-02T12:16:05Z</time>
      </trkpt>
      <trkpt lat="43.4472" lon="6.59822">
        <ele>167.644989</ele>
        <time>2014-02-02T12:16:11Z</time>
      </trkpt>
      <trkpt lat="43.4472" lon="6.59821">
        <ele>167.494873</ele>
        <time>2014-02-02T12:16:12Z</time>
      </trkpt>
      <trkpt lat="43.44715" lon="6.59813">
        <ele>165.155563</ele>
        <time>2014-02-02T12:16:18Z</time>
      </trkpt>
      <trkpt lat="43.44712" lon="6.59805">
        <ele>163.097931</ele>
        <time>2014-02-02T12:16:23Z</time>
      </trkpt>
      <trkpt lat="43.44711" lon="6.59797">
        <ele>162.322693</ele>
        <time>2014-02-02T12:16:29Z</time>
      </trkpt>
      <trkpt lat="43.44707" lon="6.59792">
        <ele>161.297241</ele>
        <time>2014-02-02T12:16:33Z</time>
      </trkpt>
      <trkpt lat="43.44704" lon="6.5979">
        <ele>160.754425</ele>
        <time>2014-02-02T12:16:36Z</time>
      </trkpt>
      <trkpt lat="43.44698" lon="6.59786">
        <ele>159.708069</ele>
        <time>2014-02-02T12:16:41Z</time>
      </trkpt>
      <trkpt lat="43.44688" lon="6.59783">
        <ele>158.576889</ele>
        <time>2014-02-02T12:16:48Z</time>
      </trkpt>
      <trkpt lat="43.4468" lon="6.59786">
        <ele>157.923386</ele>
        <time>2014-02-02T12:16:54Z</time>
      </trkpt>
      <trkpt lat="43.44673" lon="6.59791">
        <ele>157.529129</ele>
        <time>2014-02-02T12:17:01Z</time>
      </trkpt>
      <trkpt lat="43.44665" lon="6.59799">
        <ele>157.415222</ele>
        <time>2014-02-02T12:17:09Z</time>
      </trkpt>
      <trkpt lat="43.44658" lon="6.59804">
        <ele>157.542343</ele>
        <time>2014-02-02T12:17:16Z</time>
      </trkpt>
      <trkpt lat="43.44652" lon="6.59811">
        <ele>158.595856</ele>
        <time>2014-02-02T12:17:24Z</time>
      </trkpt>
      <trkpt lat="43.44645" lon="6.59816">
        <ele>159.103561</ele>
        <time>2014-02-02T12:17:30Z</time>
      </trkpt>
      <trkpt lat="43.44639" lon="6.59817">
        <ele>159.049911</ele>
        <time>2014-02-02T12:17:36Z</time>
      </trkpt>
      <trkpt lat="43.44631" lon="6.5982">
        <ele>158.755493</ele>
        <time>2014-02-02T12:17:42Z</time>
      </trkpt>
      <trkpt lat="43.44624" lon="6.59824">
        <ele>158.529556</ele>
        <time>2014-02-02T12:17:48Z</time>
      </trkpt>
      <trkpt lat="43.44622" lon="6.59824">
        <ele>158.404587</ele>
        <time>2014-02-02T12:17:49Z</time>
      </trkpt>
      <trkpt lat="43.44617" lon="6.59825">
        <ele>157.794586</ele>
        <time>2014-02-02T12:17:54Z</time>
      </trkpt>
      <trkpt lat="43.44611" lon="6.59827">
        <ele>157.367645</ele>
        <time>2014-02-02T12:17:59Z</time>
      </trkpt>
      <trkpt lat="43.44607" lon="6.59828">
        <ele>156.758759</ele>
        <time>2014-02-02T12:18:02Z</time>
      </trkpt>
      <trkpt lat="43.44593" lon="6.59825">
        <ele>154.544327</ele>
        <time>2014-02-02T12:18:10Z</time>
      </trkpt>
      <trkpt lat="43.44589" lon="6.59825">
        <ele>153.914337</ele>
        <time>2014-02-02T12:18:13Z</time>
      </trkpt>
      <trkpt lat="43.44584" lon="6.59823">
        <ele>153.007965</ele>
        <time>2014-02-02T12:18:17Z</time>
      </trkpt>
      <trkpt lat="43.44579" lon="6.59822">
        <ele>151.51091</ele>
        <time>2014-02-02T12:18:21Z</time>
      </trkpt>
      <trkpt lat="43.44571" lon="6.59814">
        <ele>148.877884</ele>
        <time>2014-02-02T12:18:28Z</time>
      </trkpt>
      <trkpt lat="43.4457" lon="6.59813">
        <ele>148.644028</ele>
        <time>2014-02-02T12:18:29Z</time>
      </trkpt>
      <trkpt lat="43.44561" lon="6.59811">
        <ele>146.43895</ele>
        <time>2014-02-02T12:18:36Z</time>
      </trkpt>
      <trkpt lat="43.44554" lon="6.59806">
        <ele>144.760498</ele>
        <time>2014-02-02T12:18:42Z</time>
      </trkpt>
      <trkpt lat="43.44553" lon="6.59805">
        <ele>144.460205</ele>
        <time>2014-02-02T12:18:43Z</time>
      </trkpt>
      <trkpt lat="43.44546" lon="6.59807">
        <ele>143.279327</ele>
        <time>2014-02-02T12:18:48Z</time>
      </trkpt>
      <trkpt lat="43.4454" lon="6.59812">
        <ele>142.376419</ele>
        <time>2014-02-02T12:18:53Z</time>
      </trkpt>
      <trkpt lat="43.44532" lon="6.59816">
        <ele>140.746445</ele>
        <time>2014-02-02T12:19:01Z</time>
      </trkpt>
      <trkpt lat="43.44525" lon="6.59819">
        <ele>140</ele>
        <time>2014-02-02T12:19:07Z</time>
      </trkpt>
      <trkpt lat="43.44521" lon="6.5982">
        <ele>140</ele>
        <time>2014-02-02T12:19:10Z</time>
      </trkpt>
      <trkpt lat="43.44515" lon="6.59827">
        <ele>140</ele>
        <time>2014-02-02T12:19:15Z</time>
      </trkpt>
      <trkpt lat="43.4451" lon="6.59829">
        <ele>140</ele>
        <time>2014-02-02T12:19:19Z</time>
      </trkpt>
      <trkpt lat="43.44501" lon="6.59831">
        <ele>140</ele>
        <time>2014-02-02T12:19:25Z</time>
      </trkpt>
      <trkpt lat="43.44495" lon="6.59832">
        <ele>140</ele>
        <time>2014-02-02T12:19:28Z</time>
      </trkpt>
      <trkpt lat="43.44488" lon="6.59833">
        <ele>140</ele>
        <time>2014-02-02T12:19:32Z</time>
      </trkpt>
      <trkpt lat="43.44478" lon="6.59837">
        <ele>140</ele>
        <time>2014-02-02T12:19:39Z</time>
      </trkpt>
      <trkpt lat="43.44469" lon="6.59841">
        <ele>139.872803</ele>
        <time>2014-02-02T12:19:47Z</time>
      </trkpt>
      <trkpt lat="43.44466" lon="6.59842">
        <ele>139.776672</ele>
        <time>2014-02-02T12:19:49Z</time>
      </trkpt>
      <trkpt lat="43.4446" lon="6.59845">
        <ele>139.543213</ele>
        <time>2014-02-02T12:19:53Z</time>
      </trkpt>
      <trkpt lat="43.44455" lon="6.59854">
        <ele>139.378418</ele>
        <time>2014-02-02T12:19:59Z</time>
      </trkpt>
      <trkpt lat="43.44451" lon="6.59866">
        <ele>139.078857</ele>
        <time>2014-02-02T12:20:06Z</time>
      </trkpt>
      <trkpt lat="43.44449" lon="6.5987">
        <ele>138.845398</ele>
        <time>2014-02-02T12:20:09Z</time>
      </trkpt>
      <trkpt lat="43.44448" lon="6.59876">
        <ele>138.591339</ele>
        <time>2014-02-02T12:20:13Z</time>
      </trkpt>
      <trkpt lat="43.44445" lon="6.59885">
        <ele>138.193085</ele>
        <time>2014-02-02T12:20:18Z</time>
      </trkpt>
      <trkpt lat="43.44438" lon="6.59892">
        <ele>135.855927</ele>
        <time>2014-02-02T12:20:26Z</time>
      </trkpt>
      <trkpt lat="43.44433" lon="6.59902">
        <ele>133.580673</ele>
        <time>2014-02-02T12:20:33Z</time>
      </trkpt>
      <trkpt lat="43.44432" lon="6.59906">
        <ele>132.891769</ele>
        <time>2014-02-02T12:20:35Z</time>
      </trkpt>
      <trkpt lat="43.44429" lon="6.59918">
        <ele>130.901367</ele>
        <time>2014-02-02T12:20:43Z</time>
      </trkpt>
      <trkpt lat="43.44429" lon="6.59919">
        <ele>130.631546</ele>
        <time>2014-02-02T12:20:44Z</time>
      </trkpt>
      <trkpt lat="43.44424" lon="6.5993">
        <ele>127.817978</ele>
        <time>2014-02-02T12:20:51Z</time>
      </trkpt>
      <trkpt lat="43.44416" lon="6.59938">
        <ele>123.434677</ele>
        <time>2014-02-02T12:20:59Z</time>
      </trkpt>
      <trkpt lat="43.44408" lon="6.59955">
        <ele>121.655724</ele>
        <time>2014-02-02T12:21:08Z</time>
      </trkpt>
      <trkpt lat="43.44402" lon="6.59962">
        <ele>120.906525</ele>
        <time>2014-02-02T12:21:15Z</time>
      </trkpt>
      <trkpt lat="43.44396" lon="6.59965">
        <ele>120.58152</ele>
        <time>2014-02-02T12:21:21Z</time>
      </trkpt>
      <trkpt lat="43.44388" lon="6.59972">
        <ele>120.041779</ele>
        <time>2014-02-02T12:21:28Z</time>
      </trkpt>
      <trkpt lat="43.44386" lon="6.59983">
        <ele>119.611458</ele>
        <time>2014-02-02T12:21:34Z</time>
      </trkpt>
      <trkpt lat="43.44385" lon="6.59992">
        <ele>119.302467</ele>
        <time>2014-02-02T12:21:40Z</time>
      </trkpt>
      <trkpt lat="43.44382" lon="6.59997">
        <ele>119.122223</ele>
        <time>2014-02-02T12:21:46Z</time>
      </trkpt>
      <trkpt lat="43.44379" lon="6.60001">
        <ele>118.964294</ele>
        <time>2014-02-02T12:21:52Z</time>
      </trkpt>
      <trkpt lat="43.44374" lon="6.6001">
        <ele>118.632988</ele>
        <time>2014-02-02T12:21:58Z</time>
      </trkpt>
      <trkpt lat="43.44373" lon="6.60012">
        <ele>118.578056</ele>
        <time>2014-02-02T12:21:59Z</time>
      </trkpt>
      <trkpt lat="43.4437" lon="6.60023">
        <ele>118.183235</ele>
        <time>2014-02-02T12:22:06Z</time>
      </trkpt>
      <trkpt lat="43.44368" lon="6.60028">
        <ele>118.006424</ele>
        <time>2014-02-02T12:22:09Z</time>
      </trkpt>
      <trkpt lat="43.44368" lon="6.60033">
        <ele>117.858833</ele>
        <time>2014-02-02T12:22:13Z</time>
      </trkpt>
      <trkpt lat="43.44369" lon="6.60044">
        <ele>117.578896</ele>
        <time>2014-02-02T12:22:20Z</time>
      </trkpt>
      <trkpt lat="43.44367" lon="6.60054">
        <ele>117.259651</ele>
        <time>2014-02-02T12:22:27Z</time>
      </trkpt>
      <trkpt lat="43.44367" lon="6.60056">
        <ele>117.196304</ele>
        <time>2014-02-02T12:22:29Z</time>
      </trkpt>
      <trkpt lat="43.4437" lon="6.60068">
        <ele>116.875298</ele>
        <time>2014-02-02T12:22:36Z</time>
      </trkpt>
      <trkpt lat="43.44368" lon="6.60075">
        <ele>116.557724</ele>
        <time>2014-02-02T12:22:41Z</time>
      </trkpt>
      <trkpt lat="43.44365" lon="6.60087">
        <ele>116.10733</ele>
        <time>2014-02-02T12:22:48Z</time>
      </trkpt>
      <trkpt lat="43.44361" lon="6.60096">
        <ele>116.007477</ele>
        <time>2014-02-02T12:22:55Z</time>
      </trkpt>
      <trkpt lat="43.44357" lon="6.60105">
        <ele>116</ele>
        <time>2014-02-02T12:23:03Z</time>
      </trkpt>
      <trkpt lat="43.44353" lon="6.60103">
        <ele>116</ele>
        <time>2014-02-02T12:23:08Z</time>
      </trkpt>
      <trkpt lat="43.44352" lon="6.60104">
        <ele>116</ele>
        <time>2014-02-02T12:23:14Z</time>
      </trkpt>
      <trkpt lat="43.44353" lon="6.60105">
        <ele>116</ele>
        <time>2014-02-02T12:23:20Z</time>
      </trkpt>
      <trkpt lat="43.44352" lon="6.60109">
        <ele>116</ele>
        <time>2014-02-02T12:23:30Z</time>
      </trkpt>
      <trkpt lat="43.4435" lon="6.60113">
        <ele>115.894257</ele>
        <time>2014-02-02T12:23:34Z</time>
      </trkpt>
      <trkpt lat="43.44347" lon="6.60115">
        <ele>115.78035</ele>
        <time>2014-02-02T12:23:37Z</time>
      </trkpt>
      <trkpt lat="43.44344" lon="6.60117">
        <ele>115.631325</ele>
        <time>2014-02-02T12:23:42Z</time>
      </trkpt>
      <trkpt lat="43.44336" lon="6.60126">
        <ele>114.96389</ele>
        <time>2014-02-02T12:23:51Z</time>
      </trkpt>
      <trkpt lat="43.44332" lon="6.60131">
        <ele>114.586639</ele>
        <time>2014-02-02T12:23:57Z</time>
      </trkpt>
      <trkpt lat="43.44328" lon="6.60134">
        <ele>114.334961</ele>
        <time>2014-02-02T12:24:02Z</time>
      </trkpt>
      <trkpt lat="43.44325" lon="6.60138">
        <ele>114.061356</ele>
        <time>2014-02-02T12:24:06Z</time>
      </trkpt>
      <trkpt lat="43.44321" lon="6.60141">
        <ele>113.889839</ele>
        <time>2014-02-02T12:24:13Z</time>
      </trkpt>
      <trkpt lat="43.4432" lon="6.60141">
        <ele>113.891861</ele>
        <time>2014-02-02T12:24:14Z</time>
      </trkpt>
      <trkpt lat="43.44314" lon="6.60143">
        <ele>113.7659</ele>
        <time>2014-02-02T12:24:20Z</time>
      </trkpt>
      <trkpt lat="43.4431" lon="6.60142">
        <ele>113.813354</ele>
        <time>2014-02-02T12:24:25Z</time>
      </trkpt>
      <trkpt lat="43.44307" lon="6.60142">
        <ele>113.803604</ele>
        <time>2014-02-02T12:24:30Z</time>
      </trkpt>
      <trkpt lat="43.44305" lon="6.60144">
        <ele>113.606857</ele>
        <time>2014-02-02T12:24:35Z</time>
      </trkpt>
      <trkpt lat="43.44298" lon="6.60148">
        <ele>113.071274</ele>
        <time>2014-02-02T12:24:41Z</time>
      </trkpt>
      <trkpt lat="43.44297" lon="6.60149">
        <ele>112.978577</ele>
        <time>2014-02-02T12:24:42Z</time>
      </trkpt>
      <trkpt lat="43.44288" lon="6.60156">
        <ele>112.123703</ele>
        <time>2014-02-02T12:24:50Z</time>
      </trkpt>
      <trkpt lat="43.44281" lon="6.60161">
        <ele>111.529755</ele>
        <time>2014-02-02T12:24:56Z</time>
      </trkpt>
      <trkpt lat="43.44277" lon="6.60167">
        <ele>111.116615</ele>
        <time>2014-02-02T12:25:01Z</time>
      </trkpt>
      <trkpt lat="43.44269" lon="6.60177">
        <ele>111.219406</ele>
        <time>2014-02-02T12:25:09Z</time>
      </trkpt>
      <trkpt lat="43.44264" lon="6.60187">
        <ele>110.97908</ele>
        <time>2014-02-02T12:25:16Z</time>
      </trkpt>
      <trkpt lat="43.44262" lon="6.60196">
        <ele>110.564751</ele>
        <time>2014-02-02T12:25:21Z</time>
      </trkpt>
      <trkpt lat="43.4426" lon="6.60207">
        <ele>109.708832</ele>
        <time>2014-02-02T12:25:27Z</time>
      </trkpt>
      <trkpt lat="43.44257" lon="6.6022">
        <ele>108.679581</ele>
        <time>2014-02-02T12:25:35Z</time>
      </trkpt>
      <trkpt lat="43.44253" lon="6.60225">
        <ele>108.527512</ele>
        <time>2014-02-02T12:25:40Z</time>
      </trkpt>
      <trkpt lat="43.44252" lon="6.60233">
        <ele>107.752098</ele>
        <time>2014-02-02T12:25:46Z</time>
      </trkpt>
      <trkpt lat="43.4425" lon="6.60241">
        <ele>106.968636</ele>
        <time>2014-02-02T12:25:52Z</time>
      </trkpt>
      <trkpt lat="43.44249" lon="6.60246">
        <ele>106.528305</ele>
        <time>2014-02-02T12:25:55Z</time>
      </trkpt>
      <trkpt lat="43.4425" lon="6.60248">
        <ele>106.167137</ele>
        <time>2014-02-02T12:26:03Z</time>
      </trkpt>
      <trkpt lat="43.44251" lon="6.60249">
        <ele>106.021301</ele>
        <time>2014-02-02T12:26:08Z</time>
      </trkpt>
      <trkpt lat="43.44249" lon="6.60256">
        <ele>105.642395</ele>
        <time>2014-02-02T12:26:13Z</time>
      </trkpt>
      <trkpt lat="43.44248" lon="6.60262">
        <ele>105.305939</ele>
        <time>2014-02-02T12:26:17Z</time>
      </trkpt>
      <trkpt lat="43.44241" lon="6.60272">
        <ele>105.010681</ele>
        <time>2014-02-02T12:26:25Z</time>
      </trkpt>
      <trkpt lat="43.44238" lon="6.60277">
        <ele>104.921417</ele>
        <time>2014-02-02T12:26:29Z</time>
      </trkpt>
      <trkpt lat="43.44239" lon="6.60285">
        <ele>104.029846</ele>
        <time>2014-02-02T12:26:36Z</time>
      </trkpt>
      <trkpt lat="43.44237" lon="6.60292">
        <ele>103.399849</ele>
        <time>2014-02-02T12:26:42Z</time>
      </trkpt>
      <trkpt lat="43.44236" lon="6.60296">
        <ele>102.980995</ele>
        <time>2014-02-02T12:26:46Z</time>
      </trkpt>
      <trkpt lat="43.44236" lon="6.60303">
        <ele>102.244568</ele>
        <time>2014-02-02T12:26:50Z</time>
      </trkpt>
      <trkpt lat="43.44239" lon="6.60316">
        <ele>101.110695</ele>
        <time>2014-02-02T12:26:56Z</time>
      </trkpt>
      <trkpt lat="43.44239" lon="6.60318">
        <ele>101.000153</ele>
        <time>2014-02-02T12:26:57Z</time>
      </trkpt>
      <trkpt lat="43.44237" lon="6.60325">
        <ele>100.557823</ele>
        <time>2014-02-02T12:27:02Z</time>
      </trkpt>
      <trkpt lat="43.44236" lon="6.60329">
        <ele>100.289063</ele>
        <time>2014-02-02T12:27:06Z</time>
      </trkpt>
      <trkpt lat="43.44236" lon="6.6033">
        <ele>100.226547</ele>
        <time>2014-02-02T12:27:07Z</time>
      </trkpt>
      <trkpt lat="43.44235" lon="6.60337">
        <ele>99.741501</ele>
        <time>2014-02-02T12:27:12Z</time>
      </trkpt>
      <trkpt lat="43.44234" lon="6.60339">
        <ele>99.576706</ele>
        <time>2014-02-02T12:27:13Z</time>
      </trkpt>
      <trkpt lat="43.44234" lon="6.60346">
        <ele>99.065155</ele>
        <time>2014-02-02T12:27:18Z</time>
      </trkpt>
      <trkpt lat="43.44232" lon="6.60355">
        <ele>98.419708</ele>
        <time>2014-02-02T12:27:23Z</time>
      </trkpt>
      <trkpt lat="43.44229" lon="6.60361">
        <ele>98.02832</ele>
        <time>2014-02-02T12:27:28Z</time>
      </trkpt>
      <trkpt lat="43.44225" lon="6.60367">
        <ele>97.554535</ele>
        <time>2014-02-02T12:27:33Z</time>
      </trkpt>
      <trkpt lat="43.44225" lon="6.60368">
        <ele>97.49617</ele>
        <time>2014-02-02T12:27:34Z</time>
      </trkpt>
      <trkpt lat="43.44224" lon="6.60373">
        <ele>97.108215</ele>
        <time>2014-02-02T12:27:38Z</time>
      </trkpt>
      <trkpt lat="43.44219" lon="6.60383">
        <ele>96.896622</ele>
        <time>2014-02-02T12:27:44Z</time>
      </trkpt>
      <trkpt lat="43.44218" lon="6.60385">
        <ele>96.97242</ele>
        <time>2014-02-02T12:27:46Z</time>
      </trkpt>
      <trkpt lat="43.44211" lon="6.60396">
        <ele>97.300636</ele>
        <time>2014-02-02T12:27:54Z</time>
      </trkpt>
      <trkpt lat="43.44209" lon="6.60402">
        <ele>97.241226</ele>
        <time>2014-02-02T12:27:59Z</time>
      </trkpt>
      <trkpt lat="43.44205" lon="6.60412">
        <ele>97.139458</ele>
        <time>2014-02-02T12:28:05Z</time>
      </trkpt>
      <trkpt lat="43.44205" lon="6.60413">
        <ele>97.107544</ele>
        <time>2014-02-02T12:28:06Z</time>
      </trkpt>
      <trkpt lat="43.44205" lon="6.60422">
        <ele>96.395935</ele>
        <time>2014-02-02T12:28:13Z</time>
      </trkpt>
      <trkpt lat="43.44205" lon="6.6043">
        <ele>95.576988</ele>
        <time>2014-02-02T12:28:18Z</time>
      </trkpt>
      <trkpt lat="43.44207" lon="6.60439">
        <ele>94.60659</ele>
        <time>2014-02-02T12:28:24Z</time>
      </trkpt>
      <trkpt lat="43.44208" lon="6.60452">
        <ele>93.237</ele>
        <time>2014-02-02T12:28:34Z</time>
      </trkpt>
      <trkpt lat="43.44209" lon="6.60459">
        <ele>92.425041</ele>
        <time>2014-02-02T12:28:38Z</time>
      </trkpt>
      <trkpt lat="43.44209" lon="6.6047">
        <ele>91.177063</ele>
        <time>2014-02-02T12:28:44Z</time>
      </trkpt>
      <trkpt lat="43.44209" lon="6.6048">
        <ele>90.589897</ele>
        <time>2014-02-02T12:28:50Z</time>
      </trkpt>
      <trkpt lat="43.44209" lon="6.60486">
        <ele>90.228516</ele>
        <time>2014-02-02T12:28:56Z</time>
      </trkpt>
      <trkpt lat="43.44209" lon="6.60495">
        <ele>89.7397</ele>
        <time>2014-02-02T12:29:03Z</time>
      </trkpt>
      <trkpt lat="43.4421" lon="6.60504">
        <ele>89.149582</ele>
        <time>2014-02-02T12:29:14Z</time>
      </trkpt>
      <trkpt lat="43.44209" lon="6.60513">
        <ele>88.528168</ele>
        <time>2014-02-02T12:29:34Z</time>
      </trkpt>
      <trkpt lat="43.44209" lon="6.60515">
        <ele>88.428604</ele>
        <time>2014-02-02T12:29:35Z</time>
      </trkpt>
      <trkpt lat="43.44208" lon="6.60522">
        <ele>87.965118</ele>
        <time>2014-02-02T12:29:40Z</time>
      </trkpt>
      <trkpt lat="43.44208" lon="6.60523">
        <ele>87.865555</ele>
        <time>2014-02-02T12:29:41Z</time>
      </trkpt>
      <trkpt lat="43.44207" lon="6.60533">
        <ele>87.097786</ele>
        <time>2014-02-02T12:29:47Z</time>
      </trkpt>
      <trkpt lat="43.44205" lon="6.60543">
        <ele>86.166397</ele>
        <time>2014-02-02T12:29:53Z</time>
      </trkpt>
      <trkpt lat="43.44205" lon="6.60545">
        <ele>85.998093</ele>
        <time>2014-02-02T12:29:55Z</time>
      </trkpt>
      <trkpt lat="43.44204" lon="6.60554">
        <ele>85.187263</ele>
        <time>2014-02-02T12:30:01Z</time>
      </trkpt>
      <trkpt lat="43.44204" lon="6.60555">
        <ele>85.073204</ele>
        <time>2014-02-02T12:30:02Z</time>
      </trkpt>
      <trkpt lat="43.44203" lon="6.60562">
        <ele>84.564133</ele>
        <time>2014-02-02T12:30:07Z</time>
      </trkpt>
      <trkpt lat="43.44203" lon="6.60567">
        <ele>84.155579</ele>
        <time>2014-02-02T12:30:11Z</time>
      </trkpt>
      <trkpt lat="43.44201" lon="6.60575">
        <ele>83.565063</ele>
        <time>2014-02-02T12:30:17Z</time>
      </trkpt>
      <trkpt lat="43.442" lon="6.60581">
        <ele>83.190842</ele>
        <time>2014-02-02T12:30:21Z</time>
      </trkpt>
      <trkpt lat="43.44199" lon="6.60588">
        <ele>82.503769</ele>
        <time>2014-02-02T12:30:26Z</time>
      </trkpt>
      <trkpt lat="43.44197" lon="6.60594">
        <ele>81.875908</ele>
        <time>2014-02-02T12:30:31Z</time>
      </trkpt>
      <trkpt lat="43.44194" lon="6.60603">
        <ele>80.839066</ele>
        <time>2014-02-02T12:30:37Z</time>
      </trkpt>
      <trkpt lat="43.44191" lon="6.60615">
        <ele>80.209381</ele>
        <time>2014-02-02T12:30:44Z</time>
      </trkpt>
      <trkpt lat="43.44191" lon="6.60621">
        <ele>79.915527</ele>
        <time>2014-02-02T12:30:50Z</time>
      </trkpt>
      <trkpt lat="43.44189" lon="6.60629">
        <ele>79.678291</ele>
        <time>2014-02-02T12:30:55Z</time>
      </trkpt>
      <trkpt lat="43.44187" lon="6.60635">
        <ele>79.477371</ele>
        <time>2014-02-02T12:31:00Z</time>
      </trkpt>
      <trkpt lat="43.44186" lon="6.60642">
        <ele>79.215172</ele>
        <time>2014-02-02T12:31:06Z</time>
      </trkpt>
      <trkpt lat="43.44183" lon="6.60648">
        <ele>79.081276</ele>
        <time>2014-02-02T12:31:11Z</time>
      </trkpt>
      <trkpt lat="43.44183" lon="6.60652">
        <ele>78.943947</ele>
        <time>2014-02-02T12:31:13Z</time>
      </trkpt>
      <trkpt lat="43.44181" lon="6.60663">
        <ele>78.616074</ele>
        <time>2014-02-02T12:31:19Z</time>
      </trkpt>
      <trkpt lat="43.4418" lon="6.60671">
        <ele>78.370598</ele>
        <time>2014-02-02T12:31:24Z</time>
      </trkpt>
      <trkpt lat="43.44179" lon="6.60677">
        <ele>78.174904</ele>
        <time>2014-02-02T12:31:28Z</time>
      </trkpt>
      <trkpt lat="43.44177" lon="6.60681">
        <ele>78.119972</ele>
        <time>2014-02-02T12:31:30Z</time>
      </trkpt>
      <trkpt lat="43.44173" lon="6.60694">
        <ele>77.800682</ele>
        <time>2014-02-02T12:31:36Z</time>
      </trkpt>
      <trkpt lat="43.44171" lon="6.60708">
        <ele>77.357796</ele>
        <time>2014-02-02T12:31:44Z</time>
      </trkpt>
      <trkpt lat="43.44172" lon="6.6072">
        <ele>76.890877</ele>
        <time>2014-02-02T12:31:51Z</time>
      </trkpt>
      <trkpt lat="43.44173" lon="6.60726">
        <ele>76.655701</ele>
        <time>2014-02-02T12:31:56Z</time>
      </trkpt>
      <trkpt lat="43.44174" lon="6.60727">
        <ele>76.571587</ele>
        <time>2014-02-02T12:31:58Z</time>
      </trkpt>
      <trkpt lat="43.44173" lon="6.60733">
        <ele>76.372459</ele>
        <time>2014-02-02T12:32:03Z</time>
      </trkpt>
      <trkpt lat="43.44175" lon="6.6074">
        <ele>76.085785</ele>
        <time>2014-02-02T12:32:07Z</time>
      </trkpt>
      <trkpt lat="43.44174" lon="6.60747">
        <ele>75.836876</ele>
        <time>2014-02-02T12:32:13Z</time>
      </trkpt>
      <trkpt lat="43.44174" lon="6.60755">
        <ele>75.558784</ele>
        <time>2014-02-02T12:32:18Z</time>
      </trkpt>
      <trkpt lat="43.44173" lon="6.60768">
        <ele>75.133064</ele>
        <time>2014-02-02T12:32:25Z</time>
      </trkpt>
      <trkpt lat="43.44173" lon="6.60779">
        <ele>74.726227</ele>
        <time>2014-02-02T12:32:32Z</time>
      </trkpt>
      <trkpt lat="43.44172" lon="6.60784">
        <ele>74.616364</ele>
        <time>2014-02-02T12:32:35Z</time>
      </trkpt>
      <trkpt lat="43.44169" lon="6.60799">
        <ele>74.152878</ele>
        <time>2014-02-02T12:32:43Z</time>
      </trkpt>
      <trkpt lat="43.4417" lon="6.60809">
        <ele>73.714394</ele>
        <time>2014-02-02T12:32:50Z</time>
      </trkpt>
      <trkpt lat="43.44174" lon="6.60817">
        <ele>73.228912</ele>
        <time>2014-02-02T12:32:56Z</time>
      </trkpt>
      <trkpt lat="43.44175" lon="6.60819">
        <ele>73.071129</ele>
        <time>2014-02-02T12:32:58Z</time>
      </trkpt>
      <trkpt lat="43.44181" lon="6.60826">
        <ele>72.366768</ele>
        <time>2014-02-02T12:33:04Z</time>
      </trkpt>
      <trkpt lat="43.44188" lon="6.60834">
        <ele>71.43399</ele>
        <time>2014-02-02T12:33:10Z</time>
      </trkpt>
      <trkpt lat="43.44194" lon="6.60841">
        <ele>70.778244</ele>
        <time>2014-02-02T12:33:17Z</time>
      </trkpt>
      <trkpt lat="43.44199" lon="6.60845">
        <ele>70.723267</ele>
        <time>2014-02-02T12:33:22Z</time>
      </trkpt>
      <trkpt lat="43.44206" lon="6.60852">
        <ele>70.724983</ele>
        <time>2014-02-02T12:33:28Z</time>
      </trkpt>
      <trkpt lat="43.44215" lon="6.60861">
        <ele>70.742149</ele>
        <time>2014-02-02T12:33:36Z</time>
      </trkpt>
      <trkpt lat="43.4422" lon="6.60863">
        <ele>70.850296</ele>
        <time>2014-02-02T12:33:41Z</time>
      </trkpt>
      <trkpt lat="43.44227" lon="6.6087">
        <ele>72.550941</ele>
        <time>2014-02-02T12:33:48Z</time>
      </trkpt>
      <trkpt lat="43.44231" lon="6.60878">
        <ele>73.898163</ele>
        <time>2014-02-02T12:33:55Z</time>
      </trkpt>
      <trkpt lat="43.44234" lon="6.60881">
        <ele>74.709328</ele>
        <time>2014-02-02T12:33:58Z</time>
      </trkpt>
      <trkpt lat="43.44238" lon="6.6089">
        <ele>76.301956</ele>
        <time>2014-02-02T12:34:06Z</time>
      </trkpt>
      <trkpt lat="43.44243" lon="6.60899">
        <ele>77.970505</ele>
        <time>2014-02-02T12:34:12Z</time>
      </trkpt>
      <trkpt lat="43.44245" lon="6.60902">
        <ele>78.614235</ele>
        <time>2014-02-02T12:34:15Z</time>
      </trkpt>
      <trkpt lat="43.44247" lon="6.60912">
        <ele>79.019356</ele>
        <time>2014-02-02T12:34:22Z</time>
      </trkpt>
      <trkpt lat="43.4425" lon="6.60923">
        <ele>79.58683</ele>
        <time>2014-02-02T12:34:30Z</time>
      </trkpt>
      <trkpt lat="43.44254" lon="6.60932">
        <ele>79.364449</ele>
        <time>2014-02-02T12:34:37Z</time>
      </trkpt>
      <trkpt lat="43.44257" lon="6.60946">
        <ele>78.980553</ele>
        <time>2014-02-02T12:34:45Z</time>
      </trkpt>
      <trkpt lat="43.44258" lon="6.60954">
        <ele>78.563972</ele>
        <time>2014-02-02T12:34:50Z</time>
      </trkpt>
      <trkpt lat="43.44262" lon="6.60966">
        <ele>78.433167</ele>
        <time>2014-02-02T12:34:57Z</time>
      </trkpt>
      <trkpt lat="43.44262" lon="6.60971">
        <ele>78.283775</ele>
        <time>2014-02-02T12:35:00Z</time>
      </trkpt>
      <trkpt lat="43.44263" lon="6.60983">
        <ele>77.373367</ele>
        <time>2014-02-02T12:35:07Z</time>
      </trkpt>
      <trkpt lat="43.44268" lon="6.60998">
        <ele>77.080246</ele>
        <time>2014-02-02T12:35:17Z</time>
      </trkpt>
      <trkpt lat="43.44269" lon="6.61002">
        <ele>76.797699</ele>
        <time>2014-02-02T12:35:20Z</time>
      </trkpt>
      <trkpt lat="43.44271" lon="6.61007">
        <ele>76.612305</ele>
        <time>2014-02-02T12:35:23Z</time>
      </trkpt>
      <trkpt lat="43.44277" lon="6.61019">
        <ele>75.994324</ele>
        <time>2014-02-02T12:35:31Z</time>
      </trkpt>
      <trkpt lat="43.44281" lon="6.61028">
        <ele>75.540718</ele>
        <time>2014-02-02T12:35:37Z</time>
      </trkpt>
      <trkpt lat="43.44285" lon="6.61036">
        <ele>75.134888</ele>
        <time>2014-02-02T12:35:43Z</time>
      </trkpt>
      <trkpt lat="43.44288" lon="6.61042">
        <ele>74.863663</ele>
        <time>2014-02-02T12:35:48Z</time>
      </trkpt>
      <trkpt lat="43.44291" lon="6.61054">
        <ele>74.082603</ele>
        <time>2014-02-02T12:35:56Z</time>
      </trkpt>
      <trkpt lat="43.44296" lon="6.61065">
        <ele>73.045914</ele>
        <time>2014-02-02T12:36:03Z</time>
      </trkpt>
      <trkpt lat="43.44296" lon="6.61066">
        <ele>72.872795</ele>
        <time>2014-02-02T12:36:04Z</time>
      </trkpt>
      <trkpt lat="43.443" lon="6.61074">
        <ele>72.035622</ele>
        <time>2014-02-02T12:36:10Z</time>
      </trkpt>
      <trkpt lat="43.44307" lon="6.61082">
        <ele>71.451813</ele>
        <time>2014-02-02T12:36:17Z</time>
      </trkpt>
      <trkpt lat="43.44313" lon="6.61088">
        <ele>71.207458</ele>
        <time>2014-02-02T12:36:23Z</time>
      </trkpt>
      <trkpt lat="43.4432" lon="6.61098">
        <ele>70.397217</ele>
        <time>2014-02-02T12:36:31Z</time>
      </trkpt>
      <trkpt lat="43.4432" lon="6.61099">
        <ele>70.29422</ele>
        <time>2014-02-02T12:36:32Z</time>
      </trkpt>
      <trkpt lat="43.44327" lon="6.61112">
        <ele>69.209511</ele>
        <time>2014-02-02T12:36:40Z</time>
      </trkpt>
      <trkpt lat="43.44328" lon="6.61126">
        <ele>67.808754</ele>
        <time>2014-02-02T12:36:47Z</time>
      </trkpt>
      <trkpt lat="43.44327" lon="6.61139">
        <ele>66.3256</ele>
        <time>2014-02-02T12:36:54Z</time>
      </trkpt>
      <trkpt lat="43.44325" lon="6.61149">
        <ele>64.339241</ele>
        <time>2014-02-02T12:37:01Z</time>
      </trkpt>
      <trkpt lat="43.44324" lon="6.6115">
        <ele>64.083466</ele>
        <time>2014-02-02T12:37:02Z</time>
      </trkpt>
      <trkpt lat="43.44323" lon="6.61157">
        <ele>62.632927</ele>
        <time>2014-02-02T12:37:07Z</time>
      </trkpt>
      <trkpt lat="43.44321" lon="6.61167">
        <ele>60.617714</ele>
        <time>2014-02-02T12:37:15Z</time>
      </trkpt>
      <trkpt lat="43.4432" lon="6.61175">
        <ele>59.649544</ele>
        <time>2014-02-02T12:37:21Z</time>
      </trkpt>
      <trkpt lat="43.44319" lon="6.61184">
        <ele>58.532028</ele>
        <time>2014-02-02T12:37:27Z</time>
      </trkpt>
      <trkpt lat="43.44319" lon="6.61192">
        <ele>57.672005</ele>
        <time>2014-02-02T12:37:32Z</time>
      </trkpt>
      <trkpt lat="43.44318" lon="6.61205">
        <ele>55.879028</ele>
        <time>2014-02-02T12:37:39Z</time>
      </trkpt>
      <trkpt lat="43.44322" lon="6.61214">
        <ele>54.952057</ele>
        <time>2014-02-02T12:37:46Z</time>
      </trkpt>
      <trkpt lat="43.44325" lon="6.61218">
        <ele>54.704865</ele>
        <time>2014-02-02T12:37:52Z</time>
      </trkpt>
      <trkpt lat="43.44329" lon="6.61222">
        <ele>54.601868</ele>
        <time>2014-02-02T12:37:58Z</time>
      </trkpt>
      <trkpt lat="43.44336" lon="6.61227">
        <ele>55.157345</ele>
        <time>2014-02-02T12:38:07Z</time>
      </trkpt>
      <trkpt lat="43.44342" lon="6.61226">
        <ele>56.745316</ele>
        <time>2014-02-02T12:38:12Z</time>
      </trkpt>
      <trkpt lat="43.44347" lon="6.61227">
        <ele>57.802975</ele>
        <time>2014-02-02T12:38:16Z</time>
      </trkpt>
      <trkpt lat="43.44355" lon="6.61228">
        <ele>59.823299</ele>
        <time>2014-02-02T12:38:24Z</time>
      </trkpt>
      <trkpt lat="43.4436" lon="6.61228">
        <ele>60.956547</ele>
        <time>2014-02-02T12:38:28Z</time>
      </trkpt>
      <trkpt lat="43.4437" lon="6.61231">
        <ele>61.368927</ele>
        <time>2014-02-02T12:38:36Z</time>
      </trkpt>
      <trkpt lat="43.4438" lon="6.61239">
        <ele>60.902008</ele>
        <time>2014-02-02T12:38:43Z</time>
      </trkpt>
      <trkpt lat="43.44386" lon="6.61245">
        <ele>60.551819</ele>
        <time>2014-02-02T12:38:49Z</time>
      </trkpt>
      <trkpt lat="43.44387" lon="6.61246">
        <ele>60.41449</ele>
        <time>2014-02-02T12:38:50Z</time>
      </trkpt>
      <trkpt lat="43.44389" lon="6.6125">
        <ele>60.033966</ele>
        <time>2014-02-02T12:38:53Z</time>
      </trkpt>
      <trkpt lat="43.44394" lon="6.61252">
        <ele>60.329224</ele>
        <time>2014-02-02T12:38:56Z</time>
      </trkpt>
      <trkpt lat="43.44399" lon="6.61256">
        <ele>60.689713</ele>
        <time>2014-02-02T12:39:01Z</time>
      </trkpt>
      <trkpt lat="43.44405" lon="6.61259">
        <ele>61.084534</ele>
        <time>2014-02-02T12:39:05Z</time>
      </trkpt>
      <trkpt lat="43.44413" lon="6.61268">
        <ele>61.239029</ele>
        <time>2014-02-02T12:39:12Z</time>
      </trkpt>
      <trkpt lat="43.44413" lon="6.6127">
        <ele>61.21843</ele>
        <time>2014-02-02T12:39:13Z</time>
      </trkpt>
      <trkpt lat="43.44414" lon="6.61277">
        <ele>60.741211</ele>
        <time>2014-02-02T12:39:17Z</time>
      </trkpt>
      <trkpt lat="43.4441" lon="6.61285">
        <ele>59.411823</ele>
        <time>2014-02-02T12:39:24Z</time>
      </trkpt>
      <trkpt lat="43.44405" lon="6.61294">
        <ele>57.815235</ele>
        <time>2014-02-02T12:39:31Z</time>
      </trkpt>
      <trkpt lat="43.44401" lon="6.61301">
        <ele>56.287773</ele>
        <time>2014-02-02T12:39:38Z</time>
      </trkpt>
      <trkpt lat="43.444" lon="6.61305">
        <ele>55.663349</ele>
        <time>2014-02-02T12:39:41Z</time>
      </trkpt>
      <trkpt lat="43.44402" lon="6.61317">
        <ele>54.088066</ele>
        <time>2014-02-02T12:39:48Z</time>
      </trkpt>
      <trkpt lat="43.44403" lon="6.61326">
        <ele>52.703205</ele>
        <time>2014-02-02T12:39:54Z</time>
      </trkpt>
      <trkpt lat="43.44402" lon="6.61333">
        <ele>51.451572</ele>
        <time>2014-02-02T12:40:00Z</time>
      </trkpt>
      <trkpt lat="43.44399" lon="6.61341">
        <ele>50.497807</ele>
        <time>2014-02-02T12:40:06Z</time>
      </trkpt>
      <trkpt lat="43.44394" lon="6.61349">
        <ele>49.360985</ele>
        <time>2014-02-02T12:40:12Z</time>
      </trkpt>
      <trkpt lat="43.44392" lon="6.6135">
        <ele>49.072826</ele>
        <time>2014-02-02T12:40:14Z</time>
      </trkpt>
      <trkpt lat="43.44386" lon="6.6135">
        <ele>48.498577</ele>
        <time>2014-02-02T12:40:19Z</time>
      </trkpt>
      <trkpt lat="43.44381" lon="6.61343">
        <ele>48.59269</ele>
        <time>2014-02-02T12:40:26Z</time>
      </trkpt>
      <trkpt lat="43.44376" lon="6.61337">
        <ele>48.717365</ele>
        <time>2014-02-02T12:40:31Z</time>
      </trkpt>
      <trkpt lat="43.44373" lon="6.61334">
        <ele>48.808498</ele>
        <time>2014-02-02T12:40:35Z</time>
      </trkpt>
      <trkpt lat="43.44369" lon="6.61331">
        <ele>48.942505</ele>
        <time>2014-02-02T12:40:39Z</time>
      </trkpt>
      <trkpt lat="43.44364" lon="6.6133">
        <ele>48.667847</ele>
        <time>2014-02-02T12:40:43Z</time>
      </trkpt>
      <trkpt lat="43.44358" lon="6.61338">
        <ele>46.906635</ele>
        <time>2014-02-02T12:40:51Z</time>
      </trkpt>
      <trkpt lat="43.44357" lon="6.61343">
        <ele>46.10265</ele>
        <time>2014-02-02T12:40:54Z</time>
      </trkpt>
      <trkpt lat="43.44354" lon="6.61349">
        <ele>44.931561</ele>
        <time>2014-02-02T12:40:58Z</time>
      </trkpt>
      <trkpt lat="43.44352" lon="6.61359">
        <ele>43.54414</ele>
        <time>2014-02-02T12:41:05Z</time>
      </trkpt>
      <trkpt lat="43.44353" lon="6.61366">
        <ele>42.984116</ele>
        <time>2014-02-02T12:41:09Z</time>
      </trkpt>
      <trkpt lat="43.44356" lon="6.61373">
        <ele>42.766106</ele>
        <time>2014-02-02T12:41:15Z</time>
      </trkpt>
      <trkpt lat="43.44361" lon="6.61378">
        <ele>43.206959</ele>
        <time>2014-02-02T12:41:21Z</time>
      </trkpt>
      <trkpt lat="43.44367" lon="6.61388">
        <ele>42.55196</ele>
        <time>2014-02-02T12:41:30Z</time>
      </trkpt>
      <trkpt lat="43.44374" lon="6.61391">
        <ele>42.558563</ele>
        <time>2014-02-02T12:41:36Z</time>
      </trkpt>
      <trkpt lat="43.4438" lon="6.61395">
        <ele>42.434967</ele>
        <time>2014-02-02T12:41:43Z</time>
      </trkpt>
      <trkpt lat="43.44384" lon="6.61396">
        <ele>42.620361</ele>
        <time>2014-02-02T12:41:48Z</time>
      </trkpt>
      <trkpt lat="43.44388" lon="6.61395">
        <ele>42.998016</ele>
        <time>2014-02-02T12:41:51Z</time>
      </trkpt>
      <trkpt lat="43.44397" lon="6.61398">
        <ele>43.231476</ele>
        <time>2014-02-02T12:41:57Z</time>
      </trkpt>
      <trkpt lat="43.44407" lon="6.61402">
        <ele>43.382538</ele>
        <time>2014-02-02T12:42:07Z</time>
      </trkpt>
      <trkpt lat="43.44413" lon="6.61406">
        <ele>43.313873</ele>
        <time>2014-02-02T12:42:13Z</time>
      </trkpt>
      <trkpt lat="43.44418" lon="6.61411">
        <ele>42.839443</ele>
        <time>2014-02-02T12:42:19Z</time>
      </trkpt>
      <trkpt lat="43.44423" lon="6.61416">
        <ele>42.071693</ele>
        <time>2014-02-02T12:42:25Z</time>
      </trkpt>
      <trkpt lat="43.44426" lon="6.61417">
        <ele>41.932297</ele>
        <time>2014-02-02T12:42:28Z</time>
      </trkpt>
      <trkpt lat="43.44428" lon="6.61419">
        <ele>41.695404</ele>
        <time>2014-02-02T12:42:30Z</time>
      </trkpt>
      <trkpt lat="43.44434" lon="6.61428">
        <ele>40.789032</ele>
        <time>2014-02-02T12:42:37Z</time>
      </trkpt>
      <trkpt lat="43.44437" lon="6.61432">
        <ele>40.377045</ele>
        <time>2014-02-02T12:42:41Z</time>
      </trkpt>
      <trkpt lat="43.44436" lon="6.61445">
        <ele>38.947784</ele>
        <time>2014-02-02T12:42:49Z</time>
      </trkpt>
      <trkpt lat="43.44431" lon="6.61456">
        <ele>37.292969</ele>
        <time>2014-02-02T12:42:56Z</time>
      </trkpt>
      <trkpt lat="43.44426" lon="6.61468">
        <ele>35.562622</ele>
        <time>2014-02-02T12:43:04Z</time>
      </trkpt>
      <trkpt lat="43.44422" lon="6.61477">
        <ele>34.385998</ele>
        <time>2014-02-02T12:43:10Z</time>
      </trkpt>
      <trkpt lat="43.4442" lon="6.61481">
        <ele>33.790108</ele>
        <time>2014-02-02T12:43:17Z</time>
      </trkpt>
      <trkpt lat="43.44421" lon="6.6148">
        <ele>33.897667</ele>
        <time>2014-02-02T12:43:25Z</time>
      </trkpt>
      <trkpt lat="43.44421" lon="6.61487">
        <ele>32.993694</ele>
        <time>2014-02-02T12:44:38Z</time>
      </trkpt>
      <trkpt lat="43.4442" lon="6.61489">
        <ele>32.700249</ele>
        <time>2014-02-02T12:44:42Z</time>
      </trkpt>
      <trkpt lat="43.44411" lon="6.61495">
        <ele>31.544006</ele>
        <time>2014-02-02T12:44:51Z</time>
      </trkpt>
      <trkpt lat="43.44404" lon="6.61503">
        <ele>30.229973</ele>
        <time>2014-02-02T12:44:59Z</time>
      </trkpt>
      <trkpt lat="43.44398" lon="6.61512">
        <ele>29.057526</ele>
        <time>2014-02-02T12:45:05Z</time>
      </trkpt>
      <trkpt lat="43.44391" lon="6.61521">
        <ele>27.83358</ele>
        <time>2014-02-02T12:45:13Z</time>
      </trkpt>
      <trkpt lat="43.4439" lon="6.61526">
        <ele>27.224182</ele>
        <time>2014-02-02T12:45:16Z</time>
      </trkpt>
      <trkpt lat="43.44387" lon="6.6154">
        <ele>25.152784</ele>
        <time>2014-02-02T12:45:24Z</time>
      </trkpt>
      <trkpt lat="43.44386" lon="6.61551">
        <ele>23.542007</ele>
        <time>2014-02-02T12:45:30Z</time>
      </trkpt>
      <trkpt lat="43.44384" lon="6.61562">
        <ele>22.211151</ele>
        <time>2014-02-02T12:45:37Z</time>
      </trkpt>
      <trkpt lat="43.44384" lon="6.61568">
        <ele>21.57324</ele>
        <time>2014-02-02T12:45:41Z</time>
      </trkpt>
      <trkpt lat="43.44382" lon="6.61581">
        <ele>20.214418</ele>
        <time>2014-02-02T12:45:49Z</time>
      </trkpt>
      <trkpt lat="43.4438" lon="6.61597">
        <ele>20</ele>
        <time>2014-02-02T12:45:58Z</time>
      </trkpt>
      <trkpt lat="43.44376" lon="6.61606">
        <ele>20</ele>
        <time>2014-02-02T12:46:04Z</time>
      </trkpt>
      <trkpt lat="43.44368" lon="6.61612">
        <ele>20</ele>
        <time>2014-02-02T12:46:11Z</time>
      </trkpt>
      <trkpt lat="43.44361" lon="6.61617">
        <ele>20</ele>
        <time>2014-02-02T12:46:17Z</time>
      </trkpt>
      <trkpt lat="43.44358" lon="6.61623">
        <ele>20</ele>
        <time>2014-02-02T12:46:22Z</time>
      </trkpt>
      <trkpt lat="43.44349" lon="6.61631">
        <ele>20</ele>
        <time>2014-02-02T12:46:31Z</time>
      </trkpt>
      <trkpt lat="43.44347" lon="6.61637">
        <ele>20</ele>
        <time>2014-02-02T12:46:37Z</time>
      </trkpt>
      <trkpt lat="43.44349" lon="6.61642">
        <ele>20</ele>
        <time>2014-02-02T12:46:41Z</time>
      </trkpt>
      <trkpt lat="43.44351" lon="6.61647">
        <ele>20</ele>
        <time>2014-02-02T12:46:47Z</time>
      </trkpt>
      <trkpt lat="43.44352" lon="6.6165">
        <ele>20</ele>
        <time>2014-02-02T12:46:50Z</time>
      </trkpt>
      <trkpt lat="43.44353" lon="6.61652">
        <ele>20</ele>
        <time>2014-02-02T12:46:52Z</time>
      </trkpt>
      <trkpt lat="43.44352" lon="6.61661">
        <ele>20</ele>
        <time>2014-02-02T12:46:57Z</time>
      </trkpt>
      <trkpt lat="43.44354" lon="6.6167">
        <ele>20</ele>
        <time>2014-02-02T12:47:03Z</time>
      </trkpt>
      <trkpt lat="43.44355" lon="6.61676">
        <ele>20</ele>
        <time>2014-02-02T12:47:08Z</time>
      </trkpt>
      <trkpt lat="43.44355" lon="6.61681">
        <ele>20</ele>
        <time>2014-02-02T12:47:12Z</time>
      </trkpt>
      <trkpt lat="43.44354" lon="6.61685">
        <ele>20</ele>
        <time>2014-02-02T12:47:15Z</time>
      </trkpt>
      <trkpt lat="43.44353" lon="6.61693">
        <ele>20</ele>
        <time>2014-02-02T12:47:19Z</time>
      </trkpt>
      <trkpt lat="43.44354" lon="6.61698">
        <ele>20</ele>
        <time>2014-02-02T12:47:22Z</time>
      </trkpt>
      <trkpt lat="43.44355" lon="6.61708">
        <ele>20</ele>
        <time>2014-02-02T12:47:28Z</time>
      </trkpt>
      <trkpt lat="43.44357" lon="6.61714">
        <ele>20</ele>
        <time>2014-02-02T12:47:34Z</time>
      </trkpt>
      <trkpt lat="43.44358" lon="6.6172">
        <ele>20</ele>
        <time>2014-02-02T12:47:39Z</time>
      </trkpt>
      <trkpt lat="43.44358" lon="6.61725">
        <ele>20</ele>
        <time>2014-02-02T12:47:46Z</time>
      </trkpt>
      <trkpt lat="43.44359" lon="6.61731">
        <ele>20</ele>
        <time>2014-02-02T12:47:54Z</time>
      </trkpt>
      <trkpt lat="43.4436" lon="6.61732">
        <ele>20</ele>
        <time>2014-02-02T12:47:55Z</time>
      </trkpt>
      <trkpt lat="43.44361" lon="6.61735">
        <ele>20</ele>
        <time>2014-02-02T12:47:58Z</time>
      </trkpt>
      <trkpt lat="43.44364" lon="6.61745">
        <ele>20</ele>
        <time>2014-02-02T12:48:04Z</time>
      </trkpt>
      <trkpt lat="43.44365" lon="6.61752">
        <ele>20</ele>
        <time>2014-02-02T12:48:09Z</time>
      </trkpt>
      <trkpt lat="43.44366" lon="6.61765">
        <ele>20</ele>
        <time>2014-02-02T12:48:16Z</time>
      </trkpt>
      <trkpt lat="43.44366" lon="6.61777">
        <ele>20</ele>
        <time>2014-02-02T12:48:23Z</time>
      </trkpt>
      <trkpt lat="43.44367" lon="6.61782">
        <ele>20</ele>
        <time>2014-02-02T12:48:26Z</time>
      </trkpt>
      <trkpt lat="43.44368" lon="6.61795">
        <ele>20</ele>
        <time>2014-02-02T12:48:33Z</time>
      </trkpt>
      <trkpt lat="43.44368" lon="6.61807">
        <ele>20</ele>
        <time>2014-02-02T12:48:41Z</time>
      </trkpt>
      <trkpt lat="43.44368" lon="6.61818">
        <ele>20</ele>
        <time>2014-02-02T12:48:49Z</time>
      </trkpt>
      <trkpt lat="43.44369" lon="6.61825">
        <ele>20</ele>
        <time>2014-02-02T12:48:54Z</time>
      </trkpt>
      <trkpt lat="43.44369" lon="6.61835">
        <ele>20</ele>
        <time>2014-02-02T12:49:00Z</time>
      </trkpt>
      <trkpt lat="43.4437" lon="6.61844">
        <ele>20</ele>
        <time>2014-02-02T12:49:05Z</time>
      </trkpt>
      <trkpt lat="43.44371" lon="6.61865">
        <ele>20</ele>
        <time>2014-02-02T12:49:15Z</time>
      </trkpt>
      <trkpt lat="43.4437" lon="6.61878">
        <ele>20</ele>
        <time>2014-02-02T12:49:22Z</time>
      </trkpt>
      <trkpt lat="43.44371" lon="6.61882">
        <ele>20</ele>
        <time>2014-02-02T12:49:25Z</time>
      </trkpt>
      <trkpt lat="43.4437" lon="6.61896">
        <ele>20</ele>
        <time>2014-02-02T12:49:34Z</time>
      </trkpt>
      <trkpt lat="43.44368" lon="6.61903">
        <ele>20</ele>
        <time>2014-02-02T12:49:39Z</time>
      </trkpt>
      <trkpt lat="43.44372" lon="6.6191">
        <ele>20</ele>
        <time>2014-02-02T12:49:46Z</time>
      </trkpt>
      <trkpt lat="43.44373" lon="6.61915">
        <ele>20</ele>
        <time>2014-02-02T12:49:50Z</time>
      </trkpt>
      <trkpt lat="43.44374" lon="6.61932">
        <ele>20</ele>
        <time>2014-02-02T12:49:58Z</time>
      </trkpt>
      <trkpt lat="43.44376" lon="6.61943">
        <ele>20</ele>
        <time>2014-02-02T12:50:04Z</time>
      </trkpt>
      <trkpt lat="43.44379" lon="6.61951">
        <ele>20</ele>
        <time>2014-02-02T12:50:10Z</time>
      </trkpt>
      <trkpt lat="43.44385" lon="6.61963">
        <ele>20</ele>
        <time>2014-02-02T12:50:18Z</time>
      </trkpt>
      <trkpt lat="43.44385" lon="6.61965">
        <ele>20</ele>
        <time>2014-02-02T12:50:19Z</time>
      </trkpt>
      <trkpt lat="43.44387" lon="6.61972">
        <ele>20</ele>
        <time>2014-02-02T12:50:24Z</time>
      </trkpt>
      <trkpt lat="43.44391" lon="6.6199">
        <ele>20</ele>
        <time>2014-02-02T12:50:34Z</time>
      </trkpt>
      <trkpt lat="43.44394" lon="6.62006">
        <ele>20</ele>
        <time>2014-02-02T12:50:42Z</time>
      </trkpt>
      <trkpt lat="43.44394" lon="6.62007">
        <ele>20</ele>
        <time>2014-02-02T12:50:43Z</time>
      </trkpt>
      <trkpt lat="43.44397" lon="6.62016">
        <ele>20</ele>
        <time>2014-02-02T12:50:50Z</time>
      </trkpt>
      <trkpt lat="43.44404" lon="6.62022">
        <ele>20</ele>
        <time>2014-02-02T12:50:56Z</time>
      </trkpt>
      <trkpt lat="43.44411" lon="6.62025">
        <ele>20</ele>
        <time>2014-02-02T12:51:01Z</time>
      </trkpt>
      <trkpt lat="43.44416" lon="6.62028">
        <ele>20</ele>
        <time>2014-02-02T12:51:05Z</time>
      </trkpt>
      <trkpt lat="43.44422" lon="6.62028">
        <ele>20</ele>
        <time>2014-02-02T12:51:11Z</time>
      </trkpt>
      <trkpt lat="43.44426" lon="6.62028">
        <ele>20</ele>
        <time>2014-02-02T12:51:15Z</time>
      </trkpt>
      <trkpt lat="43.44434" lon="6.62026">
        <ele>20</ele>
        <time>2014-02-02T12:51:23Z</time>
      </trkpt>
      <trkpt lat="43.44441" lon="6.62025">
        <ele>20</ele>
        <time>2014-02-02T12:51:29Z</time>
      </trkpt>
      <trkpt lat="43.44452" lon="6.62023">
        <ele>20</ele>
        <time>2014-02-02T12:51:38Z</time>
      </trkpt>
      <trkpt lat="43.44461" lon="6.62022">
        <ele>20</ele>
        <time>2014-02-02T12:51:47Z</time>
      </trkpt>
      <trkpt lat="43.4447" lon="6.62024">
        <ele>20</ele>
        <time>2014-02-02T12:51:55Z</time>
      </trkpt>
      <trkpt lat="43.44476" lon="6.62027">
        <ele>20</ele>
        <time>2014-02-02T12:52:02Z</time>
      </trkpt>
      <trkpt lat="43.44484" lon="6.6203">
        <ele>20</ele>
        <time>2014-02-02T12:52:08Z</time>
      </trkpt>
      <trkpt lat="43.44496" lon="6.6203">
        <ele>20</ele>
        <time>2014-02-02T12:52:13Z</time>
      </trkpt>
      <trkpt lat="43.445" lon="6.62031">
        <ele>20</ele>
        <time>2014-02-02T12:52:15Z</time>
      </trkpt>
      <trkpt lat="43.44507" lon="6.62034">
        <ele>20</ele>
        <time>2014-02-02T12:52:20Z</time>
      </trkpt>
      <trkpt lat="43.44511" lon="6.62035">
        <ele>20</ele>
        <time>2014-02-02T12:52:22Z</time>
      </trkpt>
      <trkpt lat="43.44517" lon="6.62039">
        <ele>20</ele>
        <time>2014-02-02T12:52:28Z</time>
      </trkpt>
      <trkpt lat="43.44521" lon="6.62043">
        <ele>20</ele>
        <time>2014-02-02T12:52:32Z</time>
      </trkpt>
      <trkpt lat="43.44532" lon="6.6205">
        <ele>20</ele>
        <time>2014-02-02T12:52:42Z</time>
      </trkpt>
      <trkpt lat="43.44539" lon="6.62051">
        <ele>20</ele>
        <time>2014-02-02T12:52:48Z</time>
      </trkpt>
      <trkpt lat="43.44547" lon="6.62053">
        <ele>20</ele>
        <time>2014-02-02T12:52:54Z</time>
      </trkpt>
      <trkpt lat="43.44554" lon="6.62053">
        <ele>20</ele>
        <time>2014-02-02T12:52:59Z</time>
      </trkpt>
      <trkpt lat="43.44555" lon="6.62053">
        <ele>20</ele>
        <time>2014-02-02T12:53:00Z</time>
      </trkpt>
      <trkpt lat="43.44559" lon="6.62055">
        <ele>20</ele>
        <time>2014-02-02T12:53:04Z</time>
      </trkpt>
      <trkpt lat="43.44566" lon="6.62057">
        <ele>20</ele>
        <time>2014-02-02T12:53:10Z</time>
      </trkpt>
      <trkpt lat="43.44569" lon="6.62058">
        <ele>20</ele>
        <time>2014-02-02T12:53:12Z</time>
      </trkpt>
      <trkpt lat="43.44574" lon="6.62059">
        <ele>20</ele>
        <time>2014-02-02T12:53:16Z</time>
      </trkpt>
      <trkpt lat="43.44587" lon="6.62062">
        <ele>20</ele>
        <time>2014-02-02T12:53:24Z</time>
      </trkpt>
      <trkpt lat="43.4459" lon="6.62063">
        <ele>20</ele>
        <time>2014-02-02T12:53:26Z</time>
      </trkpt>
      <trkpt lat="43.446" lon="6.62064">
        <ele>20</ele>
        <time>2014-02-02T12:53:32Z</time>
      </trkpt>
      <trkpt lat="43.44608" lon="6.62065">
        <ele>20</ele>
        <time>2014-02-02T12:53:38Z</time>
      </trkpt>
      <trkpt lat="43.44614" lon="6.62068">
        <ele>20</ele>
        <time>2014-02-02T12:53:43Z</time>
      </trkpt>
      <trkpt lat="43.44623" lon="6.62069">
        <ele>20</ele>
        <time>2014-02-02T12:53:51Z</time>
      </trkpt>
      <trkpt lat="43.4463" lon="6.62069">
        <ele>20</ele>
        <time>2014-02-02T12:53:56Z</time>
      </trkpt>
      <trkpt lat="43.44639" lon="6.62071">
        <ele>20</ele>
        <time>2014-02-02T12:54:03Z</time>
      </trkpt>
      <trkpt lat="43.44641" lon="6.62071">
        <ele>20</ele>
        <time>2014-02-02T12:54:05Z</time>
      </trkpt>
      <trkpt lat="43.44647" lon="6.62073">
        <ele>20</ele>
        <time>2014-02-02T12:54:11Z</time>
      </trkpt>
      <trkpt lat="43.44651" lon="6.62073">
        <ele>20</ele>
        <time>2014-02-02T12:54:13Z</time>
      </trkpt>
      <trkpt lat="43.44661" lon="6.62075">
        <ele>20</ele>
        <time>2014-02-02T12:54:21Z</time>
      </trkpt>
      <trkpt lat="43.44664" lon="6.62075">
        <ele>20</ele>
        <time>2014-02-02T12:54:24Z</time>
      </trkpt>
      <trkpt lat="43.44669" lon="6.62077">
        <ele>20</ele>
        <time>2014-02-02T12:54:28Z</time>
      </trkpt>
      <trkpt lat="43.44671" lon="6.6208">
        <ele>20</ele>
        <time>2014-02-02T12:54:31Z</time>
      </trkpt>
      <trkpt lat="43.44681" lon="6.62089">
        <ele>20</ele>
        <time>2014-02-02T12:54:40Z</time>
      </trkpt>
      <trkpt lat="43.44685" lon="6.62093">
        <ele>20</ele>
        <time>2014-02-02T12:54:44Z</time>
      </trkpt>
      <trkpt lat="43.44691" lon="6.62104">
        <ele>20</ele>
        <time>2014-02-02T12:54:52Z</time>
      </trkpt>
      <trkpt lat="43.44695" lon="6.62112">
        <ele>20</ele>
        <time>2014-02-02T12:54:58Z</time>
      </trkpt>
      <trkpt lat="43.44696" lon="6.62115">
        <ele>20</ele>
        <time>2014-02-02T12:55:01Z</time>
      </trkpt>
      <trkpt lat="43.44702" lon="6.62126">
        <ele>20</ele>
        <time>2014-02-02T12:55:08Z</time>
      </trkpt>
      <trkpt lat="43.44707" lon="6.62132">
        <ele>20</ele>
        <time>2014-02-02T12:55:13Z</time>
      </trkpt>
      <trkpt lat="43.44708" lon="6.62133">
        <ele>20</ele>
        <time>2014-02-02T12:55:14Z</time>
      </trkpt>
      <trkpt lat="43.44714" lon="6.62138">
        <ele>20</ele>
        <time>2014-02-02T12:55:19Z</time>
      </trkpt>
      <trkpt lat="43.44723" lon="6.62147">
        <ele>19.646217</ele>
        <time>2014-02-02T12:55:28Z</time>
      </trkpt>
      <trkpt lat="43.44732" lon="6.62153">
        <ele>18.811943</ele>
        <time>2014-02-02T12:55:36Z</time>
      </trkpt>
      <trkpt lat="43.44736" lon="6.62158">
        <ele>18.343307</ele>
        <time>2014-02-02T12:55:41Z</time>
      </trkpt>
      <trkpt lat="43.44743" lon="6.62163">
        <ele>17.648079</ele>
        <time>2014-02-02T12:55:48Z</time>
      </trkpt>
      <trkpt lat="43.44748" lon="6.62168">
        <ele>17.219923</ele>
        <time>2014-02-02T12:55:54Z</time>
      </trkpt>
      <trkpt lat="43.44754" lon="6.62172">
        <ele>17.163301</ele>
        <time>2014-02-02T12:56:00Z</time>
      </trkpt>
      <trkpt lat="43.44754" lon="6.62173">
        <ele>17.194241</ele>
        <time>2014-02-02T12:56:01Z</time>
      </trkpt>
      <trkpt lat="43.44758" lon="6.6218">
        <ele>17.332911</ele>
        <time>2014-02-02T12:56:07Z</time>
      </trkpt>
      <trkpt lat="43.44763" lon="6.62187">
        <ele>17.38286</ele>
        <time>2014-02-02T12:56:13Z</time>
      </trkpt>
      <trkpt lat="43.44767" lon="6.62195">
        <ele>17.39315</ele>
        <time>2014-02-02T12:56:18Z</time>
      </trkpt>
      <trkpt lat="43.44772" lon="6.62203">
        <ele>17.516747</ele>
        <time>2014-02-02T12:56:24Z</time>
      </trkpt>
      <trkpt lat="43.44775" lon="6.62209">
        <ele>17.652359</ele>
        <time>2014-02-02T12:56:28Z</time>
      </trkpt>
      <trkpt lat="43.44779" lon="6.62217">
        <ele>17.746967</ele>
        <time>2014-02-02T12:56:34Z</time>
      </trkpt>
      <trkpt lat="43.44785" lon="6.62229">
        <ele>17.774345</ele>
        <time>2014-02-02T12:56:42Z</time>
      </trkpt>
      <trkpt lat="43.44791" lon="6.62239">
        <ele>17.669632</ele>
        <time>2014-02-02T12:56:49Z</time>
      </trkpt>
      <trkpt lat="43.44798" lon="6.62245">
        <ele>17.355492</ele>
        <time>2014-02-02T12:56:56Z</time>
      </trkpt>
      <trkpt lat="43.44804" lon="6.62247">
        <ele>17.027618</ele>
        <time>2014-02-02T12:57:03Z</time>
      </trkpt>
      <trkpt lat="43.44808" lon="6.6225">
        <ele>16.746269</ele>
        <time>2014-02-02T12:57:07Z</time>
      </trkpt>
      <trkpt lat="43.44818" lon="6.62258">
        <ele>15.643555</ele>
        <time>2014-02-02T12:57:14Z</time>
      </trkpt>
      <trkpt lat="43.44823" lon="6.62263">
        <ele>15.066772</ele>
        <time>2014-02-02T12:57:19Z</time>
      </trkpt>
      <trkpt lat="43.44832" lon="6.62271">
        <ele>14.119202</ele>
        <time>2014-02-02T12:57:27Z</time>
      </trkpt>
      <trkpt lat="43.44837" lon="6.62273">
        <ele>13.874939</ele>
        <time>2014-02-02T12:57:30Z</time>
      </trkpt>
      <trkpt lat="43.4484" lon="6.62275">
        <ele>13.765076</ele>
        <time>2014-02-02T12:57:33Z</time>
      </trkpt>
      <trkpt lat="43.44845" lon="6.62278">
        <ele>13.586548</ele>
        <time>2014-02-02T12:57:37Z</time>
      </trkpt>
      <trkpt lat="43.44846" lon="6.62279">
        <ele>13.531616</ele>
        <time>2014-02-02T12:57:39Z</time>
      </trkpt>
      <trkpt lat="43.44851" lon="6.62279">
        <ele>13.380554</ele>
        <time>2014-02-02T12:57:43Z</time>
      </trkpt>
      <trkpt lat="43.44858" lon="6.62284">
        <ele>13.119629</ele>
        <time>2014-02-02T12:57:50Z</time>
      </trkpt>
      <trkpt lat="43.44861" lon="6.6228">
        <ele>12.992065</ele>
        <time>2014-02-02T12:57:59Z</time>
      </trkpt>
      <trkpt lat="43.44861" lon="6.62276">
        <ele>12.992261</ele>
        <time>2014-02-02T12:58:34Z</time>
      </trkpt>
      <trkpt lat="43.44862" lon="6.62277">
        <ele>12.937548</ele>
        <time>2014-02-02T12:58:40Z</time>
      </trkpt>
      <trkpt lat="43.44859" lon="6.62279">
        <ele>13.064697</ele>
        <time>2014-02-02T12:59:53Z</time>
      </trkpt>
      <trkpt lat="43.4486" lon="6.6228">
        <ele>13.037231</ele>
        <time>2014-02-02T13:00:00Z</time>
      </trkpt>
      <trkpt lat="43.44859" lon="6.62283">
        <ele>13.07843</ele>
        <time>2014-02-02T13:00:59Z</time>
      </trkpt>
    </trkseg>
  </trk>
</gpx>